PK709 / AP-BHW 7700 Squawk Report (24th of January, 2020)

Aircraft B77W Reg No. AP-BHW Age 13 years old
Model 777 Jet engines 2 First flight 31-01-07
Registered 07-02-07 Rollout 11-01-07 Delivered 07-02-07
Construction No. 33779 Line No. 0611 Series 340(ER)
ADSHEX 760917 Airline name Pakistan International Airlines (PIA) Owner N/A
Airfield based Karachi~ ~AP First tracked 2017-07-13 04:45:00

Flight history for AP-BHW

Route Flight No Date Playback
Birmingham (BHX) - Islamabad International Airport (ISB) PK792 2020-02-17 00:12:00
Islamabad International Airport (ISB) - Birmingham (BHX) PK791 2020-02-16 17:36:00
Manchester (MAN) - Islamabad International Airport (ISB) PK702 2020-02-16 03:59:00
Islamabad International Airport (ISB) - Manchester (MAN) PK701 2020-02-15 19:21:00
King Khaled Intl (RUH) - Islamabad International Airport (ISB) PK754 2020-02-15 10:41:00
Islamabad International Airport (ISB) - King Khaled Intl (RUH) PK753 2020-02-15 03:55:00
King Abdulaziz Intl (JED) - Islamabad International Airport (ISB) PK742 2020-02-14 18:44:00
Multan Intl (MUX) - King Abdulaziz Intl (JED) PK739 2020-02-14 11:45:00
King Abdulaziz Intl (JED) - Multan Intl (MUX) PK740 2020-02-14 09:34:00
Allama Iqbal Intl (LHE) - King Abdulaziz Intl (JED) PK759 2020-02-13 22:44:00
Jinnah Intl (KHI) - Allama Iqbal Intl (LHE) PK306 2020-02-13 15:47:00
???? PK860 2020-02-11 20:45:00
Islamabad International Airport (ISB) - King Abdulaziz Intl (JED) PK741 2020-02-11 18:55:00
Manchester (MAN) - Islamabad International Airport (ISB) PK702 2020-02-11 13:13:00
Islamabad International Airport (ISB) - Manchester (MAN) PK701 2020-02-10 21:28:00
Manchester (MAN) - Islamabad International Airport (ISB) PK702 2020-02-10 10:42:00
Islamabad International Airport (ISB) - Manchester (MAN) PK701 2020-02-09 21:21:00
King Abdulaziz Intl (JED) - Islamabad International Airport (ISB) PK742 2020-02-08 19:05:00
Allama Iqbal Intl (LHE) - King Abdulaziz Intl (JED) PK859 2020-02-08 11:55:00
King Abdulaziz Intl (JED) - Allama Iqbal Intl (LHE) PK860 2020-02-08 05:18:00
Time Lat Lon Altitude Heading Speed Vertical Rate
2020-01-24 17:18:21 GMT 53.357452 -2.278734 0 5 11 0
2020-01-24 17:18:07 GMT 53.356773 -2.278839 0 5 10 0
2020-01-24 17:17:11 GMT 53.354103 -2.281602 0 8 14 0
2020-01-24 17:17:04 GMT 53.353649 -2.281723 0 14 14 0
2020-01-24 17:16:55 GMT 53.353111 -2.282026 0 28 14 0
2020-01-24 17:16:44 GMT 53.352551 -2.282645 0 39 15 0
2020-01-24 17:16:35 GMT 53.352127 -2.283391 0 50 19 0
2020-01-24 17:16:25 GMT 53.351528 -2.284651 0 50 18 0
2020-01-24 17:16:15 GMT 53.351097 -2.285540 0 50 15 0
2020-01-24 17:16:05 GMT 53.350750 -2.286267 0 50 10 0
2020-01-24 17:15:55 GMT 53.350506 -2.286752 0 50 8 0
2020-01-24 17:15:43 GMT 53.350227 -2.287236 0 39 8 0
2020-01-24 17:15:35 GMT 53.349987 -2.287510 0 22 8 0
2020-01-24 17:15:24 GMT 53.349632 -2.287334 0 315 10 0
2020-01-24 17:15:02 GMT 53.349506 -2.285725 0 261 18 0
2020-01-24 17:14:54 GMT 53.349632 -2.284651 0 255 24 0
2020-01-24 17:14:43 GMT 53.350170 -2.282527 0 236 24 0
2020-01-24 17:14:34 GMT 53.350670 -2.281339 0 230 27 0
2020-01-24 17:14:23 GMT 53.352127 -2.278329 0 230 70 0
2020-01-24 17:14:12 GMT 53.354988 -2.272385 0 230 110 0
2020-01-24 17:14:02 GMT 53.358196 -2.265748 0 230 145 0
2020-01-24 17:13:52 GMT 53.362598 -2.256640 100 232 146 -704
2020-01-24 17:13:42 GMT 53.366730 -2.248038 250 231 145 -768
2020-01-24 17:13:32 GMT 53.371071 -2.239111 375 231 145 -832
2020-01-24 17:13:26 GMT 53.375305 -2.230305 500 231 145 -832
2020-01-24 17:13:22 GMT 53.375305 -2.230305 525 232 146 -832
2020-01-24 17:13:15 GMT 53.378193 -2.224328 650 232 147 -832
2020-01-24 17:13:12 GMT 53.379639 -2.221357 675 232 147 -768
2020-01-24 17:13:07 GMT 53.381882 -2.216727 750 232 147 -768
2020-01-24 17:13:04 GMT 53.383499 -2.213341 800 232 147 -768
2020-01-24 17:12:58 GMT 53.385681 -2.208880 875 232 147 -768
2020-01-24 17:12:55 GMT 53.386944 -2.206152 925 232 147 -768
2020-01-24 17:12:52 GMT 53.388668 -2.202597 975 232 148 -832
2020-01-24 17:12:48 GMT 53.389755 -2.200326 1,025 231 149 -832
2020-01-24 17:12:45 GMT 53.391228 -2.197266 1,050 231 149 -832
2020-01-24 17:12:39 GMT 53.393833 -2.191853 1,150 232 150 -768
2020-01-24 17:12:35 GMT 53.395477 -2.188398 1,200 231 150 -768
2020-01-24 17:12:28 GMT 53.398396 -2.182402 1,300 231 155 -832
2020-01-24 17:12:25 GMT 53.399654 -2.179817 1,325 232 157 -896
2020-01-24 17:12:22 GMT 53.401096 -2.176747 1,375 232 160 -960
2020-01-24 17:12:19 GMT 53.402893 -2.173017 1,425 232 165 -768
2020-01-24 17:12:15 GMT 53.404861 -2.169015 1,475 232 169 -832
2020-01-24 17:12:12 GMT 53.406418 -2.165719 1,525 232 170 -832
2020-01-24 17:12:07 GMT 53.408546 -2.161398 1,575 232 174 -896
2020-01-24 17:12:04 GMT 53.409943 -2.158410 1,625 232 175 -960
2020-01-24 17:12:01 GMT 53.413147 -2.151751 1,775 232 181 -1088
2020-01-24 17:11:58 GMT 53.413147 -2.151751 1,775 232 182 -1088
2020-01-24 17:11:54 GMT 53.415340 -2.147181 1,800 231 182 -1088
2020-01-24 17:11:51 GMT 53.416832 -2.144111 1,875 232 186 -1024
2020-01-24 17:11:48 GMT 53.418365 -2.140961 1,975 232 189 -960
2020-01-24 17:11:44 GMT 53.420654 -2.136213 2,000 232 191 -960
2020-01-24 17:11:41 GMT 53.422325 -2.132721 2,075 232 194 -1024
2020-01-24 17:11:37 GMT 53.426373 -2.124320 2,125 232 196 -1088
2020-01-24 17:11:34 GMT 53.426373 -2.124320 2,150 232 197 -1152
2020-01-24 17:11:31 GMT 53.428116 -2.120675 2,200 232 199 -1088
2020-01-24 17:11:27 GMT 53.430565 -2.115595 2,300 231 204 -1024
2020-01-24 17:11:24 GMT 53.432240 -2.112122 2,350 232 206 -1152
2020-01-24 17:11:21 GMT 53.434067 -2.108355 2,425 232 210 -1024
2020-01-24 17:11:18 GMT 53.435871 -2.104528 2,450 232 211 -1088
2020-01-24 17:11:15 GMT 53.437546 -2.100974 2,525 232 212 -1152
2020-01-24 17:11:12 GMT 53.439037 -2.097904 2,550 232 211 -1216
2020-01-24 17:11:09 GMT 53.441162 -2.093602 2,675 231 212 -1152
2020-01-24 17:11:06 GMT 53.445461 -2.084656 2,775 232 212 -1152
2020-01-24 17:11:03 GMT 53.447571 -2.080261 2,825 232 212 -1216
2020-01-24 17:10:59 GMT 53.447571 -2.080261 2,850 232 213 -1216
2020-01-24 17:10:56 GMT 53.451508 -2.071943 2,950 232 213 -1280
2020-01-24 17:10:53 GMT 53.451508 -2.071943 3,000 232 213 -1280
2020-01-24 17:10:47 GMT 53.455097 -2.064541 3,150 232 213 -1152
2020-01-24 17:10:44 GMT 53.456539 -2.061471 3,175 232 213 -1216
2020-01-24 17:10:41 GMT 53.459007 -2.056301 3,275 232 213 -1152
2020-01-24 17:10:38 GMT 53.460777 -2.052666 3,300 232 213 -1024
2020-01-24 17:10:35 GMT 53.464096 -2.045733 3,375 232 214 -768
2020-01-24 17:10:32 GMT 53.464096 -2.045733 3,400 232 216 -512
2020-01-24 17:10:29 GMT 53.466736 -2.040226 3,425 232 217 -576
2020-01-24 17:10:25 GMT 53.468628 -2.036237 3,475 232 219 -896
2020-01-24 17:10:21 GMT 53.472786 -2.027462 3,525 232 220 -960
2020-01-24 17:10:18 GMT 53.472786 -2.027462 3,600 232 221 -960
2020-01-24 17:10:15 GMT 53.474991 -2.022975 3,625 232 221 -896
2020-01-24 17:10:12 GMT 53.477051 -2.018659 3,675 232 222 -832
2020-01-24 17:10:09 GMT 53.479340 -2.013872 3,700 232 222 -832
2020-01-24 17:10:06 GMT 53.481586 -2.009367 3,750 231 223 -704
2020-01-24 17:10:02 GMT 53.483505 -2.005319 3,800 231 225 -640
2020-01-24 17:09:58 GMT 53.486160 -1.999826 3,825 232 226 -640
2020-01-24 17:09:55 GMT 53.488663 -1.994665 3,850 232 227 -640
2020-01-24 17:09:52 GMT 53.491928 -1.987662 3,925 233 231 -640
2020-01-24 17:09:49 GMT 53.493874 -1.983436 3,950 233 231 -640
2020-01-24 17:09:46 GMT 53.495819 -1.979109 3,975 233 232 -576
2020-01-24 17:09:43 GMT 53.495819 -1.979109 4,000 233 233 -512
2020-01-24 17:09:40 GMT 53.498577 -1.973096 4,025 233 234 -512
2020-01-24 17:09:37 GMT 53.499756 -1.970476 4,075 235 238 -576
2020-01-24 17:09:34 GMT 53.501587 -1.966396 4,075 234 238 -576
2020-01-24 17:09:31 GMT 53.503693 -1.961609 4,100 239 243 -448
2020-01-24 17:09:28 GMT 53.505478 -1.957371 4,125 236 240 -512
2020-01-24 17:09:25 GMT 53.507446 -1.952427 4,150 237 241 -512
2020-01-24 17:09:22 GMT 53.511063 -1.941912 4,200 243 245 -448
2020-01-24 17:09:15 GMT 53.512802 -1.935713 4,250 249 247 -576
2020-01-24 17:09:12 GMT 53.514076 -1.930362 4,250 250 248 -576
2020-01-24 17:09:09 GMT 53.515366 -1.924177 4,300 253 250 -576
2020-01-24 17:09:06 GMT 53.516052 -1.920410 4,325 254 251 -640
2020-01-24 17:09:03 GMT 53.517010 -1.914852 4,350 254 252 -704
2020-01-24 17:09:00 GMT 53.518204 -1.907619 4,400 256 254 -704
2020-01-24 17:08:57 GMT 53.518982 -1.902283 4,450 257 256 -704
2020-01-24 17:08:54 GMT 53.519760 -1.896868 4,475 257 258 -704
2020-01-24 17:08:51 GMT 53.522003 -1.881252 4,550 257 260 -704
2020-01-24 17:08:47 GMT 53.522003 -1.881252 4,575 257 260 -768
2020-01-24 17:08:44 GMT 53.522919 -1.874895 4,625 257 262 -768
2020-01-24 17:08:41 GMT 53.523575 -1.870584 4,650 257 262 -832
2020-01-24 17:08:38 GMT 53.524227 -1.865818 4,725 257 263 -640
2020-01-24 17:08:35 GMT 53.525482 -1.857553 4,750 256 263 -576
2020-01-24 17:08:32 GMT 53.526031 -1.853551 4,775 256 263 -512
2020-01-24 17:08:29 GMT 53.527065 -1.846834 4,775 256 263 -448
2020-01-24 17:08:26 GMT 53.527817 -1.841622 4,825 256 263 -128
2020-01-24 17:08:22 GMT 53.529068 -1.833344 4,825 256 263 64
2020-01-24 17:08:19 GMT 53.529766 -1.828577 4,825 256 263 64
2020-01-24 17:08:16 GMT 53.531071 -1.819772 4,825 257 264 0
2020-01-24 17:08:13 GMT 53.531628 -1.815814 4,825 257 264 0
2020-01-24 17:08:10 GMT 53.533447 -1.803406 4,825 257 265 -128
2020-01-24 17:08:04 GMT 53.534409 -1.797049 4,825 257 266 -192
2020-01-24 17:08:01 GMT 53.535873 -1.786612 4,850 257 265 -448
2020-01-24 17:07:55 GMT 53.537613 -1.774606 4,900 257 264 -896
2020-01-24 17:07:49 GMT 53.539490 -1.761030 5,000 257 265 -1280
2020-01-24 17:07:46 GMT 53.539490 -1.761030 5,025 257 265 -1280
2020-01-24 17:07:42 GMT 53.541504 -1.746591 5,150 257 264 -1216
2020-01-24 17:07:36 GMT 53.542191 -1.741804 5,275 257 265 -1216
2020-01-24 17:07:33 GMT 53.543198 -1.734584 5,275 257 265 -1216
2020-01-24 17:07:30 GMT 53.543839 -1.729719 5,375 258 265 -1152
2020-01-24 17:07:27 GMT 53.544758 -1.722915 5,400 258 266 -1152
2020-01-24 17:07:24 GMT 53.545807 -1.715280 5,450 258 266 -1152
2020-01-24 17:07:21 GMT 53.546291 -1.711605 5,525 258 266 -1152
2020-01-24 17:07:18 GMT 53.547226 -1.704764 5,575 258 267 -1152
2020-01-24 17:07:15 GMT 53.548805 -1.693025 5,700 258 267 -1152
2020-01-24 17:07:08 GMT 53.550156 -1.683251 5,800 258 268 -1088
2020-01-24 17:07:05 GMT 53.550575 -1.680020 5,850 258 269 -1024
2020-01-24 17:07:02 GMT 53.551693 -1.671861 5,875 258 269 -1024
2020-01-24 17:06:59 GMT 53.553368 -1.659582 5,975 258 270 -1024
2020-01-24 17:06:53 GMT 53.554020 -1.654654 6,075 258 272 -1088
2020-01-24 17:06:50 GMT 53.555603 -1.642214 6,150 258 273 -1152
2020-01-24 17:06:44 GMT 53.556442 -1.635590 6,200 259 272 -1216
2020-01-24 17:06:41 GMT 53.557297 -1.628566 6,350 259 273 -1344
2020-01-24 17:06:38 GMT 53.558674 -1.617333 6,375 259 273 -1344
2020-01-24 17:06:35 GMT 53.558674 -1.617333 6,425 259 273 -1408
2020-01-24 17:06:32 GMT 53.559402 -1.611145 6,750 260 272 -1408
2020-01-24 17:06:29 GMT 53.560181 -1.604475 6,550 260 272 -1408
2020-01-24 17:06:26 GMT 53.560768 -1.599076 6,650 261 273 -1408
2020-01-24 17:06:23 GMT 53.561646 -1.590271 6,700 262 272 -1344
2020-01-24 17:06:20 GMT 53.562679 -1.577346 6,825 265 272 -1280
2020-01-24 17:06:16 GMT 53.562679 -1.577346 7,500 269 275 -1216
2020-01-24 17:06:12 GMT 53.563099 -1.568056 6,900 267 272 -1280
2020-01-24 17:06:09 GMT 53.563248 -1.561707 7,025 268 273 -1216
2020-01-24 17:06:06 GMT 53.563332 -1.556181 7,075 269 273 -1152
2020-01-24 17:06:03 GMT 53.563477 -1.548131 7,125 269 274 -1152
2020-01-24 17:06:00 GMT 53.563568 -1.542167 7,175 269 274 -1152
2020-01-24 17:05:57 GMT 53.563751 -1.530239 7,275 269 274 -1216
2020-01-24 17:05:54 GMT 53.563797 -1.522980 7,350 269 275 -1216
2020-01-24 17:05:51 GMT 53.563797 -1.522980 7,400 270 275 -1216
2020-01-24 17:05:44 GMT 53.563934 -1.509757 7,500 270 276 -1280
2020-01-24 17:05:41 GMT 53.563980 -1.502461 7,550 270 276 -1216
2020-01-24 17:05:38 GMT 53.564026 -1.496024 7,975 269 277 -1216
2020-01-24 17:05:35 GMT 53.564121 -1.487920 7,700 269 276 -1216
2020-01-24 17:05:32 GMT 53.564262 -1.477580 7,825 269 277 -1216
2020-01-24 17:05:26 GMT 53.564484 -1.464242 7,925 269 278 -1152
2020-01-24 17:05:20 GMT 53.564667 -1.453020 8,050 269 279 -1088
2020-01-24 17:05:14 GMT 53.564941 -1.437483 8,125 269 279 -1024
2020-01-24 17:05:11 GMT 53.564941 -1.437483 8,175 269 280 -960
2020-01-24 17:05:08 GMT 53.565052 -1.431777 8,250 269 281 -1024
2020-01-24 17:05:05 GMT 53.565193 -1.424830 8,325 269 282 -1088
2020-01-24 17:05:02 GMT 53.565308 -1.418256 8,325 268 284 -832
2020-01-24 17:04:59 GMT 53.565426 -1.412551 8,350 269 283 -960
2020-01-24 17:04:56 GMT 53.565563 -1.405523 8,400 268 285 -704
2020-01-24 17:04:53 GMT 53.565674 -1.399737 8,425 269 287 -576
2020-01-24 17:04:50 GMT 53.565845 -1.392113 8,475 268 294 -960
2020-01-24 17:04:47 GMT 53.566124 -1.379511 8,525 268 293 -896
2020-01-24 17:04:44 GMT 53.566357 -1.369413 8,600 268 299 -1408
2020-01-24 17:04:40 GMT 53.566357 -1.369413 8,650 268 299 -1408
2020-01-24 17:04:37 GMT 53.566544 -1.362462 8,675 268 301 -1408
2020-01-24 17:04:34 GMT 53.566681 -1.356812 8,800 267 322 -2816
2020-01-24 17:04:31 GMT 53.566963 -1.346875 8,850 268 309 -1856
2020-01-24 17:04:28 GMT 53.567230 -1.338213 8,950 267 313 -2560
2020-01-24 17:04:24 GMT 53.567505 -1.329032 9,150 267 314 -2944
2020-01-24 17:04:21 GMT 53.567734 -1.323225 9,225 267 315 -3072
2020-01-24 17:04:18 GMT 53.568008 -1.315377 9,450 267 316 -3072
2020-01-24 17:04:15 GMT 53.568237 -1.309492 9,525 267 317 -3008
2020-01-24 17:04:12 GMT 53.568497 -1.302122 9,750 267 319 -3008
2020-01-24 17:04:09 GMT 53.568775 -1.293236 9,850 267 320 -2880
2020-01-24 17:04:06 GMT 53.569061 -1.285793 10,025 267 322 -2752
2020-01-24 17:04:03 GMT 53.569244 -1.279750 10,175 268 324 -2688
2020-01-24 17:04:00 GMT 53.569473 -1.271746 10,175 268 325 -2624
2020-01-24 17:03:57 GMT 53.569660 -1.264155 10,525 268 328 -2432
2020-01-24 17:03:54 GMT 53.569885 -1.255423 10,850 268 336 -2112
2020-01-24 17:03:51 GMT 53.569977 -1.251343 10,550 268 333 -2240
2020-01-24 17:03:48 GMT 53.570251 -1.242004 10,675 268 336 -2112
2020-01-24 17:03:45 GMT 53.570526 -1.230469 10,850 268 362 -4352
2020-01-24 17:03:41 GMT 53.570778 -1.222471 10,975 268 347 -2048
2020-01-24 17:03:38 GMT 53.571075 -1.211164 11,025 268 348 -2112
2020-01-24 17:03:35 GMT 53.571243 -1.205184 11,175 268 354 -2368
2020-01-24 17:03:31 GMT 53.571758 -1.187493 11,475 268 360 -3392
2020-01-24 17:03:25 GMT 53.572083 -1.177476 11,675 268 361 -4544
2020-01-24 17:03:22 GMT 53.572311 -1.169024 12,500 268 361 -4608
2020-01-24 17:03:19 GMT 53.572495 -1.161176 12,100 268 361 -4800
2020-01-24 17:03:16 GMT 53.572689 -1.153888 12,925 268 361 -4416
2020-01-24 17:03:12 GMT 53.572952 -1.142107 12,650 268 362 -4352
2020-01-24 17:03:09 GMT 53.573200 -1.132561 12,875 268 363 -4224
2020-01-24 17:03:06 GMT 53.573410 -1.124137 13,025 268 364 -4224
2020-01-24 17:03:03 GMT 53.573593 -1.116211 13,275 268 366 -4160
2020-01-24 17:03:00 GMT 53.573757 -1.107680 13,400 268 366 -4160
2020-01-24 17:02:57 GMT 53.573944 -1.099683 13,700 269 368 -4160
2020-01-24 17:02:54 GMT 53.574085 -1.090555 13,900 269 369 -4160
2020-01-24 17:02:51 GMT 53.574177 -1.083688 14,125 270 370 -4224
2020-01-24 17:02:48 GMT 53.574223 -1.074479 14,400 272 372 -4288
2020-01-24 17:02:45 GMT 53.574142 -1.065831 14,800 273 372 -4352
2020-01-24 17:02:42 GMT 53.573898 -1.057192 14,875 276 373 -4544
2020-01-24 17:02:39 GMT 53.573387 -1.046771 15,000 277 374 -4672
2020-01-24 17:02:36 GMT 53.573044 -1.041582 15,425 278 374 -4864
2020-01-24 17:02:33 GMT 53.572407 -1.032957 15,550 279 375 -4928
2020-01-24 17:02:30 GMT 53.571442 -1.021964 19,225 279 375 -4928
2020-01-24 17:02:27 GMT 53.570618 -1.012783 19,225 294 397 -2368
2020-01-24 17:02:23 GMT 53.569710 -1.002987 18,275 279 376 -4928
2020-01-24 17:02:20 GMT 53.568684 -0.991435 19,600 294 395 -2624
2020-01-24 17:02:17 GMT 53.568081 -0.984488 16,850 279 376 -5120
2020-01-24 17:02:14 GMT 53.567413 -0.976998 16,950 279 376 -5120
2020-01-24 17:02:11 GMT 53.565445 -0.956203 17,475 280 378 -4160
2020-01-24 17:02:08 GMT 53.564960 -0.951044 17,750 280 378 -4160
2020-01-24 17:02:02 GMT 53.563099 -0.933596 18,025 281 382 -3264
2020-01-24 17:01:59 GMT 53.561890 -0.923094 18,175 282 384 -2880
2020-01-24 17:01:56 GMT 53.561890 -0.923094 18,325 283 388 -1984
2020-01-24 17:01:53 GMT 53.560913 -0.915475 18,425 284 389 -1792
2020-01-24 17:01:50 GMT 53.559769 -0.907235 18,475 285 391 -1664
2020-01-24 17:01:47 GMT 53.558258 -0.897897 18,550 287 391 -1664
2020-01-24 17:01:44 GMT 53.556210 -0.886823 18,725 291 394 -1792
2020-01-24 17:01:41 GMT 53.554596 -0.879377 18,750 292 393 -1856
2020-01-24 17:01:38 GMT 53.552490 -0.870274 19,000 294 396 -2048
2020-01-24 17:01:35 GMT 53.550201 -0.861250 18,950 294 395 -1920
2020-01-24 17:01:32 GMT 53.549057 -0.856698 19,000 294 395 -1920
2020-01-24 17:01:29 GMT 53.545689 -0.843766 19,150 294 396 -2048
2020-01-24 17:01:26 GMT 53.544197 -0.838111 19,225 294 397 -2240
2020-01-24 17:01:23 GMT 53.538891 -0.817835 19,450 294 396 -2432
2020-01-24 17:01:20 GMT 53.538891 -0.817835 19,600 294 396 -2432
2020-01-24 17:01:17 GMT 53.536972 -0.810556 19,600 294 396 -2496
2020-01-24 17:01:14 GMT 53.533127 -0.795881 19,775 294 396 -2624
2020-01-24 17:01:11 GMT 53.530327 -0.785199 19,850 294 396 -2624
2020-01-24 17:01:08 GMT 53.530327 -0.785199 20,025 294 395 -2688
2020-01-24 17:01:05 GMT 53.529007 -0.780186 20,825 294 394 -2752
2020-01-24 17:01:02 GMT 53.525482 -0.766767 20,225 294 394 -2816
2020-01-24 17:00:59 GMT 53.524612 -0.763393 20,325 294 393 -2880
2020-01-24 17:00:56 GMT 53.522083 -0.753937 20,500 294 392 -3008
2020-01-24 17:00:52 GMT 53.519302 -0.743304 20,825 294 390 -2944
2020-01-24 17:00:49 GMT 53.516968 -0.734436 21,000 294 389 -2688
2020-01-24 17:00:46 GMT 53.514824 -0.726148 21,000 294 389 -2368
2020-01-24 17:00:40 GMT 53.508121 -0.700782 21,300 294 389 -1792
2020-01-24 17:00:34 GMT 53.505661 -0.691354 21,475 294 392 -1792
2020-01-24 17:00:31 GMT 53.503185 -0.681879 21,575 294 392 -1792
2020-01-24 17:00:28 GMT 53.501137 -0.674124 21,650 294 393 -1792
2020-01-24 17:00:25 GMT 53.499088 -0.666288 21,700 294 393 -1792
2020-01-24 17:00:22 GMT 53.496872 -0.657924 22,375 294 414 0
2020-01-24 17:00:19 GMT 53.494946 -0.650617 21,825 294 394 -1792
2020-01-24 17:00:16 GMT 53.490417 -0.633283 22,050 294 395 -1856
2020-01-24 17:00:13 GMT 53.490417 -0.633283 22,075 294 395 -1856
2020-01-24 17:00:10 GMT 53.487869 -0.623797 22,225 294 397 -1920
2020-01-24 17:00:07 GMT 53.485657 -0.615313 22,275 294 397 -1920
2020-01-24 17:00:04 GMT 53.484005 -0.609176 22,375 295 397 -1920
2020-01-24 17:00:00 GMT 53.480576 -0.596244 22,450 294 398 -1920
2020-01-24 16:59:57 GMT 53.478653 -0.588900 22,575 294 399 -1792
2020-01-24 16:59:54 GMT 53.476364 -0.580470 22,700 295 400 -1472
2020-01-24 16:59:51 GMT 53.474136 -0.571935 22,775 294 401 -1472
2020-01-24 16:59:48 GMT 53.471558 -0.562343 22,800 294 401 -1536
2020-01-24 16:59:45 GMT 53.469772 -0.555516 22,900 294 402 -1792
2020-01-24 16:59:42 GMT 53.467667 -0.547512 22,950 294 403 -1984
2020-01-24 16:59:39 GMT 53.464920 -0.537231 23,250 294 403 -2176
2020-01-24 16:59:36 GMT 53.462639 -0.528717 23,175 294 403 -2496
2020-01-24 16:59:33 GMT 53.460388 -0.520124 23,375 295 402 -2560
2020-01-24 16:59:30 GMT 53.455982 -0.503675 23,500 295 402 -2432
2020-01-24 16:59:27 GMT 53.455982 -0.503675 23,600 294 402 -2176
2020-01-24 16:59:24 GMT 53.453751 -0.495091 23,900 294 403 -1856
2020-01-24 16:59:21 GMT 53.452072 -0.488811 23,850 294 403 -1856
2020-01-24 16:59:18 GMT 53.448578 -0.475708 23,850 294 403 -1856
2020-01-24 16:59:15 GMT 53.446793 -0.468881 24,000 294 404 -1920
2020-01-24 16:59:12 GMT 53.444641 -0.460876 24,125 294 404 -1856
2020-01-24 16:59:09 GMT 53.442665 -0.453428 24,175 294 404 -1920
2020-01-24 16:59:06 GMT 53.440430 -0.444868 24,350 294 406 -1856
2020-01-24 16:59:03 GMT 53.438004 -0.435686 24,350 294 406 -1856
2020-01-24 16:59:00 GMT 53.434937 -0.424229 24,625 294 408 -1856
2020-01-24 16:58:57 GMT 53.433105 -0.417324 24,550 294 406 -1856
2020-01-24 16:58:54 GMT 53.431274 -0.410418 24,600 294 408 -1856
2020-01-24 16:58:51 GMT 53.428848 -0.401158 24,775 294 408 -1856
2020-01-24 16:58:48 GMT 53.424225 -0.383894 24,875 295 409 -1856
2020-01-24 16:58:45 GMT 53.424225 -0.383894 24,925 295 409 -1856
2020-01-24 16:58:42 GMT 53.421753 -0.374634 25,050 295 410 -1856
2020-01-24 16:58:39 GMT 53.419765 -0.367073 25,125 295 410 -1856
2020-01-24 16:58:36 GMT 53.416489 -0.354937 25,175 295 410 -1856
2020-01-24 16:58:33 GMT 53.414337 -0.346776 25,325 295 411 -1856
2020-01-24 16:58:30 GMT 53.412460 -0.339791 25,525 295 412 -1920
2020-01-24 16:58:27 GMT 53.409668 -0.329354 25,525 295 412 -1920
2020-01-24 16:58:24 GMT 53.407516 -0.321193 25,575 294 413 -1920
2020-01-24 16:58:21 GMT 53.405960 -0.315308 25,900 294 414 -1920
2020-01-24 16:58:18 GMT 53.403610 -0.306567 25,775 294 414 -1920
2020-01-24 16:58:15 GMT 53.400818 -0.295985 26,300 294 417 -1920
2020-01-24 16:58:12 GMT 53.398773 -0.288391 25,975 294 415 -1920
2020-01-24 16:58:09 GMT 53.394299 -0.271346 26,150 294 417 -1920
2020-01-24 16:58:03 GMT 53.391182 -0.259633 26,275 294 417 -1920
2020-01-24 16:57:59 GMT 53.388199 -0.248369 26,525 294 421 -1856
2020-01-24 16:57:55 GMT 53.384941 -0.235964 26,525 294 419 -1856
2020-01-24 16:57:52 GMT 53.382568 -0.227103 26,650 294 419 -1856
2020-01-24 16:57:49 GMT 53.379776 -0.216431 26,775 294 420 -1856
2020-01-24 16:57:46 GMT 53.378494 -0.211644 26,850 294 421 -1856
2020-01-24 16:57:43 GMT 53.375702 -0.200893 26,900 294 421 -1856
2020-01-24 16:57:40 GMT 53.373184 -0.191398 27,075 294 423 -1920
2020-01-24 16:57:37 GMT 53.370987 -0.183001 27,100 294 424 -2048
2020-01-24 16:57:33 GMT 53.364784 -0.159706 27,325 295 424 -2048
2020-01-24 16:57:30 GMT 53.363342 -0.154358 27,600 293 427 -1024
2020-01-24 16:57:24 GMT 53.359898 -0.141772 27,675 295 425 -1856
2020-01-24 16:57:21 GMT 53.356155 -0.128069 27,700 294 427 -1152
2020-01-24 16:57:18 GMT 53.353271 -0.117240 27,750 294 427 -1280
2020-01-24 16:57:15 GMT 53.353271 -0.117240 27,825 294 428 -1088
2020-01-24 16:57:12 GMT 53.351238 -0.109379 27,900 293 428 -960
2020-01-24 16:57:09 GMT 53.348602 -0.098955 27,900 293 428 -960
2020-01-24 16:57:06 GMT 53.346069 -0.088537 28,000 292 429 -960
2020-01-24 16:57:03 GMT 53.343613 -0.078081 28,425 291 430 -960
2020-01-24 16:57:00 GMT 53.342346 -0.072461 28,075 291 431 -1088
2020-01-24 16:56:57 GMT 53.339832 -0.061313 28,200 290 431 -1152
2020-01-24 16:56:54 GMT 53.337845 -0.051871 28,175 289 432 -1280
2020-01-24 16:56:51 GMT 53.336288 -0.044338 30,175 282 446 -2048
2020-01-24 16:56:48 GMT 53.333874 -0.032313 28,275 289 433 -1280
2020-01-24 16:56:45 GMT 53.331802 -0.021502 28,375 288 434 -1280
2020-01-24 16:56:42 GMT 53.330109 -0.012556 28,450 287 436 -1408
2020-01-24 16:56:39 GMT 53.329079 -0.006705 28,525 286 436 -1536
2020-01-24 16:56:36 GMT 53.327312 0.003635 28,525 285 437 -1728
2020-01-24 16:56:32 GMT 53.324612 0.020519 28,625 285 437 -1920
2020-01-24 16:56:29 GMT 53.322372 0.035627 28,850 283 439 -2048
2020-01-24 16:56:23 GMT 53.320816 0.047555 28,975 283 440 -2112
2020-01-24 16:56:20 GMT 53.319443 0.058149 29,400 283 440 -2176
2020-01-24 16:56:17 GMT 53.318390 0.066153 29,250 283 441 -2176
2020-01-24 16:56:14 GMT 53.317062 0.076826 29,275 283 441 -2176
2020-01-24 16:56:11 GMT 53.315186 0.091500 30,025 282 446 -2048
2020-01-24 16:56:08 GMT 53.314362 0.098171 29,800 282 444 -2176
2020-01-24 16:56:05 GMT 53.313251 0.106874 29,750 282 444 -2176
2020-01-24 16:56:02 GMT 53.311661 0.119594 29,800 282 444 -2176
2020-01-24 16:55:59 GMT 53.310925 0.125616 29,800 282 444 -2176
2020-01-24 16:55:56 GMT 53.309250 0.139026 30,025 282 445 -2048
2020-01-24 16:55:53 GMT 53.308456 0.145730 30,125 282 446 -2048
2020-01-24 16:55:47 GMT 53.305756 0.167299 30,625 282 447 -2048
2020-01-24 16:55:44 GMT 53.304592 0.176751 30,425 282 448 -2048
2020-01-24 16:55:41 GMT 53.303242 0.187495 30,625 282 449 -2048
2020-01-24 16:55:38 GMT 53.301636 0.200422 30,650 282 449 -2048
2020-01-24 16:55:35 GMT 53.300404 0.210598 30,925 282 451 -2048
2020-01-24 16:55:32 GMT 53.299564 0.217384 31,150 282 463 -896
2020-01-24 16:55:29 GMT 53.298019 0.230321 32,150 282 456 -2048
2020-01-24 16:55:26 GMT 53.297012 0.238482 31,050 282 451 -2048
2020-01-24 16:55:23 GMT 53.296120 0.245981 31,150 282 452 -2048
2020-01-24 16:55:20 GMT 53.294861 0.256295 31,200 282 454 -1984
2020-01-24 16:55:17 GMT 53.293327 0.269327 31,275 282 453 -1984
2020-01-24 16:55:14 GMT 53.291931 0.280936 31,425 282 459 -1856
2020-01-24 16:55:11 GMT 53.289276 0.302987 31,675 282 456 -2048
2020-01-24 16:55:08 GMT 53.288452 0.309893 31,700 282 456 -2048
2020-01-24 16:55:02 GMT 53.286758 0.323704 32,700 282 459 -1920
2020-01-24 16:54:59 GMT 53.284561 0.341753 32,000 282 459 -1856
2020-01-24 16:54:56 GMT 53.284561 0.341753 32,175 282 463 -832
2020-01-24 16:54:50 GMT 53.282108 0.361903 32,375 282 461 -1408
2020-01-24 16:54:47 GMT 53.280670 0.373692 32,350 282 462 -1344
2020-01-24 16:54:44 GMT 53.279362 0.384198 32,700 282 464 -832
2020-01-24 16:54:41 GMT 53.278152 0.393973 32,425 282 463 -960
2020-01-24 16:54:38 GMT 53.275681 0.414185 32,525 282 463 -832
2020-01-24 16:54:32 GMT 53.273914 0.428951 32,625 282 464 -832
2020-01-24 16:54:29 GMT 53.273029 0.435899 32,625 282 464 -832
2020-01-24 16:54:26 GMT 53.271542 0.448501 32,700 282 465 -832
2020-01-24 16:54:23 GMT 53.270515 0.456983 32,725 282 465 -832
2020-01-24 16:54:20 GMT 53.269169 0.468211 32,750 282 465 -832
2020-01-24 16:54:17 GMT 53.267445 0.482267 32,825 282 466 -832
2020-01-24 16:54:14 GMT 53.266605 0.489296 32,850 282 465 -832
2020-01-24 16:54:11 GMT 53.265518 0.498387 32,875 282 466 -832
2020-01-24 16:54:08 GMT 53.263779 0.512434 32,975 282 466 -832
2020-01-24 16:54:05 GMT 53.262589 0.522321 33,000 282 466 -832
2020-01-24 16:54:02 GMT 53.260090 0.542692 33,050 282 466 -896
2020-01-24 16:53:59 GMT 53.260090 0.542692 33,075 282 467 -896
2020-01-24 16:53:56 GMT 53.258553 0.555375 33,125 282 467 -896
2020-01-24 16:53:53 GMT 53.257782 0.561715 33,175 282 467 -896
2020-01-24 16:53:50 GMT 53.256130 0.575167 33,200 282 467 -896
2020-01-24 16:53:47 GMT 53.254669 0.587141 33,275 282 468 -832
2020-01-24 16:53:44 GMT 53.252426 0.605504 33,350 282 468 -832
2020-01-24 16:53:41 GMT 53.250965 0.617496 33,375 282 469 -768
2020-01-24 16:53:38 GMT 53.249863 0.626692 33,400 282 469 -768
2020-01-24 16:53:35 GMT 53.249863 0.626692 33,450 282 469 -768
2020-01-24 16:53:32 GMT 53.247379 0.647224 33,500 282 470 -768
2020-01-24 16:53:26 GMT 53.245007 0.667177 33,575 282 471 -832
2020-01-24 16:53:20 GMT 53.243797 0.677113 33,625 282 471 -960
2020-01-24 16:53:17 GMT 53.241051 0.699813 33,750 282 471 -896
2020-01-24 16:53:14 GMT 53.241051 0.699813 33,775 282 471 -1152
2020-01-24 16:53:11 GMT 53.239700 0.711203 33,825 282 471 -1024
2020-01-24 16:53:08 GMT 53.237976 0.725421 33,850 282 471 -896
2020-01-24 16:53:05 GMT 53.236954 0.733984 33,925 282 472 -640
2020-01-24 16:53:02 GMT 53.235882 0.742547 33,950 282 472 -448
2020-01-24 16:52:59 GMT 53.234116 0.757507 33,975 282 472 -320
2020-01-24 16:52:56 GMT 53.233246 0.764648 33,975 282 473 -128
2020-01-24 16:52:53 GMT 53.231689 0.777440 34,000 282 473 0
2020-01-24 16:52:50 GMT 53.230820 0.784581 34,000 282 473 0
2020-01-24 16:52:47 GMT 53.229504 0.795297 34,000 282 474 0
2020-01-24 16:52:44 GMT 53.226433 0.821066 34,000 282 474 0
2020-01-24 16:52:41 GMT 53.226433 0.821066 34,000 282 474 0
2020-01-24 16:52:38 GMT 53.224136 0.840376 34,000 282 474 0
2020-01-24 16:52:35 GMT 53.224136 0.840376 34,000 282 474 0
2020-01-24 16:52:32 GMT 53.223034 0.849663 34,000 282 474 0
2020-01-24 16:52:29 GMT 53.221542 0.862508 34,000 282 474 0
2020-01-24 16:52:26 GMT 53.220108 0.874669 34,000 282 474 64
2020-01-24 16:52:23 GMT 53.219311 0.881087 34,000 282 474 64
2020-01-24 16:52:19 GMT 53.217308 0.898294 34,000 282 474 0
2020-01-24 16:52:16 GMT 53.216286 0.906857 34,000 282 474 0
2020-01-24 16:52:13 GMT 53.214561 0.921155 34,000 282 474 0
2020-01-24 16:52:10 GMT 53.213676 0.928345 34,000 282 474 0
2020-01-24 16:52:07 GMT 53.212654 0.936908 34,000 282 474 0
2020-01-24 16:52:04 GMT 53.210930 0.951206 34,000 282 474 0
2020-01-24 16:52:01 GMT 53.209209 0.965504 34,000 282 474 0
2020-01-24 16:51:58 GMT 53.208618 0.970564 34,000 282 474 0
2020-01-24 16:51:55 GMT 53.207108 0.983433 34,000 282 474 0
2020-01-24 16:51:52 GMT 53.206238 0.990574 34,000 282 474 0
2020-01-24 16:51:49 GMT 53.204784 1.002664 34,000 282 474 0
2020-01-24 16:51:46 GMT 53.203674 1.011998 34,000 282 474 0
2020-01-24 16:51:43 GMT 53.202038 1.025525 34,000 282 474 0
2020-01-24 16:51:40 GMT 53.200745 1.036246 34,000 282 474 0
2020-01-24 16:51:37 GMT 53.199554 1.046291 34,000 282 474 0
2020-01-24 16:51:34 GMT 53.198082 1.058403 34,000 282 474 0
2020-01-24 16:51:31 GMT 53.196625 1.070539 34,000 282 474 0
2020-01-24 16:51:28 GMT 53.194565 1.087646 34,000 282 474 0
2020-01-24 16:51:25 GMT 53.194565 1.087646 34,000 282 474 0
2020-01-24 16:51:22 GMT 53.192871 1.101929 34,000 282 474 0
2020-01-24 16:51:19 GMT 53.191635 1.111973 34,000 282 474 0
2020-01-24 16:51:16 GMT 53.190765 1.119114 34,000 282 474 0
2020-01-24 16:51:13 GMT 53.188122 1.141205 34,000 282 474 0
2020-01-24 16:51:07 GMT 53.185558 1.162612 34,000 282 473 0
2020-01-24 16:51:01 GMT 53.182938 1.184797 34,000 282 474 64
2020-01-24 16:50:55 GMT 53.181885 1.193351 34,000 282 474 0
2020-01-24 16:50:52 GMT 53.179089 1.216978 34,000 282 474 0
2020-01-24 16:50:49 GMT 53.179089 1.216978 34,000 282 473 0
2020-01-24 16:50:46 GMT 53.177811 1.227644 34,000 282 473 0
2020-01-24 16:50:42 GMT 53.174759 1.252603 34,000 282 473 0
2020-01-24 16:50:36 GMT 53.171268 1.281119 34,000 282 473 0
2020-01-24 16:50:32 GMT 53.170197 1.289682 34,000 282 473 0
2020-01-24 16:50:29 GMT 53.170197 1.289682 34,000 280 473 0
2020-01-24 16:50:26 GMT 53.168564 1.303214 34,000 282 473 0
2020-01-24 16:50:23 GMT 53.167648 1.310355 34,000 282 473 0
2020-01-24 16:50:20 GMT 53.166595 1.318909 34,000 282 472 0
2020-01-24 16:50:17 GMT 53.164673 1.334525 34,000 281 473 0
2020-01-24 16:50:13 GMT 53.162292 1.354536 34,000 281 473 0
2020-01-24 16:50:07 GMT 53.160690 1.368818 34,000 281 473 0
2020-01-24 16:50:01 GMT 53.157303 1.400364 34,000 280 473 0
2020-01-24 16:49:55 GMT 53.156185 1.411097 34,000 280 473 0
2020-01-24 16:49:52 GMT 53.155163 1.421114 34,000 280 473 0
2020-01-24 16:49:49 GMT 53.153046 1.441956 34,000 280 473 0
2020-01-24 16:49:43 GMT 53.152176 1.450588 34,000 280 473 0
2020-01-24 16:49:40 GMT 53.149483 1.477096 34,000 280 473 0
2020-01-24 16:49:34 GMT 53.148651 1.484959 34,000 280 473 0
2020-01-24 16:49:31 GMT 53.146408 1.507146 34,000 280 473 0
2020-01-24 16:49:28 GMT 53.145126 1.519409 34,000 280 473 0
2020-01-24 16:49:25 GMT 53.144455 1.525807 34,000 280 473 0
2020-01-24 16:49:19 GMT 53.141987 1.550203 34,000 281 475 0
2020-01-24 16:49:16 GMT 53.141987 1.550203 34,000 280 473 0
2020-01-24 16:49:13 GMT 53.141102 1.558766 34,000 280 473 0
2020-01-24 16:49:10 GMT 53.139816 1.570966 34,000 280 473 0
2020-01-24 16:49:07 GMT 53.138626 1.582424 34,000 280 473 0
2020-01-24 16:49:04 GMT 53.135971 1.608241 34,000 280 473 0
2020-01-24 16:49:01 GMT 53.135239 1.615383 34,000 280 473 0
2020-01-24 16:48:58 GMT 53.134186 1.625427 34,000 280 473 0
2020-01-24 16:48:52 GMT 53.131943 1.646851 34,000 280 473 0
2020-01-24 16:48:49 GMT 53.131943 1.646851 34,000 280 473 0
2020-01-24 16:48:46 GMT 53.129700 1.668352 34,000 280 473 0
2020-01-24 16:48:43 GMT 53.129700 1.668352 34,000 280 473 0
2020-01-24 16:48:40 GMT 53.128189 1.682713 34,000 280 473 0
2020-01-24 16:48:37 GMT 53.127556 1.689148 34,000 280 473 0
2020-01-24 16:48:34 GMT 53.124756 1.715672 34,000 280 473 0
2020-01-24 16:48:30 GMT 53.124756 1.715672 34,000 280 473 64
2020-01-24 16:48:27 GMT 53.123703 1.725717 34,000 280 473 64
2020-01-24 16:48:24 GMT 53.122761 1.735032 34,000 280 474 0
2020-01-24 16:48:21 GMT 53.121185 1.750122 34,000 280 474 0
2020-01-24 16:48:18 GMT 53.120060 1.760882 34,000 280 474 0
2020-01-24 16:48:15 GMT 53.119129 1.769445 34,000 280 474 0
2020-01-24 16:48:09 GMT 53.116756 1.792387 34,000 280 475 0
2020-01-24 16:48:06 GMT 53.115738 1.801758 34,000 280 475 0
2020-01-24 16:48:03 GMT 53.114613 1.812502 34,000 280 475 0
2020-01-24 16:48:00 GMT 53.113728 1.821145 34,000 280 475 0
2020-01-24 16:47:57 GMT 53.112518 1.832616 34,000 280 475 0
2020-01-24 16:47:54 GMT 53.111389 1.843349 34,000 280 475 0
2020-01-24 16:47:51 GMT 53.108887 1.867030 34,000 280 475 0
2020-01-24 16:47:48 GMT 53.108887 1.867030 34,000 280 475 0
2020-01-24 16:47:45 GMT 53.107677 1.878501 34,000 280 475 0
2020-01-24 16:47:42 GMT 53.106327 1.891426 34,000 280 475 0
2020-01-24 16:47:36 GMT 53.103302 1.920184 34,000 280 475 0
2020-01-24 16:47:33 GMT 53.103302 1.920184 34,000 280 475 64
2020-01-24 16:47:30 GMT 53.101021 1.941672 34,000 280 475 0
2020-01-24 16:47:27 GMT 53.101021 1.941672 34,000 280 475 64
2020-01-24 16:47:24 GMT 53.100037 1.951015 34,000 281 475 0
2020-01-24 16:47:18 GMT 53.097481 1.974712 34,000 281 475 0
2020-01-24 16:47:15 GMT 53.095459 1.994019 34,000 281 475 0
2020-01-24 16:47:12 GMT 53.095459 1.994019 34,000 281 475 0
2020-01-24 16:47:08 GMT 53.093765 2.009811 34,000 281 475 0
2020-01-24 16:47:05 GMT 53.092457 2.022034 34,000 281 475 0
2020-01-24 16:47:02 GMT 53.091431 2.031403 34,000 281 475 64
2020-01-24 16:46:59 GMT 53.090378 2.041397 34,000 281 475 0
2020-01-24 16:46:56 GMT 53.089279 2.051468 34,000 281 475 0
2020-01-24 16:46:53 GMT 53.087723 2.065811 34,000 281 475 0
2020-01-24 16:46:50 GMT 53.086990 2.072983 34,000 281 475 0
2020-01-24 16:46:47 GMT 53.085571 2.085876 34,000 281 475 0
2020-01-24 16:46:44 GMT 53.083694 2.103119 34,000 281 475 0
2020-01-24 16:46:41 GMT 53.083694 2.103119 34,000 281 475 0
2020-01-24 16:46:38 GMT 53.082073 2.118164 34,000 281 475 0
2020-01-24 16:46:35 GMT 53.081085 2.127457 34,000 281 475 0
2020-01-24 16:46:31 GMT 53.079529 2.141800 34,000 281 474 0
2020-01-24 16:46:28 GMT 53.077194 2.163315 34,000 281 474 0
2020-01-24 16:46:25 GMT 53.075775 2.176208 34,000 281 474 0
2020-01-24 16:46:22 GMT 53.075775 2.176208 34,000 281 475 0
2020-01-24 16:46:19 GMT 53.074677 2.186279 34,000 281 475 0
2020-01-24 16:46:16 GMT 53.073441 2.197723 34,000 281 475 0
2020-01-24 16:46:13 GMT 53.072437 2.206996 34,000 281 475 0
2020-01-24 16:46:10 GMT 53.071426 2.216339 34,000 281 475 64
2020-01-24 16:46:07 GMT 53.070248 2.227086 34,000 281 475 64
2020-01-24 16:46:04 GMT 53.069180 2.237130 34,000 281 475 64
2020-01-24 16:46:01 GMT 53.067455 2.252904 34,000 281 475 64
2020-01-24 16:45:57 GMT 53.066338 2.262948 34,000 281 475 64
2020-01-24 16:45:54 GMT 53.065083 2.274405 34,000 281 475 64
2020-01-24 16:45:51 GMT 53.063824 2.285863 34,000 281 475 0
2020-01-24 16:45:48 GMT 53.062637 2.296677 34,000 281 475 0
2020-01-24 16:45:45 GMT 53.061638 2.305952 34,000 281 475 0
2020-01-24 16:45:41 GMT 53.058331 2.336086 34,000 281 474 0
2020-01-24 16:45:37 GMT 53.058331 2.336086 34,000 281 477 0
2020-01-24 16:45:34 GMT 53.057354 2.344639 34,000 281 475 0
2020-01-24 16:45:31 GMT 53.055634 2.360413 34,000 281 474 0
2020-01-24 16:45:27 GMT 53.054050 2.374773 34,000 281 475 0
2020-01-24 16:45:24 GMT 53.053585 2.379011 34,000 281 474 0
2020-01-24 16:45:21 GMT 53.052139 2.391881 34,000 281 474 0
2020-01-24 16:45:17 GMT 53.050186 2.409821 34,000 281 474 0
2020-01-24 16:45:14 GMT 53.049160 2.419111 34,000 281 474 0
2020-01-24 16:45:08 GMT 53.046844 2.439880 34,000 281 475 0
2020-01-24 16:45:05 GMT 53.045425 2.452774 34,000 281 475 0
2020-01-24 16:45:01 GMT 53.044144 2.464218 34,000 281 475 0
2020-01-24 16:44:58 GMT 53.043045 2.474289 34,000 281 477 0
2020-01-24 16:44:55 GMT 53.041386 2.489345 34,000 281 475 0
2020-01-24 16:44:52 GMT 53.040596 2.496486 34,000 281 475 0
2020-01-24 16:44:49 GMT 53.039478 2.506531 34,000 281 475 0
2020-01-24 16:44:46 GMT 53.038101 2.518692 34,000 281 477 0
2020-01-24 16:44:43 GMT 53.036732 2.530936 34,000 281 477 0
2020-01-24 16:44:39 GMT 53.034119 2.554626 34,000 281 477 0
2020-01-24 16:44:36 GMT 53.034119 2.554626 34,000 281 477 0
2020-01-24 16:44:33 GMT 53.032974 2.564621 34,000 281 477 0
2020-01-24 16:44:30 GMT 53.031372 2.579041 34,000 281 477 0
2020-01-24 16:44:25 GMT 53.029190 2.598424 34,000 281 477 0
2020-01-24 16:44:21 GMT 53.026245 2.624969 34,000 281 477 0
2020-01-24 16:44:17 GMT 53.026245 2.624969 34,000 281 477 0
2020-01-24 16:44:13 GMT 53.024963 2.636490 34,000 281 477 0
2020-01-24 16:44:10 GMT 53.022114 2.661595 34,000 281 477 0
2020-01-24 16:44:07 GMT 53.022114 2.661595 34,000 281 477 0
2020-01-24 16:44:04 GMT 53.020889 2.672424 34,000 281 477 0
2020-01-24 16:43:56 GMT 53.017738 2.700361 34,000 281 477 0
2020-01-24 16:43:53 GMT 53.016575 2.710406 34,000 281 477 0
2020-01-24 16:43:49 GMT 53.015533 2.719803 34,000 281 477 0
2020-01-24 16:43:45 GMT 53.013382 2.738419 34,000 281 477 0
2020-01-24 16:43:42 GMT 53.011459 2.755661 34,000 281 477 0
2020-01-24 16:43:36 GMT 53.009872 2.769339 34,000 281 477 0
2020-01-24 16:43:33 GMT 53.008755 2.779384 34,000 281 477 0
2020-01-24 16:43:30 GMT 53.005821 2.805202 34,000 281 477 0
2020-01-24 16:43:26 GMT 53.005821 2.805202 34,000 281 477 0
2020-01-24 16:43:23 GMT 53.004730 2.814560 34,000 281 477 0
2020-01-24 16:43:20 GMT 53.003029 2.829607 34,000 281 477 0
2020-01-24 16:43:17 GMT 53.002258 2.836075 34,000 281 477 0
2020-01-24 16:43:14 GMT 52.999649 2.859039 34,000 281 477 0
2020-01-24 16:43:11 GMT 52.997681 2.876282 34,000 281 477 0
2020-01-24 16:43:06 GMT 52.997681 2.876282 34,000 281 477 0
2020-01-24 16:43:03 GMT 52.996536 2.886276 34,000 281 478 0
2020-01-24 16:43:00 GMT 52.995346 2.896347 34,000 281 477 0
2020-01-24 16:42:56 GMT 52.993439 2.912868 34,000 281 477 0
2020-01-24 16:42:50 GMT 52.990082 2.942200 34,000 281 477 0
2020-01-24 16:42:43 GMT 52.988316 2.957284 34,000 281 477 0
2020-01-24 16:42:40 GMT 52.986877 2.969513 34,000 281 477 0
2020-01-24 16:42:37 GMT 52.985664 2.980198 34,000 281 477 0
2020-01-24 16:42:34 GMT 52.983990 2.994559 34,000 281 477 0
2020-01-24 16:42:31 GMT 52.982964 3.003191 34,000 281 477 0
2020-01-24 16:42:28 GMT 52.980515 3.023987 34,000 281 477 0
2020-01-24 16:42:25 GMT 52.979370 3.033981 34,000 281 477 0
2020-01-24 16:42:19 GMT 52.977749 3.047607 34,000 281 477 0
2020-01-24 16:42:16 GMT 52.976486 3.058395 34,000 281 477 0
2020-01-24 16:42:13 GMT 52.975479 3.067017 34,000 281 477 0
2020-01-24 16:42:07 GMT 52.973145 3.087082 34,000 281 477 0
2020-01-24 16:42:04 GMT 52.971699 3.099243 34,000 281 477 0
2020-01-24 16:42:01 GMT 52.970535 3.109288 34,000 281 478 0
2020-01-24 16:41:58 GMT 52.969322 3.119332 34,000 281 478 0
2020-01-24 16:41:55 GMT 52.967926 3.131561 34,000 281 478 64
2020-01-24 16:41:51 GMT 52.966347 3.145229 34,000 281 478 64
2020-01-24 16:41:48 GMT 52.963646 3.168222 34,000 281 478 64
2020-01-24 16:41:45 GMT 52.963646 3.168222 34,000 281 478 0
2020-01-24 16:41:42 GMT 52.962433 3.178940 34,000 281 478 64
2020-01-24 16:41:39 GMT 52.961288 3.189011 34,000 281 478 64
2020-01-24 16:41:36 GMT 52.960281 3.197632 34,000 281 476 0
2020-01-24 16:41:33 GMT 52.958496 3.213425 34,000 281 476 0
2020-01-24 16:41:30 GMT 52.957672 3.220596 34,000 281 478 0
2020-01-24 16:41:27 GMT 52.956474 3.231393 34,000 281 478 0
2020-01-24 16:41:24 GMT 52.955063 3.243637 34,000 281 478 0
2020-01-24 16:41:21 GMT 52.953415 3.257980 34,000 281 478 0
2020-01-24 16:41:17 GMT 52.952454 3.266602 34,000 281 478 0
2020-01-24 16:41:14 GMT 52.951031 3.278791 34,000 281 477 0
2020-01-24 16:41:11 GMT 52.949402 3.293152 34,000 281 477 0
2020-01-24 16:41:07 GMT 52.948421 3.301705 34,000 281 477 0
2020-01-24 16:41:04 GMT 52.945724 3.325348 34,000 281 477 0
2020-01-24 16:41:01 GMT 52.944397 3.336868 34,000 281 476 0
2020-01-24 16:40:58 GMT 52.944397 3.336868 34,000 281 475 0
2020-01-24 16:40:55 GMT 52.943253 3.346863 34,000 281 476 0
2020-01-24 16:40:52 GMT 52.941673 3.360404 34,000 281 475 0
2020-01-24 16:40:49 GMT 52.940834 3.367545 34,000 281 475 0
2020-01-24 16:40:46 GMT 52.939590 3.378296 34,000 281 474 64
2020-01-24 16:40:43 GMT 52.938263 3.389740 34,000 281 474 0
2020-01-24 16:40:40 GMT 52.936691 3.403251 34,000 281 474 64
2020-01-24 16:40:36 GMT 52.935471 3.413925 34,000 281 474 0
2020-01-24 16:40:33 GMT 52.934223 3.424595 34,000 281 474 0
2020-01-24 16:40:30 GMT 52.932816 3.436737 34,000 281 474 0
2020-01-24 16:40:26 GMT 52.931244 3.450256 34,000 281 474 0
2020-01-24 16:40:23 GMT 52.930080 3.460223 34,000 281 474 0
2020-01-24 16:40:17 GMT 52.926956 3.486557 34,000 281 474 0
2020-01-24 16:40:14 GMT 52.925892 3.495771 34,000 281 474 0
2020-01-24 16:40:11 GMT 52.924988 3.503647 34,000 282 474 0
2020-01-24 16:40:07 GMT 52.923615 3.515015 34,000 282 474 0
2020-01-24 16:40:04 GMT 52.922150 3.527832 34,000 282 474 0
2020-01-24 16:40:01 GMT 52.920723 3.539952 34,000 282 474 0
2020-01-24 16:39:57 GMT 52.919128 3.553467 34,000 282 474 0
2020-01-24 16:39:54 GMT 52.917511 3.566947 34,000 282 474 0
2020-01-24 16:39:51 GMT 52.916428 3.576202 34,000 282 474 0
2020-01-24 16:39:48 GMT 52.915043 3.588292 34,000 282 473 0
2020-01-24 16:39:42 GMT 52.912529 3.609558 34,000 281 473 0
2020-01-24 16:39:39 GMT 52.911575 3.617401 34,000 282 471 0
2020-01-24 16:39:36 GMT 52.909927 3.631592 34,000 281 473 0
2020-01-24 16:39:30 GMT 52.908016 3.647932 34,000 282 472 0
2020-01-24 16:39:27 GMT 52.906479 3.660723 34,000 282 472 0
2020-01-24 16:39:24 GMT 52.905502 3.669198 34,000 282 472 0
2020-01-24 16:39:21 GMT 52.902557 3.694000 34,000 282 472 0
2020-01-24 16:39:14 GMT 52.901127 3.706002 34,000 282 472 0
2020-01-24 16:39:11 GMT 52.899857 3.716583 34,000 282 471 0
2020-01-24 16:39:08 GMT 52.898712 3.726501 34,000 282 471 0
2020-01-24 16:39:05 GMT 52.896095 3.748457 34,000 282 472 0
2020-01-24 16:39:02 GMT 52.896095 3.748457 34,000 282 471 64
2020-01-24 16:38:58 GMT 52.894135 3.764725 34,000 282 471 0
2020-01-24 16:38:55 GMT 52.893127 3.773193 34,000 282 471 0
2020-01-24 16:38:52 GMT 52.891937 3.783035 34,000 282 471 0
2020-01-24 16:38:49 GMT 52.890610 3.794403 34,000 282 471 0
2020-01-24 16:38:46 GMT 52.889671 3.802133 34,000 282 471 0
2020-01-24 16:38:43 GMT 52.888229 3.814163 34,000 282 472 0
2020-01-24 16:38:40 GMT 52.886536 3.828278 34,000 282 472 0
2020-01-24 16:38:37 GMT 52.885113 3.840349 34,000 282 472 0
2020-01-24 16:38:34 GMT 52.883064 3.857300 34,000 282 472 0
2020-01-24 16:38:31 GMT 52.881821 3.867874 34,000 282 472 0
2020-01-24 16:38:28 GMT 52.881821 3.867874 34,000 282 472 0
2020-01-24 16:38:25 GMT 52.880550 3.878488 34,000 282 472 0
2020-01-24 16:38:22 GMT 52.878937 3.891907 34,000 282 472 0
2020-01-24 16:38:19 GMT 52.877747 3.901749 34,000 282 472 0
2020-01-24 16:38:15 GMT 52.875988 3.916626 34,000 282 472 0
2020-01-24 16:38:12 GMT 52.873169 3.939896 34,000 282 472 64
2020-01-24 16:38:06 GMT 52.871891 3.950527 34,000 282 472 64
2020-01-24 16:38:02 GMT 52.870422 3.962479 34,000 282 472 64
2020-01-24 16:37:59 GMT 52.868118 3.981524 34,000 282 470 0
2020-01-24 16:37:56 GMT 52.866535 3.994237 34,000 282 471 0
2020-01-24 16:37:53 GMT 52.866535 3.994237 34,000 282 471 0
2020-01-24 16:37:50 GMT 52.865433 4.003372 34,000 282 470 0
2020-01-24 16:37:47 GMT 52.862869 4.024506 34,000 282 470 0
2020-01-24 16:37:44 GMT 52.862869 4.024506 34,000 282 470 0
2020-01-24 16:37:40 GMT 52.861130 4.038620 34,000 282 471 0
2020-01-24 16:37:37 GMT 52.858017 4.063950 34,000 282 471 0
2020-01-24 16:37:33 GMT 52.858017 4.063950 34,000 282 470 0
2020-01-24 16:37:30 GMT 52.856964 4.072418 34,000 282 470 0
2020-01-24 16:37:27 GMT 52.855690 4.082912 34,000 282 470 0
2020-01-24 16:37:24 GMT 52.854034 4.096298 34,000 282 470 0
2020-01-24 16:37:21 GMT 52.853085 4.104021 34,000 282 470 0
2020-01-24 16:37:18 GMT 52.851917 4.113909 34,000 282 470 0
2020-01-24 16:37:15 GMT 52.850281 4.127274 34,000 282 470 0
2020-01-24 16:37:12 GMT 52.847855 4.146957 34,000 282 470 0
2020-01-24 16:37:09 GMT 52.847855 4.146957 34,000 282 469 0
2020-01-24 16:37:06 GMT 52.846481 4.158173 34,000 282 470 0
2020-01-24 16:37:03 GMT 52.842751 4.188381 34,000 282 470 0
2020-01-24 16:36:59 GMT 52.842751 4.188381 34,000 282 469 0
2020-01-24 16:36:55 GMT 52.841866 4.195365 34,000 282 469 0
2020-01-24 16:36:52 GMT 52.840141 4.209412 34,000 282 468 0
2020-01-24 16:36:49 GMT 52.839203 4.217072 34,000 282 468 64
2020-01-24 16:36:46 GMT 52.837906 4.227618 34,000 282 468 0
2020-01-24 16:36:43 GMT 52.836510 4.238761 34,000 282 467 0
2020-01-24 16:36:39 GMT 52.834900 4.252090 34,000 282 467 0
2020-01-24 16:36:36 GMT 52.833664 4.261856 34,000 282 467 0
2020-01-24 16:36:33 GMT 52.832474 4.271622 34,000 282 467 0
2020-01-24 16:36:30 GMT 52.830830 4.284825 34,000 282 466 0
2020-01-24 16:36:27 GMT 52.828224 4.305777 34,000 282 466 0
2020-01-24 16:36:24 GMT 52.828224 4.305777 34,000 282 466 0
2020-01-24 16:36:20 GMT 52.826385 4.320374 34,000 282 465 0
2020-01-24 16:36:17 GMT 52.823708 4.341954 34,000 282 465 0
2020-01-24 16:36:13 GMT 52.823708 4.341954 34,000 282 465 0
2020-01-24 16:36:10 GMT 52.822266 4.353714 34,000 282 465 0
2020-01-24 16:36:07 GMT 52.821213 4.362030 34,000 282 465 0
2020-01-24 16:36:04 GMT 52.819839 4.373169 34,000 282 465 0
2020-01-24 16:36:01 GMT 52.816544 4.399567 34,000 282 464 0
2020-01-24 16:35:57 GMT 52.816544 4.399567 34,000 282 464 0
2020-01-24 16:35:54 GMT 52.813568 4.423065 34,000 282 464 0
2020-01-24 16:35:51 GMT 52.813568 4.423065 34,000 282 464 0
2020-01-24 16:35:48 GMT 52.813004 4.427961 34,000 282 463 0
2020-01-24 16:35:45 GMT 52.811047 4.443185 34,000 282 463 0
2020-01-24 16:35:39 GMT 52.807602 4.470886 34,000 282 463 0
2020-01-24 16:35:36 GMT 52.807602 4.470886 34,000 282 463 0
2020-01-24 16:35:33 GMT 52.806107 4.482651 34,000 282 463 0
2020-01-24 16:35:27 GMT 52.803635 4.501953 34,000 282 462 0
2020-01-24 16:35:24 GMT 52.802341 4.512320 34,000 282 462 0
2020-01-24 16:35:21 GMT 52.800758 4.524719 34,000 282 462 0
2020-01-24 16:35:18 GMT 52.799549 4.534372 34,000 282 461 0
2020-01-24 16:35:15 GMT 52.797867 4.547501 34,000 282 462 0
2020-01-24 16:35:12 GMT 52.797180 4.552994 34,000 282 462 0
2020-01-24 16:35:09 GMT 52.795872 4.563328 34,000 282 461 0
2020-01-24 16:35:06 GMT 52.794476 4.574393 34,000 283 462 0
2020-01-24 16:35:03 GMT 52.792706 4.588126 34,000 282 462 0
2020-01-24 16:35:00 GMT 52.791916 4.594345 34,000 282 462 64
2020-01-24 16:34:57 GMT 52.790680 4.603958 34,000 282 462 64
2020-01-24 16:34:54 GMT 52.789352 4.614258 34,000 282 462 64
2020-01-24 16:34:51 GMT 52.788097 4.623910 34,000 283 462 64
2020-01-24 16:34:48 GMT 52.786423 4.636993 34,000 283 462 0
2020-01-24 16:34:45 GMT 52.784958 4.647980 34,000 283 462 0
2020-01-24 16:34:42 GMT 52.783627 4.658282 34,000 283 462 0
2020-01-24 16:34:39 GMT 52.782185 4.669268 34,000 283 462 -64
2020-01-24 16:34:36 GMT 52.781113 4.677586 34,000 283 462 0
2020-01-24 16:34:33 GMT 52.779373 4.690628 34,000 284 461 0
2020-01-24 16:34:30 GMT 52.776855 4.709854 34,000 282 462 0
2020-01-24 16:34:27 GMT 52.775341 4.721610 34,000 282 462 0
2020-01-24 16:34:24 GMT 52.774132 4.731184 34,000 282 462 64
2020-01-24 16:34:18 GMT 52.773106 4.739502 34,000 282 462 0
2020-01-24 16:34:15 GMT 52.772083 4.747742 34,000 282 462 0
2020-01-24 16:34:11 GMT 52.770081 4.763641 34,000 283 461 0
2020-01-24 16:34:08 GMT 52.768707 4.773178 34,000 288 461 0
2020-01-24 16:34:05 GMT 52.767193 4.783447 34,000 287 460 0
2020-01-24 16:34:02 GMT 52.765320 4.794922 34,000 286 460 0
2020-01-24 16:33:59 GMT 52.763214 4.807129 34,000 287 460 0
2020-01-24 16:33:56 GMT 52.761429 4.816513 34,000 289 461 0
2020-01-24 16:33:53 GMT 52.759872 4.824524 34,000 289 461 0
2020-01-24 16:33:50 GMT 52.757126 4.837723 34,000 290 460 0
2020-01-24 16:33:47 GMT 52.755554 4.844971 34,000 291 460 64
2020-01-24 16:33:44 GMT 52.753281 4.854813 34,000 300 458 0
2020-01-24 16:33:41 GMT 52.751274 4.863255 34,000 294 459 0
2020-01-24 16:33:38 GMT 52.748520 4.874268 34,000 295 459 0
2020-01-24 16:33:35 GMT 52.745773 4.884491 34,000 295 459 0
2020-01-24 16:33:31 GMT 52.743126 4.894017 34,000 297 458 0
2020-01-24 16:33:28 GMT 52.739403 4.906494 34,000 297 458 0
2020-01-24 16:33:25 GMT 52.736656 4.915205 34,000 300 457 64
2020-01-24 16:33:22 GMT 52.730511 4.933489 34,000 300 458 0
2020-01-24 16:33:16 GMT 52.727829 4.941330 34,000 300 458 0
2020-01-24 16:33:12 GMT 52.723480 4.954128 34,000 300 457 0
2020-01-24 16:33:09 GMT 52.719711 4.965036 34,000 300 457 0
2020-01-24 16:33:06 GMT 52.717243 4.972255 34,000 300 457 0
2020-01-24 16:33:03 GMT 52.714554 4.980164 34,000 300 457 0
2020-01-24 16:33:00 GMT 52.711472 4.989284 34,000 300 459 0
2020-01-24 16:32:57 GMT 52.706680 5.003204 34,000 300 457 0
2020-01-24 16:32:54 GMT 52.704208 5.010452 34,000 300 456 0
2020-01-24 16:32:51 GMT 52.701736 5.017776 34,000 300 457 0
2020-01-24 16:32:48 GMT 52.698204 5.028050 34,000 300 456 0
2020-01-24 16:32:45 GMT 52.691803 5.046768 34,000 300 456 -64
2020-01-24 16:32:42 GMT 52.689545 5.053476 34,000 300 456 0
2020-01-24 16:32:36 GMT 52.686447 5.062561 34,000 300 456 -64
2020-01-24 16:32:33 GMT 52.680679 5.079498 34,000 300 456 0
2020-01-24 16:32:27 GMT 52.676323 5.092163 34,000 300 456 0
2020-01-24 16:32:24 GMT 52.673019 5.101815 34,000 300 457 0
2020-01-24 16:32:18 GMT 52.664734 5.126064 34,000 300 457 0
2020-01-24 16:32:12 GMT 52.660812 5.137558 34,000 300 458 0
2020-01-24 16:32:09 GMT 52.655045 5.154495 34,000 300 458 64
2020-01-24 16:32:06 GMT 52.655045 5.154495 34,000 300 458 64
2020-01-24 16:32:03 GMT 52.651512 5.164830 34,000 300 458 64
2020-01-24 16:32:00 GMT 52.649044 5.172128 34,000 300 458 0
2020-01-24 16:31:57 GMT 52.645981 5.181274 34,000 300 459 0
2020-01-24 16:31:54 GMT 52.641403 5.194626 34,000 300 459 0
2020-01-24 16:31:51 GMT 52.636662 5.208618 34,000 300 459 64
2020-01-24 16:31:45 GMT 52.633728 5.217093 34,000 300 459 0
2020-01-24 16:31:42 GMT 52.629959 5.228001 34,000 300 459 64
2020-01-24 16:31:38 GMT 52.626186 5.238909 34,000 300 459 0
2020-01-24 16:31:35 GMT 52.621765 5.251694 34,000 300 459 0
2020-01-24 16:31:32 GMT 52.619064 5.259548 34,000 300 459 0
2020-01-24 16:31:29 GMT 52.616131 5.268023 34,000 300 459 0
2020-01-24 16:31:26 GMT 52.613846 5.274658 34,000 300 459 0
2020-01-24 16:31:23 GMT 52.610268 5.284973 34,000 300 459 0
2020-01-24 16:31:20 GMT 52.606495 5.295881 34,000 300 459 0
2020-01-24 16:31:17 GMT 52.603775 5.303802 34,000 300 459 0
2020-01-24 16:31:14 GMT 52.601048 5.311654 34,000 300 459 64
2020-01-24 16:31:11 GMT 52.597916 5.320740 34,000 300 459 64
2020-01-24 16:31:08 GMT 52.593925 5.332214 34,000 300 459 0
2020-01-24 16:31:05 GMT 52.591599 5.338821 34,000 300 458 64
2020-01-24 16:31:02 GMT 52.588715 5.347290 34,000 300 458 0
2020-01-24 16:30:59 GMT 52.585548 5.356384 34,000 300 458 0
2020-01-24 16:30:56 GMT 52.581161 5.369034 34,000 300 458 0
2020-01-24 16:30:53 GMT 52.578053 5.378122 34,000 300 458 64
2020-01-24 16:30:50 GMT 52.575302 5.385971 34,000 300 458 0
2020-01-24 16:30:47 GMT 52.571960 5.395660 34,000 300 458 0
2020-01-24 16:30:44 GMT 52.569901 5.401688 34,000 300 457 0
2020-01-24 16:30:41 GMT 52.566147 5.412521 34,000 300 458 0
2020-01-24 16:30:38 GMT 52.559711 5.431248 34,000 300 458 0
2020-01-24 16:30:32 GMT 52.556778 5.439723 34,000 300 457 0
2020-01-24 16:30:29 GMT 52.554310 5.446943 34,000 300 457 0
2020-01-24 16:30:26 GMT 52.550541 5.457851 34,000 300 457 0
2020-01-24 16:30:23 GMT 52.548073 5.465070 34,000 300 457 0
2020-01-24 16:30:20 GMT 52.544350 5.475900 34,000 300 457 0
2020-01-24 16:30:17 GMT 52.541245 5.484924 34,000 300 457 0
2020-01-24 16:30:14 GMT 52.538528 5.492772 34,000 300 456 0
2020-01-24 16:30:11 GMT 52.531723 5.512695 34,000 300 457 0
2020-01-24 16:30:08 GMT 52.531723 5.512695 34,000 300 457 0
2020-01-24 16:30:05 GMT 52.528015 5.523529 34,000 300 457 0
2020-01-24 16:29:59 GMT 52.522202 5.540466 34,000 300 457 0
2020-01-24 16:29:56 GMT 52.519489 5.548253 34,000 300 457 0
2020-01-24 16:29:52 GMT 52.515564 5.559692 34,000 300 458 0
2020-01-24 16:29:49 GMT 52.512222 5.569382 34,000 300 457 0
2020-01-24 16:29:46 GMT 52.509529 5.577209 34,000 300 458 0
2020-01-24 16:29:43 GMT 52.506363 5.586243 34,000 300 458 0
2020-01-24 16:29:40 GMT 52.503021 5.595856 34,000 300 458 0
2020-01-24 16:29:37 GMT 52.499844 5.604832 34,000 300 458 0
2020-01-24 16:29:34 GMT 52.496292 5.615082 34,000 300 458 0
2020-01-24 16:29:31 GMT 52.493935 5.621704 34,000 300 459 0
2020-01-24 16:29:28 GMT 52.489929 5.633087 34,000 300 459 0
2020-01-24 16:29:25 GMT 52.486763 5.642186 34,000 300 459 0
2020-01-24 16:29:22 GMT 52.483200 5.652390 34,000 301 460 0
2020-01-24 16:29:19 GMT 52.481270 5.657802 34,000 301 460 64
2020-01-24 16:29:16 GMT 52.478073 5.666809 34,000 301 459 0
2020-01-24 16:29:13 GMT 52.474846 5.675773 34,000 301 460 0
2020-01-24 16:29:10 GMT 52.471207 5.686035 34,000 301 460 64
2020-01-24 16:29:07 GMT 52.467316 5.696793 34,000 301 460 0
2020-01-24 16:29:04 GMT 52.465397 5.702218 34,000 301 460 0
2020-01-24 16:29:01 GMT 52.460861 5.714798 34,000 301 461 0
2020-01-24 16:28:58 GMT 52.458462 5.721366 34,000 301 460 0
2020-01-24 16:28:55 GMT 52.454597 5.732195 34,000 301 461 0
2020-01-24 16:28:49 GMT 52.448078 5.750166 34,000 301 461 0
2020-01-24 16:28:46 GMT 52.444427 5.760345 34,000 301 461 0
2020-01-24 16:28:43 GMT 52.441818 5.767593 34,000 301 461 0
2020-01-24 16:28:40 GMT 52.439209 5.774765 34,000 301 461 0
2020-01-24 16:28:37 GMT 52.435730 5.784378 34,000 302 465 0
2020-01-24 16:28:34 GMT 52.431644 5.795759 34,000 301 461 0
2020-01-24 16:28:31 GMT 52.428818 5.803604 34,000 301 461 0
2020-01-24 16:28:28 GMT 52.424927 5.814362 34,000 301 462 0
2020-01-24 16:28:25 GMT 52.422989 5.819772 34,000 301 461 0
2020-01-24 16:28:22 GMT 52.419495 5.829424 34,000 301 461 0
2020-01-24 16:28:19 GMT 52.414948 5.841980 34,000 301 463 0
2020-01-24 16:28:13 GMT 52.409775 5.856400 34,000 301 461 0
2020-01-24 16:28:10 GMT 52.406754 5.864792 34,000 301 461 0
2020-01-24 16:28:07 GMT 52.403526 5.873840 34,000 301 461 0
2020-01-24 16:28:04 GMT 52.400501 5.882237 34,000 301 461 0
2020-01-24 16:28:01 GMT 52.396408 5.893631 34,000 301 462 0
2020-01-24 16:27:58 GMT 52.393799 5.900803 34,000 301 462 0
2020-01-24 16:27:55 GMT 52.390541 5.909860 34,000 301 461 0
2020-01-24 16:27:52 GMT 52.386841 5.920029 34,000 301 461 0
2020-01-24 16:27:49 GMT 52.384022 5.927830 34,000 301 461 0
2020-01-24 16:27:46 GMT 52.379696 5.939837 34,000 301 462 0
2020-01-24 16:27:42 GMT 52.375362 5.951843 34,000 301 463 0
2020-01-24 16:27:36 GMT 52.369732 5.967460 34,000 301 463 0
2020-01-24 16:27:33 GMT 52.365822 5.978289 34,000 301 463 0
2020-01-24 16:27:30 GMT 52.362797 5.986686 34,000 301 463 0
2020-01-24 16:27:27 GMT 52.359970 5.994568 34,000 301 463 0
2020-01-24 16:27:24 GMT 52.356903 6.002960 34,000 301 463 0
2020-01-24 16:27:21 GMT 52.353207 6.013210 34,000 301 463 0
2020-01-24 16:27:18 GMT 52.349297 6.024039 34,000 301 463 0
2020-01-24 16:27:12 GMT 52.340122 6.049308 34,000 301 464 0
2020-01-24 16:27:09 GMT 52.336853 6.058350 34,000 301 464 0
2020-01-24 16:27:03 GMT 52.330536 6.075753 34,000 292 466 64
2020-01-24 16:27:00 GMT 52.326576 6.086583 34,000 301 463 0
2020-01-24 16:26:57 GMT 52.326576 6.086583 34,000 301 463 0
2020-01-24 16:26:54 GMT 52.322845 6.096725 34,000 301 464 0
2020-01-24 16:26:51 GMT 52.319550 6.105730 34,000 301 463 0
2020-01-24 16:26:48 GMT 52.316895 6.112950 34,000 302 465 0
2020-01-24 16:26:45 GMT 52.314056 6.120758 34,000 301 464 0
2020-01-24 16:26:42 GMT 52.310329 6.130999 34,000 301 464 0
2020-01-24 16:26:39 GMT 52.307053 6.139984 34,000 301 463 0
2020-01-24 16:26:36 GMT 52.303116 6.150818 34,000 301 463 0
2020-01-24 16:26:33 GMT 52.300694 6.157445 34,000 301 464 0
2020-01-24 16:26:30 GMT 52.296318 6.169451 34,000 301 464 0
2020-01-24 16:26:27 GMT 52.293915 6.176071 34,000 301 464 0
2020-01-24 16:26:24 GMT 52.287567 6.193464 34,000 301 464 0
2020-01-24 16:26:21 GMT 52.283192 6.205470 34,000 301 464 0
2020-01-24 16:26:18 GMT 52.280167 6.213946 34,000 301 465 0
2020-01-24 16:26:15 GMT 52.280167 6.213946 34,000 301 465 0
2020-01-24 16:26:09 GMT 52.273788 6.231367 34,000 301 465 64
2020-01-24 16:26:06 GMT 52.267868 6.247635 34,000 301 465 0
2020-01-24 16:26:00 GMT 52.264568 6.256635 34,000 301 465 64
2020-01-24 16:25:57 GMT 52.257751 6.275253 34,000 301 465 0
2020-01-24 16:25:51 GMT 52.253536 6.286691 34,000 302 465 0
2020-01-24 16:25:48 GMT 52.250656 6.294479 34,000 302 465 0
2020-01-24 16:25:45 GMT 52.248001 6.301651 34,000 302 466 0
2020-01-24 16:25:42 GMT 52.244431 6.311264 34,000 302 465 0
2020-01-24 16:25:39 GMT 52.240643 6.321455 34,000 302 465 0
2020-01-24 16:25:36 GMT 52.237335 6.330414 34,000 302 465 0
2020-01-24 16:25:33 GMT 52.233719 6.340027 34,000 302 465 0
2020-01-24 16:25:30 GMT 52.231522 6.345978 34,000 302 465 -64
2020-01-24 16:25:27 GMT 52.228165 6.354963 34,000 302 465 0
2020-01-24 16:25:24 GMT 52.224792 6.363907 34,000 302 465 0
2020-01-24 16:25:21 GMT 52.221882 6.371678 34,000 302 466 0
2020-01-24 16:25:18 GMT 52.217239 6.384277 34,000 302 465 0
2020-01-24 16:25:15 GMT 52.211105 6.401138 34,000 301 465 0
2020-01-24 16:25:12 GMT 52.208542 6.408386 34,000 300 465 64
2020-01-24 16:25:09 GMT 52.202774 6.425629 34,000 299 465 0
2020-01-24 16:25:05 GMT 52.202774 6.425629 34,000 296 466 0
2020-01-24 16:25:02 GMT 52.200027 6.434326 34,000 297 465 64
2020-01-24 16:24:59 GMT 52.198326 6.439950 34,000 296 465 0
2020-01-24 16:24:56 GMT 52.192566 6.461105 34,000 292 466 0
2020-01-24 16:24:53 GMT 52.190178 6.470869 34,000 292 466 0
2020-01-24 16:24:50 GMT 52.190178 6.470869 34,000 292 466 0
2020-01-24 16:24:47 GMT 52.185654 6.489792 34,000 292 466 0
2020-01-24 16:24:41 GMT 52.182861 6.501541 34,000 292 466 0
2020-01-24 16:24:38 GMT 52.181030 6.509399 34,000 292 466 64
2020-01-24 16:24:35 GMT 52.176495 6.528390 34,000 292 466 0
2020-01-24 16:24:29 GMT 52.174351 6.537493 34,000 292 466 0
2020-01-24 16:24:26 GMT 52.170776 6.552505 34,000 292 466 0
2020-01-24 16:24:22 GMT 52.168900 6.560364 34,000 292 466 0
2020-01-24 16:24:19 GMT 52.166107 6.572113 34,000 292 466 0
2020-01-24 16:24:16 GMT 52.163738 6.581909 34,000 292 466 0
2020-01-24 16:24:13 GMT 52.161877 6.589757 34,000 292 466 0
2020-01-24 16:24:10 GMT 52.157219 6.609375 34,000 292 466 0
2020-01-24 16:24:07 GMT 52.153774 6.623736 34,000 292 466 0
2020-01-24 16:24:01 GMT 52.151779 6.632233 34,000 292 466 0
2020-01-24 16:23:57 GMT 52.148987 6.643982 34,000 292 466 0
2020-01-24 16:23:54 GMT 52.146328 6.655125 34,000 292 466 0
2020-01-24 16:23:51 GMT 52.144466 6.662973 34,000 292 466 0
2020-01-24 16:23:48 GMT 52.141800 6.674042 34,000 292 466 0
2020-01-24 16:23:45 GMT 52.139923 6.681900 34,000 292 466 0
2020-01-24 16:23:42 GMT 52.137451 6.692352 34,000 292 466 0
2020-01-24 16:23:39 GMT 52.135433 6.700797 34,000 292 466 0
2020-01-24 16:23:36 GMT 52.133057 6.710587 34,000 292 466 0
2020-01-24 16:23:33 GMT 52.130585 6.721039 34,000 292 465 0
2020-01-24 16:23:30 GMT 52.124168 6.747803 34,000 292 466 0
2020-01-24 16:23:26 GMT 52.124168 6.747803 34,000 292 466 0
2020-01-24 16:23:23 GMT 52.122803 6.753693 34,000 292 465 0
2020-01-24 16:23:20 GMT 52.120285 6.764145 34,000 292 466 0
2020-01-24 16:23:17 GMT 52.118256 6.772600 34,000 292 465 0
2020-01-24 16:23:14 GMT 52.112778 6.795349 34,000 292 465 0
2020-01-24 16:23:11 GMT 52.112778 6.795349 34,000 292 465 0
2020-01-24 16:23:08 GMT 52.111042 6.802499 34,000 292 466 0
2020-01-24 16:23:05 GMT 52.109024 6.810989 34,000 292 466 0
2020-01-24 16:23:02 GMT 52.105408 6.825963 34,000 292 466 0
2020-01-24 16:22:59 GMT 52.103870 6.832476 34,000 292 466 0
2020-01-24 16:22:56 GMT 52.101517 6.842194 34,000 292 465 0
2020-01-24 16:22:53 GMT 52.098843 6.853271 34,000 292 465 0
2020-01-24 16:22:50 GMT 52.096527 6.863022 34,000 292 465 0
2020-01-24 16:22:47 GMT 52.094143 6.872733 34,000 292 465 0
2020-01-24 16:22:44 GMT 52.092281 6.880502 34,000 292 465 0
2020-01-24 16:22:41 GMT 52.089161 6.893529 34,000 292 465 0
2020-01-24 16:22:38 GMT 52.086823 6.903305 34,000 292 465 0
2020-01-24 16:22:35 GMT 52.085110 6.910400 34,000 292 465 0
2020-01-24 16:22:29 GMT 52.079910 6.931839 34,000 292 465 0
2020-01-24 16:22:26 GMT 52.075706 6.949323 34,000 292 465 0
2020-01-24 16:22:23 GMT 52.075706 6.949323 34,000 292 465 0
2020-01-24 16:22:20 GMT 52.072723 6.961670 34,000 292 465 0
2020-01-24 16:22:17 GMT 52.070354 6.971375 34,000 292 465 0
2020-01-24 16:22:14 GMT 52.068283 6.979828 34,000 292 465 0
2020-01-24 16:22:11 GMT 52.066406 6.987610 34,000 292 465 0
2020-01-24 16:22:08 GMT 52.064068 6.997349 34,000 292 465 0
2020-01-24 16:22:05 GMT 52.060905 7.010376 34,000 292 465 0
2020-01-24 16:22:02 GMT 52.058994 7.018145 34,000 292 465 0
2020-01-24 16:21:58 GMT 52.056335 7.029114 34,000 292 465 0
2020-01-24 16:21:55 GMT 52.054138 7.038193 34,000 292 465 0
2020-01-24 16:21:52 GMT 52.048462 7.061615 34,000 292 465 0
2020-01-24 16:21:46 GMT 52.046425 7.070016 34,000 292 465 0
2020-01-24 16:21:43 GMT 52.040749 7.093323 34,000 292 465 0
2020-01-24 16:21:39 GMT 52.040749 7.093323 34,000 292 465 0
2020-01-24 16:21:36 GMT 52.038391 7.103119 34,000 292 465 0
2020-01-24 16:21:33 GMT 52.035553 7.114792 34,000 292 465 0
2020-01-24 16:21:30 GMT 52.034416 7.119298 34,000 292 465 0
2020-01-24 16:21:27 GMT 52.031754 7.130356 34,000 292 465 0
2020-01-24 16:21:24 GMT 52.029510 7.139359 34,000 292 465 0
2020-01-24 16:21:21 GMT 52.026993 7.149734 34,000 292 465 0
2020-01-24 16:21:18 GMT 52.024639 7.159476 34,000 292 465 0
2020-01-24 16:21:15 GMT 52.022079 7.169835 34,000 292 465 0
2020-01-24 16:21:12 GMT 52.019890 7.178938 34,000 292 465 0
2020-01-24 16:21:09 GMT 52.017471 7.188644 34,000 292 465 0
2020-01-24 16:21:06 GMT 52.015594 7.196426 34,000 292 465 0
2020-01-24 16:21:03 GMT 52.012585 7.208758 34,000 292 465 0
2020-01-24 16:21:00 GMT 52.007034 7.231369 34,000 292 465 0
2020-01-24 16:20:56 GMT 52.007034 7.231369 34,000 292 465 0
2020-01-24 16:20:53 GMT 52.004623 7.241089 34,000 292 465 0
2020-01-24 16:20:50 GMT 52.001457 7.254037 34,000 292 465 0
2020-01-24 16:20:47 GMT 52.000198 7.259216 34,000 292 465 0
2020-01-24 16:20:44 GMT 51.996986 7.272164 34,000 292 465 0
2020-01-24 16:20:38 GMT 51.992386 7.290878 34,000 292 464 0
2020-01-24 16:20:35 GMT 51.990330 7.299316 34,000 292 465 0
2020-01-24 16:20:32 GMT 51.987946 7.309036 34,000 292 465 0
2020-01-24 16:20:29 GMT 51.985703 7.318039 34,000 292 465 0
2020-01-24 16:20:26 GMT 51.983349 7.327724 34,000 292 465 0
2020-01-24 16:20:23 GMT 51.980621 7.338715 34,000 292 465 0
2020-01-24 16:20:20 GMT 51.978878 7.345851 34,000 292 465 0
2020-01-24 16:20:17 GMT 51.975990 7.357544 34,000 292 465 0
2020-01-24 16:20:14 GMT 51.970592 7.379517 34,000 292 465 0
2020-01-24 16:20:11 GMT 51.970592 7.379517 34,000 292 465 0
2020-01-24 16:20:08 GMT 51.969009 7.385951 34,000 292 465 0
2020-01-24 16:20:05 GMT 51.964050 7.406006 34,000 292 465 0
2020-01-24 16:19:59 GMT 51.958603 7.427902 34,000 292 465 0
2020-01-24 16:19:56 GMT 51.958603 7.427902 34,000 292 465 0
2020-01-24 16:19:52 GMT 51.955399 7.440872 34,000 292 465 0
2020-01-24 16:19:49 GMT 51.953796 7.447281 34,000 292 465 0
2020-01-24 16:19:46 GMT 51.951366 7.456970 34,000 292 465 0
2020-01-24 16:19:43 GMT 51.946247 7.477687 34,000 292 465 0
2020-01-24 16:19:40 GMT 51.943542 7.488632 34,000 292 465 0
2020-01-24 16:19:37 GMT 51.943542 7.488632 34,000 292 465 0
2020-01-24 16:19:34 GMT 51.941124 7.498326 34,000 292 465 0
2020-01-24 16:19:30 GMT 51.938286 7.509940 34,000 292 465 0
2020-01-24 16:19:27 GMT 51.935852 7.519608 34,000 292 465 0
2020-01-24 16:19:24 GMT 51.933491 7.529323 34,000 292 465 0
2020-01-24 16:19:21 GMT 51.928974 7.547372 34,000 292 465 0
2020-01-24 16:19:18 GMT 51.928974 7.547372 34,000 292 465 0
2020-01-24 16:19:15 GMT 51.926086 7.558986 34,000 292 465 0
2020-01-24 16:19:12 GMT 51.923721 7.568665 34,000 292 465 0
2020-01-24 16:19:09 GMT 51.922119 7.575073 34,000 292 465 0
2020-01-24 16:19:06 GMT 51.919510 7.585449 34,000 292 465 0
2020-01-24 16:19:03 GMT 51.916779 7.596340 34,000 292 465 0
2020-01-24 16:19:00 GMT 51.912308 7.614389 34,000 292 465 0
2020-01-24 16:18:54 GMT 51.906326 7.638245 34,000 292 465 0
2020-01-24 16:18:51 GMT 51.904404 7.645950 34,000 292 465 0
2020-01-24 16:18:48 GMT 51.902481 7.653732 34,000 292 465 0
2020-01-24 16:18:42 GMT 51.896667 7.676926 34,000 292 465 0
2020-01-24 16:18:36 GMT 51.895065 7.683334 34,000 293 466 0
2020-01-24 16:18:33 GMT 51.890579 7.701416 34,000 293 466 0
2020-01-24 16:18:27 GMT 51.887821 7.712326 34,000 293 466 0
2020-01-24 16:18:24 GMT 51.886192 7.718811 34,000 293 466 0
2020-01-24 16:18:21 GMT 51.882656 7.732925 34,000 293 466 0
2020-01-24 16:18:18 GMT 51.880699 7.740707 34,000 293 466 0
2020-01-24 16:18:15 GMT 51.878632 7.749073 34,000 293 466 64
2020-01-24 16:18:12 GMT 51.875534 7.761307 34,000 293 466 0
2020-01-24 16:18:09 GMT 51.872971 7.771606 34,000 293 466 0
2020-01-24 16:18:06 GMT 51.868458 7.789612 34,000 293 466 0
2020-01-24 16:18:03 GMT 51.866043 7.799328 34,000 293 466 0
2020-01-24 16:18:00 GMT 51.863434 7.809572 34,000 293 466 0
2020-01-24 16:17:56 GMT 51.863434 7.809572 34,000 293 466 0
2020-01-24 16:17:53 GMT 51.860504 7.821226 34,000 293 465 0
2020-01-24 16:17:50 GMT 51.858261 7.830208 34,000 293 466 0
2020-01-24 16:17:47 GMT 51.852402 7.853369 34,000 293 466 0
2020-01-24 16:17:44 GMT 51.850159 7.862351 34,000 293 466 0
2020-01-24 16:17:41 GMT 51.848190 7.870071 34,000 293 466 0
2020-01-24 16:17:38 GMT 51.844940 7.882987 34,000 293 465 0
2020-01-24 16:17:35 GMT 51.843506 7.888718 34,000 293 465 0
2020-01-24 16:17:29 GMT 51.841049 7.898428 34,000 293 465 0
2020-01-24 16:17:26 GMT 51.838806 7.907410 34,000 293 465 0
2020-01-24 16:17:23 GMT 51.835876 7.918990 34,000 293 465 0
2020-01-24 16:17:20 GMT 51.832947 7.930570 34,000 293 465 0
2020-01-24 16:17:17 GMT 51.830471 7.940140 34,000 293 465 0
2020-01-24 16:17:14 GMT 51.828369 7.948534 34,000 293 465 0
2020-01-24 16:17:10 GMT 51.825581 7.959442 34,000 293 465 64
2020-01-24 16:17:07 GMT 51.823151 7.969096 34,000 293 466 0
2020-01-24 16:17:04 GMT 51.819901 7.981939 34,000 293 466 0
2020-01-24 16:17:01 GMT 51.818459 7.987747 34,000 293 466 0
2020-01-24 16:16:58 GMT 51.815853 7.997971 34,000 293 466 0
2020-01-24 16:16:55 GMT 51.813400 8.007623 34,000 293 466 0
2020-01-24 16:16:52 GMT 51.811111 8.016679 34,000 293 466 0
2020-01-24 16:16:49 GMT 51.807861 8.029521 34,000 293 466 0
2020-01-24 16:16:46 GMT 51.805893 8.037241 34,000 293 466 0
2020-01-24 16:16:43 GMT 51.800674 8.057804 34,000 293 465 0
2020-01-24 16:16:40 GMT 51.800674 8.057804 34,000 293 465 0
2020-01-24 16:16:37 GMT 51.798065 8.068048 34,000 293 465 64
2020-01-24 16:16:34 GMT 51.796097 8.075768 34,000 293 465 0
2020-01-24 16:16:31 GMT 51.793648 8.085403 34,000 293 465 64
2020-01-24 16:16:28 GMT 51.790512 8.097592 34,000 293 465 64
2020-01-24 16:16:25 GMT 51.788864 8.103976 34,000 293 466 64
2020-01-24 16:16:22 GMT 51.785782 8.116150 34,000 293 466 0
2020-01-24 16:16:18 GMT 51.782318 8.129660 34,000 293 466 0
2020-01-24 16:16:15 GMT 51.780846 8.135452 34,000 293 467 0
2020-01-24 16:16:12 GMT 51.777866 8.146973 34,000 293 467 0
2020-01-24 16:16:08 GMT 51.774765 8.159204 34,000 293 467 0
2020-01-24 16:16:05 GMT 51.772430 8.168186 34,000 293 467 0
2020-01-24 16:16:02 GMT 51.770000 8.177795 34,000 293 467 0
2020-01-24 16:15:59 GMT 51.767345 8.188095 34,000 293 467 0
2020-01-24 16:15:56 GMT 51.764412 8.199692 34,000 293 467 0
2020-01-24 16:15:53 GMT 51.762589 8.206713 34,000 293 466 0
2020-01-24 16:15:50 GMT 51.759979 8.216957 34,000 293 466 0
2020-01-24 16:15:46 GMT 51.757198 8.227921 34,000 293 466 0
2020-01-24 16:15:43 GMT 51.753891 8.240738 34,000 293 466 0
2020-01-24 16:15:39 GMT 51.750458 8.254221 34,000 293 466 0
2020-01-24 16:15:35 GMT 51.747330 8.266373 34,000 293 466 0
2020-01-24 16:15:32 GMT 51.745373 8.274078 34,000 293 466 0
2020-01-24 16:15:26 GMT 51.737457 8.304901 34,000 293 466 0
2020-01-24 16:15:23 GMT 51.737457 8.304901 34,000 293 466 0
2020-01-24 16:15:20 GMT 51.735458 8.312607 34,000 293 466 0
2020-01-24 16:15:17 GMT 51.732971 8.322218 34,000 293 466 0
2020-01-24 16:15:14 GMT 51.727543 8.343353 34,000 293 468 0
2020-01-24 16:15:11 GMT 51.725540 8.351059 34,000 293 467 0
2020-01-24 16:15:05 GMT 51.723213 8.360062 34,000 293 468 0
2020-01-24 16:15:02 GMT 51.720062 8.372250 34,000 293 468 0
2020-01-24 16:14:59 GMT 51.717407 8.382494 34,000 293 468 64
2020-01-24 16:14:56 GMT 51.715073 8.391476 34,000 293 468 64
2020-01-24 16:14:53 GMT 51.712925 8.399811 34,000 293 468 0
2020-01-24 16:14:50 GMT 51.710770 8.408178 34,000 293 468 0
2020-01-24 16:14:47 GMT 51.708115 8.418422 34,000 293 467 0
2020-01-24 16:14:44 GMT 51.704964 8.430634 34,000 293 468 0
2020-01-24 16:14:41 GMT 51.703289 8.437042 34,000 293 468 0
2020-01-24 16:14:38 GMT 51.700790 8.446631 34,000 293 468 0
2020-01-24 16:14:35 GMT 51.698307 8.456268 34,000 293 468 0
2020-01-24 16:14:32 GMT 51.695004 8.469162 34,000 293 468 0
2020-01-24 16:14:28 GMT 51.691864 8.481297 34,000 293 467 0
2020-01-24 16:14:25 GMT 51.689045 8.492203 34,000 293 467 0
2020-01-24 16:14:22 GMT 51.687042 8.499908 34,000 293 468 0
2020-01-24 16:14:19 GMT 51.685040 8.507614 34,000 293 468 0
2020-01-24 16:14:16 GMT 51.682388 8.517914 34,000 293 468 0
2020-01-24 16:14:13 GMT 51.677082 8.538361 34,000 293 467 0
2020-01-24 16:14:09 GMT 51.677082 8.538361 34,000 293 467 0
2020-01-24 16:14:06 GMT 51.674103 8.549881 34,000 293 467 0
2020-01-24 16:14:03 GMT 51.671585 8.559537 34,000 293 467 0
2020-01-24 16:14:00 GMT 51.669571 8.567183 34,000 293 467 0
2020-01-24 16:13:57 GMT 51.666275 8.580025 34,000 293 467 0
2020-01-24 16:13:54 GMT 51.661438 8.598557 34,000 293 467 0
2020-01-24 16:13:51 GMT 51.659435 8.606262 34,000 293 467 0
2020-01-24 16:13:45 GMT 51.656250 8.618403 34,000 293 467 0
2020-01-24 16:13:42 GMT 51.653915 8.627385 34,000 293 467 0
2020-01-24 16:13:39 GMT 51.651428 8.636932 34,000 293 467 0
2020-01-24 16:13:35 GMT 51.647598 8.651659 34,000 293 467 0
2020-01-24 16:13:32 GMT 51.645584 8.659305 34,000 293 467 0
2020-01-24 16:13:29 GMT 51.643250 8.668287 34,000 293 467 0
2020-01-24 16:13:26 GMT 51.640072 8.680420 34,000 293 467 0
2020-01-24 16:13:23 GMT 51.638069 8.688126 34,000 293 467 0
2020-01-24 16:13:20 GMT 51.635696 8.697052 34,000 293 466 0
2020-01-24 16:13:17 GMT 51.632389 8.709793 34,000 293 466 0
2020-01-24 16:13:11 GMT 51.627689 8.727646 34,000 293 466 0
2020-01-24 16:13:08 GMT 51.625687 8.735352 34,000 293 466 0
2020-01-24 16:13:05 GMT 51.622986 8.745575 34,000 293 466 0
2020-01-24 16:13:02 GMT 51.620819 8.753877 34,000 293 466 0
2020-01-24 16:12:59 GMT 51.617157 8.767906 34,000 293 467 64
2020-01-24 16:12:56 GMT 51.615463 8.774290 34,000 293 467 64
2020-01-24 16:12:53 GMT 51.613449 8.781936 34,000 293 466 0
2020-01-24 16:12:50 GMT 51.610279 8.794098 34,000 293 466 0
2020-01-24 16:12:46 GMT 51.607250 8.805542 34,000 294 467 0
2020-01-24 16:12:43 GMT 51.604923 8.814468 34,000 293 466 0
2020-01-24 16:12:40 GMT 51.601364 8.827886 34,000 293 466 0
2020-01-24 16:12:37 GMT 51.596500 8.846359 34,000 293 466 0
2020-01-24 16:12:33 GMT 51.596500 8.846359 34,000 293 466 0
2020-01-24 16:12:30 GMT 51.593307 8.858469 34,000 293 466 0
2020-01-24 16:12:27 GMT 51.590286 8.869975 34,000 293 466 64
2020-01-24 16:12:24 GMT 51.588593 8.876285 34,000 293 466 0
2020-01-24 16:12:21 GMT 51.585938 8.886455 34,000 293 466 0
2020-01-24 16:12:18 GMT 51.583923 8.894101 34,000 293 466 0
2020-01-24 16:12:15 GMT 51.581043 8.904953 34,000 293 466 0
2020-01-24 16:12:12 GMT 51.579208 8.911916 34,000 293 466 0
2020-01-24 16:12:09 GMT 51.573807 8.932256 34,000 293 466 0
2020-01-24 16:12:06 GMT 51.573807 8.932256 34,000 293 466 0
2020-01-24 16:12:03 GMT 51.571152 8.942426 34,000 293 466 0
2020-01-24 16:12:00 GMT 51.567764 8.955194 34,000 293 466 0
2020-01-24 16:11:56 GMT 51.564743 8.966625 34,000 293 466 0
2020-01-24 16:11:52 GMT 51.561863 8.977432 34,000 293 466 0
2020-01-24 16:11:49 GMT 51.559162 8.987579 34,000 293 466 0
2020-01-24 16:11:46 GMT 51.556641 8.997135 34,000 294 466 0
2020-01-24 16:11:42 GMT 51.553299 9.009828 34,000 294 466 0
2020-01-24 16:11:39 GMT 51.550087 9.021912 34,000 294 466 0
2020-01-24 16:11:36 GMT 51.548409 9.028244 34,000 294 466 0
2020-01-24 16:11:32 GMT 51.545013 9.040909 34,000 294 465 0
2020-01-24 16:11:29 GMT 51.542313 9.051056 34,000 294 466 0
2020-01-24 16:11:26 GMT 51.539940 9.059906 34,000 294 465 0
2020-01-24 16:11:22 GMT 51.533188 9.085312 34,000 294 466 64
2020-01-24 16:11:18 GMT 51.533188 9.085312 34,000 294 466 64
2020-01-24 16:11:15 GMT 51.530811 9.094162 34,000 294 466 64
2020-01-24 16:11:12 GMT 51.527786 9.105606 34,000 294 467 0
2020-01-24 16:11:09 GMT 51.524551 9.117687 34,000 294 466 0
2020-01-24 16:11:06 GMT 51.522388 9.125900 34,000 294 466 0
2020-01-24 16:11:02 GMT 51.519470 9.136765 34,000 294 466 0
2020-01-24 16:10:59 GMT 51.516941 9.146271 34,000 294 466 64
2020-01-24 16:10:56 GMT 51.513748 9.158366 34,000 294 467 0
2020-01-24 16:10:52 GMT 51.511215 9.167862 34,000 294 467 0
2020-01-24 16:10:49 GMT 51.507816 9.180603 34,000 294 467 0
2020-01-24 16:10:46 GMT 51.506287 9.186278 34,000 294 467 0
2020-01-24 16:10:43 GMT 51.502899 9.199046 34,000 294 467 0
2020-01-24 16:10:40 GMT 51.500839 9.206617 34,000 294 466 0
2020-01-24 16:10:36 GMT 51.497772 9.218049 34,000 294 467 0
2020-01-24 16:10:33 GMT 51.495201 9.227600 34,000 294 467 0
2020-01-24 16:10:30 GMT 51.489429 9.249191 34,000 294 467 64
2020-01-24 16:10:24 GMT 51.483982 9.269485 34,000 294 466 0
2020-01-24 16:10:21 GMT 51.483982 9.269485 34,000 294 467 0
2020-01-24 16:10:18 GMT 51.479561 9.285965 34,000 294 467 0
2020-01-24 16:10:15 GMT 51.479561 9.285965 34,000 294 467 0
2020-01-24 16:10:12 GMT 51.476116 9.298630 34,000 294 467 0
2020-01-24 16:10:09 GMT 51.474766 9.303741 34,000 294 467 0
2020-01-24 16:10:06 GMT 51.472229 9.313214 34,000 294 467 0
2020-01-24 16:10:03 GMT 51.468796 9.325908 34,000 294 467 0
2020-01-24 16:10:00 GMT 51.467102 9.332292 34,000 294 467 0
2020-01-24 16:09:57 GMT 51.461777 9.351883 34,000 294 467 0
2020-01-24 16:09:51 GMT 51.456482 9.371561 34,000 294 467 0
2020-01-24 16:09:48 GMT 51.456482 9.371561 34,000 294 467 0
2020-01-24 16:09:45 GMT 51.453957 9.381104 34,000 294 467 0
2020-01-24 16:09:42 GMT 51.451721 9.389302 34,000 294 467 0
2020-01-24 16:09:39 GMT 51.448090 9.402618 34,000 294 467 0
2020-01-24 16:09:36 GMT 51.446548 9.408380 34,000 294 467 64
2020-01-24 16:09:33 GMT 51.441101 9.428645 34,000 294 467 64
2020-01-24 16:09:30 GMT 51.441101 9.428645 34,000 294 467 64
2020-01-24 16:09:27 GMT 51.439041 9.436217 34,000 294 467 64
2020-01-24 16:09:24 GMT 51.435928 9.447648 34,000 294 467 0
2020-01-24 16:09:20 GMT 51.431984 9.462204 34,000 294 467 0
2020-01-24 16:09:17 GMT 51.426861 9.481201 34,000 294 467 0
2020-01-24 16:09:10 GMT 51.424255 9.490703 34,000 294 467 0
2020-01-24 16:09:07 GMT 51.420998 9.502716 34,000 294 467 0
2020-01-24 16:09:04 GMT 51.418121 9.513492 34,000 294 467 0
2020-01-24 16:09:01 GMT 51.416061 9.521138 34,000 294 467 0
2020-01-24 16:08:58 GMT 51.413635 9.529972 34,000 294 467 0
2020-01-24 16:08:54 GMT 51.409359 9.545822 34,000 294 467 64
2020-01-24 16:08:51 GMT 51.408188 9.550237 34,000 294 467 64
2020-01-24 16:08:48 GMT 51.405441 9.560407 34,000 294 466 0
2020-01-24 16:08:45 GMT 51.402695 9.570502 34,000 294 466 0
2020-01-24 16:08:42 GMT 51.397202 9.590693 34,000 294 467 64
2020-01-24 16:08:39 GMT 51.397202 9.590693 34,000 294 466 0
2020-01-24 16:08:36 GMT 51.394276 9.601440 34,000 294 466 64
2020-01-24 16:08:33 GMT 51.393036 9.605911 34,000 294 466 -64
2020-01-24 16:08:30 GMT 51.386169 9.631150 34,000 294 466 64
2020-01-24 16:08:27 GMT 51.386169 9.631150 34,000 294 466 0
2020-01-24 16:08:24 GMT 51.384640 9.636841 34,000 294 466 64
2020-01-24 16:08:21 GMT 51.381893 9.646912 34,000 294 466 64
2020-01-24 16:08:18 GMT 51.378937 9.657651 34,000 294 466 64
2020-01-24 16:08:15 GMT 51.376190 9.667746 34,000 294 467 0
2020-01-24 16:08:12 GMT 51.374496 9.674056 34,000 294 467 64
2020-01-24 16:08:09 GMT 51.371704 9.684151 34,000 294 467 0
2020-01-24 16:08:06 GMT 51.369324 9.692985 34,000 294 467 0
2020-01-24 16:08:03 GMT 51.366390 9.703751 34,000 294 466 64
2020-01-24 16:07:59 GMT 51.360851 9.723892 34,000 294 466 0
2020-01-24 16:07:56 GMT 51.360851 9.723892 34,000 294 466 0
2020-01-24 16:07:53 GMT 51.356873 9.738415 34,000 294 466 0
2020-01-24 16:07:50 GMT 51.355312 9.744034 34,000 294 466 0
2020-01-24 16:07:47 GMT 51.352707 9.753558 34,000 294 466 0
2020-01-24 16:07:44 GMT 51.350647 9.761056 34,000 294 466 0
2020-01-24 16:07:41 GMT 51.347351 9.773026 34,000 294 466 0
2020-01-24 16:07:38 GMT 51.345108 9.781247 34,000 294 466 0
2020-01-24 16:07:35 GMT 51.343048 9.788818 34,000 294 466 0
2020-01-24 16:07:32 GMT 51.339066 9.803238 34,000 294 466 0
2020-01-24 16:07:29 GMT 51.334076 9.821480 34,000 294 466 64
2020-01-24 16:07:26 GMT 51.332336 9.827790 34,000 294 466 64
2020-01-24 16:07:20 GMT 51.329224 9.839148 34,000 294 467 0
2020-01-24 16:07:17 GMT 51.325935 9.851074 34,000 294 466 64
2020-01-24 16:07:14 GMT 51.323517 9.859924 34,000 294 467 64
2020-01-24 16:07:10 GMT 51.320770 9.869995 34,000 294 467 64
2020-01-24 16:07:07 GMT 51.317780 9.880718 34,000 294 467 64
2020-01-24 16:07:03 GMT 51.314484 9.892654 34,000 294 467 0
2020-01-24 16:07:00 GMT 51.308762 9.913454 34,000 294 467 0
2020-01-24 16:06:57 GMT 51.308762 9.913454 34,000 294 467 0
2020-01-24 16:06:54 GMT 51.306152 9.922943 34,000 294 467 64
2020-01-24 16:06:51 GMT 51.304550 9.928597 34,000 295 466 0
2020-01-24 16:06:48 GMT 51.301590 9.939346 34,000 294 467 0
2020-01-24 16:06:45 GMT 51.298279 9.951312 34,000 294 467 0
2020-01-24 16:06:41 GMT 51.295307 9.962082 34,000 294 467 0
2020-01-24 16:06:38 GMT 51.292694 9.971503 34,000 294 467 0
2020-01-24 16:06:35 GMT 51.290268 9.980337 34,000 294 467 0
2020-01-24 16:06:32 GMT 51.287476 9.990432 34,000 294 467 64
2020-01-24 16:06:29 GMT 51.285370 9.998004 34,000 294 467 64
2020-01-24 16:06:26 GMT 51.282410 10.008698 34,000 294 467 0
2020-01-24 16:06:23 GMT 51.276993 10.028216 34,000 294 467 0
2020-01-24 16:06:17 GMT 51.271774 10.047071 34,000 294 467 0
2020-01-24 16:06:11 GMT 51.268818 10.057831 34,000 295 466 0
2020-01-24 16:06:07 GMT 51.265823 10.068524 34,000 294 467 0
2020-01-24 16:06:04 GMT 51.263397 10.077284 34,000 294 467 0
2020-01-24 16:06:00 GMT 51.259186 10.092427 34,000 294 467 0
2020-01-24 16:05:57 GMT 51.254852 10.108109 34,000 294 467 0
2020-01-24 16:05:54 GMT 51.251175 10.121377 34,000 294 466 0
2020-01-24 16:05:51 GMT 51.251175 10.121377 34,000 294 467 0
2020-01-24 16:05:47 GMT 51.247650 10.133923 34,000 294 467 0
2020-01-24 16:05:44 GMT 51.246426 10.138321 34,000 294 467 0
2020-01-24 16:05:41 GMT 51.240646 10.159013 34,000 294 467 0
2020-01-24 16:05:35 GMT 51.237854 10.169109 34,000 294 467 0
2020-01-24 16:05:32 GMT 51.234882 10.179749 34,000 294 467 0
2020-01-24 16:05:29 GMT 51.232269 10.189151 34,000 294 467 0
2020-01-24 16:05:26 GMT 51.230164 10.196723 34,000 295 465 0
2020-01-24 16:05:23 GMT 51.226318 10.210530 34,000 295 466 0
2020-01-24 16:05:19 GMT 51.220867 10.229950 34,000 295 466 64
2020-01-24 16:05:15 GMT 51.217751 10.241241 34,000 295 466 0
2020-01-24 16:05:09 GMT 51.212311 10.260637 34,000 295 466 64
2020-01-24 16:05:06 GMT 51.212311 10.260637 34,000 295 466 64
2020-01-24 16:05:03 GMT 51.207413 10.278155 34,000 294 466 0
2020-01-24 16:05:00 GMT 51.204437 10.288773 34,000 294 466 0
2020-01-24 16:04:57 GMT 51.204437 10.288773 34,000 294 466 0
2020-01-24 16:04:54 GMT 51.201645 10.298843 34,000 295 466 0
2020-01-24 16:04:51 GMT 51.199875 10.305099 34,000 295 466 0
2020-01-24 16:04:48 GMT 51.196564 10.316979 34,000 295 465 0
2020-01-24 16:04:45 GMT 51.194458 10.324476 34,000 295 465 0
2020-01-24 16:04:42 GMT 51.191818 10.333786 34,000 295 465 0
2020-01-24 16:04:39 GMT 51.187958 10.347519 34,000 295 465 0
2020-01-24 16:04:36 GMT 51.186035 10.354392 34,000 295 463 0
2020-01-24 16:04:33 GMT 51.182877 10.365675 34,000 295 465 64
2020-01-24 16:04:30 GMT 51.180084 10.375622 34,000 295 465 64
2020-01-24 16:04:27 GMT 51.177979 10.383119 34,000 295 465 64
2020-01-24 16:04:24 GMT 51.175667 10.391235 34,000 295 465 0
2020-01-24 16:04:21 GMT 51.173401 10.399302 34,000 295 464 0
2020-01-24 16:04:18 GMT 51.170406 10.409927 34,000 295 465 0
2020-01-24 16:04:15 GMT 51.167404 10.420532 34,000 295 465 0
2020-01-24 16:04:12 GMT 51.165146 10.428619 34,000 295 465 0
2020-01-24 16:04:09 GMT 51.162678 10.437317 34,000 295 465 0
2020-01-24 16:04:06 GMT 51.159840 10.447311 34,000 295 463 0
2020-01-24 16:04:03 GMT 51.157047 10.457230 34,000 295 465 0
2020-01-24 16:04:00 GMT 51.154903 10.464706 34,000 295 465 0
2020-01-24 16:03:57 GMT 51.150879 10.479027 34,000 295 465 0
2020-01-24 16:03:54 GMT 51.148575 10.487137 34,000 295 465 0
2020-01-24 16:03:51 GMT 51.147354 10.491498 34,000 295 463 0
2020-01-24 16:03:48 GMT 51.143097 10.506419 34,000 295 464 0
2020-01-24 16:03:45 GMT 51.141357 10.512580 34,000 295 462 0
2020-01-24 16:03:42 GMT 51.138702 10.521927 34,000 295 464 0
2020-01-24 16:03:38 GMT 51.135490 10.533066 34,000 295 464 0
2020-01-24 16:03:35 GMT 51.129860 10.552979 34,000 295 464 0
2020-01-24 16:03:28 GMT 51.126320 10.565338 34,000 295 463 0
2020-01-24 16:03:25 GMT 51.120483 10.585773 34,000 295 463 0
2020-01-24 16:03:22 GMT 51.117104 10.597534 34,000 295 463 0
2020-01-24 16:03:18 GMT 51.117104 10.597534 34,000 295 463 0
2020-01-24 16:03:15 GMT 51.113937 10.608673 34,000 295 463 64
2020-01-24 16:03:12 GMT 51.111797 10.616074 34,000 295 462 0
2020-01-24 16:03:09 GMT 51.108585 10.627213 34,000 295 463 64
2020-01-24 16:03:06 GMT 51.106815 10.633392 34,000 295 463 0
2020-01-24 16:03:03 GMT 51.104507 10.641447 34,000 295 463 64
2020-01-24 16:03:00 GMT 51.101509 10.651932 34,000 295 463 0
2020-01-24 16:02:57 GMT 51.098831 10.661192 34,000 295 463 0
2020-01-24 16:02:54 GMT 51.094208 10.677226 34,000 295 462 0
2020-01-24 16:02:48 GMT 51.090847 10.688934 34,000 295 462 0
2020-01-24 16:02:45 GMT 51.087799 10.699422 34,000 295 462 0
2020-01-24 16:02:41 GMT 51.084473 10.711212 34,000 295 462 0
2020-01-24 16:02:38 GMT 51.081631 10.721054 34,000 295 462 0
2020-01-24 16:02:35 GMT 51.079861 10.727234 34,000 295 462 0
2020-01-24 16:02:32 GMT 51.076370 10.739594 34,000 295 462 0
2020-01-24 16:02:28 GMT 51.073425 10.750122 34,000 294 462 0
2020-01-24 16:02:25 GMT 51.070312 10.761257 34,000 294 461 0
2020-01-24 16:02:22 GMT 51.067059 10.773087 34,000 294 461 64
2020-01-24 16:02:18 GMT 51.062313 10.790405 34,000 294 462 0
2020-01-24 16:02:12 GMT 51.060104 10.798521 34,000 294 462 0
2020-01-24 16:02:09 GMT 51.056992 10.809656 34,000 294 462 64
2020-01-24 16:02:06 GMT 51.051865 10.828288 34,000 294 462 0
2020-01-24 16:02:03 GMT 51.051865 10.828288 34,000 294 463 0
2020-01-24 16:02:00 GMT 51.048798 10.839423 34,000 294 463 0
2020-01-24 16:01:57 GMT 51.046577 10.847549 34,000 294 463 0
2020-01-24 16:01:54 GMT 51.043625 10.858055 34,000 294 463 0
2020-01-24 16:01:51 GMT 51.041931 10.864291 34,000 294 463 0
2020-01-24 16:01:48 GMT 51.038132 10.877949 34,000 294 462 0
2020-01-24 16:01:45 GMT 51.036243 10.884781 34,000 294 462 0
2020-01-24 16:01:42 GMT 51.033169 10.895920 34,000 294 462 0
2020-01-24 16:01:37 GMT 51.026138 10.921301 34,000 294 462 0
2020-01-24 16:01:33 GMT 51.026138 10.921301 34,000 294 462 64
2020-01-24 16:01:30 GMT 51.020325 10.942383 34,000 294 462 64
2020-01-24 16:01:23 GMT 51.017387 10.952835 34,000 294 462 0
2020-01-24 16:01:19 GMT 51.014465 10.963390 34,000 294 462 0
2020-01-24 16:01:16 GMT 51.011032 10.975787 34,000 294 462 0
2020-01-24 16:01:13 GMT 51.007965 10.986922 34,000 294 462 64
2020-01-24 16:01:09 GMT 51.005051 10.997391 34,000 294 462 0
2020-01-24 16:01:06 GMT 51.002956 11.004868 34,000 294 461 0
2020-01-24 16:01:03 GMT 51.000538 11.013489 34,000 294 462 0
2020-01-24 16:01:00 GMT 50.998161 11.022186 34,000 294 462 0
2020-01-24 16:00:57 GMT 50.994717 11.034546 34,000 294 462 0
2020-01-24 16:00:54 GMT 50.992622 11.041946 34,000 294 462 0
2020-01-24 16:00:51 GMT 50.990204 11.050644 34,000 294 462 0
2020-01-24 16:00:48 GMT 50.987640 11.059892 34,000 294 461 64
2020-01-24 16:00:45 GMT 50.981915 11.080246 34,000 294 461 0
2020-01-24 16:00:42 GMT 50.979870 11.087646 34,000 294 461 64
2020-01-24 16:00:36 GMT 50.977119 11.097565 34,000 294 460 0
2020-01-24 16:00:33 GMT 50.974701 11.106186 34,000 294 461 64
2020-01-24 16:00:30 GMT 50.971909 11.116028 34,000 294 461 0
2020-01-24 16:00:27 GMT 50.965851 11.137687 34,000 294 461 0
2020-01-24 16:00:24 GMT 50.965851 11.137687 34,000 294 461 0
2020-01-24 16:00:20 GMT 50.963470 11.146298 34,000 294 461 0
2020-01-24 16:00:17 GMT 50.958252 11.164782 34,000 294 461 0
2020-01-24 16:00:14 GMT 50.958252 11.164782 34,000 294 461 64
2020-01-24 16:00:11 GMT 50.955662 11.174088 34,000 294 461 64
2020-01-24 16:00:08 GMT 50.952915 11.183929 34,000 294 461 0
2020-01-24 16:00:04 GMT 50.949795 11.194992 34,000 294 461 64
2020-01-24 16:00:01 GMT 50.946854 11.205461 34,000 294 461 0
2020-01-24 15:59:57 GMT 50.942905 11.219635 34,000 294 460 0
2020-01-24 15:59:54 GMT 50.940811 11.227036 34,000 294 460 0
2020-01-24 15:59:51 GMT 50.937881 11.237529 34,000 294 460 0
2020-01-24 15:59:48 GMT 50.935970 11.244278 34,000 294 460 0
2020-01-24 15:59:45 GMT 50.933224 11.254120 34,000 294 460 0
2020-01-24 15:59:42 GMT 50.929916 11.265811 34,000 294 460 0
2020-01-24 15:59:39 GMT 50.928223 11.271973 34,000 294 460 0
2020-01-24 15:59:36 GMT 50.925430 11.281846 34,000 295 461 0
2020-01-24 15:59:33 GMT 50.922318 11.292906 34,000 295 461 0
2020-01-24 15:59:30 GMT 50.920048 11.300964 34,000 295 461 64
2020-01-24 15:59:27 GMT 50.917625 11.309509 34,000 295 461 64
2020-01-24 15:59:24 GMT 50.914185 11.321869 34,000 295 461 0
2020-01-24 15:59:21 GMT 50.912613 11.327424 34,000 295 461 64
2020-01-24 15:59:18 GMT 50.909821 11.337223 34,000 295 461 64
2020-01-24 15:59:15 GMT 50.906876 11.347656 34,000 295 461 64
2020-01-24 15:59:12 GMT 50.904236 11.356894 34,000 295 461 0
2020-01-24 15:59:08 GMT 50.898331 11.377827 34,000 295 462 0
2020-01-24 15:59:05 GMT 50.898331 11.377827 34,000 295 462 0
2020-01-24 15:59:02 GMT 50.894852 11.390150 34,000 295 462 0
2020-01-24 15:58:59 GMT 50.892582 11.398163 34,000 295 462 0
2020-01-24 15:58:55 GMT 50.889790 11.408081 34,000 295 462 0
2020-01-24 15:58:52 GMT 50.887161 11.417319 34,000 295 462 0
2020-01-24 15:58:49 GMT 50.884369 11.427192 34,000 295 462 0
2020-01-24 15:58:46 GMT 50.881210 11.438252 34,000 295 462 0
2020-01-24 15:58:43 GMT 50.878242 11.448746 34,000 295 462 0
2020-01-24 15:58:40 GMT 50.875580 11.457998 34,000 295 462 0
2020-01-24 15:58:37 GMT 50.873840 11.464159 34,000 295 463 0
2020-01-24 15:58:34 GMT 50.871216 11.473389 34,000 295 462 0
2020-01-24 15:58:31 GMT 50.867889 11.485093 34,000 295 463 0
2020-01-24 15:58:28 GMT 50.865463 11.493778 34,000 295 463 0
2020-01-24 15:58:25 GMT 50.863358 11.501127 34,000 295 463 0
2020-01-24 15:58:22 GMT 50.861252 11.508550 34,000 295 463 0
2020-01-24 15:58:19 GMT 50.857773 11.520872 34,000 295 462 0
2020-01-24 15:58:15 GMT 50.851616 11.542435 34,000 295 462 0
2020-01-24 15:58:12 GMT 50.851616 11.542435 34,000 295 462 0
2020-01-24 15:58:09 GMT 50.849350 11.550417 34,000 295 462 0
2020-01-24 15:58:03 GMT 50.840443 11.581802 34,000 295 462 64
2020-01-24 15:58:00 GMT 50.840443 11.581802 34,000 295 462 0
2020-01-24 15:57:57 GMT 50.838867 11.587384 34,000 295 462 0
2020-01-24 15:57:54 GMT 50.836441 11.595995 34,000 295 462 64
2020-01-24 15:57:51 GMT 50.833786 11.605148 34,000 295 461 0
2020-01-24 15:57:48 GMT 50.830811 11.615592 34,000 295 461 0
2020-01-24 15:57:45 GMT 50.828201 11.624832 34,000 295 461 0
2020-01-24 15:57:42 GMT 50.825779 11.633453 34,000 295 461 0
2020-01-24 15:57:39 GMT 50.822067 11.646324 34,000 295 461 0
2020-01-24 15:57:35 GMT 50.820007 11.653673 34,000 295 460 0
2020-01-24 15:57:32 GMT 50.816483 11.665996 34,000 295 460 0
2020-01-24 15:57:29 GMT 50.814560 11.672668 34,000 295 460 0
2020-01-24 15:57:26 GMT 50.810696 11.686172 34,000 295 460 0
2020-01-24 15:57:22 GMT 50.807373 11.697767 34,000 295 460 0
2020-01-24 15:57:19 GMT 50.805267 11.705116 34,000 295 460 0
2020-01-24 15:57:16 GMT 50.802971 11.713104 34,000 295 460 0
2020-01-24 15:57:13 GMT 50.800503 11.721649 34,000 295 460 0
2020-01-24 15:57:10 GMT 50.797165 11.733250 34,000 295 460 0
2020-01-24 15:57:07 GMT 50.794914 11.741180 34,000 295 460 0
2020-01-24 15:57:04 GMT 50.793148 11.747284 34,000 295 460 0
2020-01-24 15:57:01 GMT 50.789429 11.760122 34,000 295 460 0
2020-01-24 15:56:58 GMT 50.786636 11.769846 34,000 295 460 0
2020-01-24 15:56:55 GMT 50.784348 11.777802 34,000 295 460 0
2020-01-24 15:56:51 GMT 50.780811 11.790009 34,000 295 460 0
2020-01-24 15:56:48 GMT 50.775009 11.810080 34,000 295 460 0
2020-01-24 15:56:45 GMT 50.775009 11.810080 34,000 295 460 0
2020-01-24 15:56:41 GMT 50.772709 11.818008 34,000 295 460 0
2020-01-24 15:56:38 GMT 50.768845 11.831436 34,000 295 460 0
2020-01-24 15:56:35 GMT 50.766380 11.839981 34,000 295 460 64
2020-01-24 15:56:32 GMT 50.764801 11.845489 34,000 295 460 0
2020-01-24 15:56:29 GMT 50.758072 11.868649 34,000 295 460 0
2020-01-24 15:56:26 GMT 50.755814 11.876602 34,000 295 460 0
2020-01-24 15:56:22 GMT 50.752121 11.889434 34,000 295 460 0
2020-01-24 15:56:19 GMT 50.752121 11.889434 34,000 295 460 0
2020-01-24 15:56:16 GMT 50.749481 11.898575 34,000 295 460 0
2020-01-24 15:56:13 GMT 50.747177 11.906507 34,000 295 460 0
2020-01-24 15:56:10 GMT 50.744705 11.915044 34,000 295 460 0
2020-01-24 15:56:07 GMT 50.742081 11.924210 34,000 295 460 0
2020-01-24 15:56:04 GMT 50.739441 11.933305 34,000 295 460 0
2020-01-24 15:56:01 GMT 50.736969 11.941842 34,000 295 460 0
2020-01-24 15:55:58 GMT 50.731705 11.960177 34,000 295 460 0
2020-01-24 15:55:55 GMT 50.728500 11.971163 34,000 295 460 0
2020-01-24 15:55:52 GMT 50.728500 11.971163 34,000 295 460 0
2020-01-24 15:55:49 GMT 50.726395 11.978438 34,000 295 460 0
2020-01-24 15:55:46 GMT 50.723412 11.988831 34,000 295 460 0
2020-01-24 15:55:43 GMT 50.721272 11.996155 34,000 295 460 0
2020-01-24 15:55:40 GMT 50.719173 12.003479 34,000 295 460 0
2020-01-24 15:55:37 GMT 50.715454 12.016222 34,000 295 459 64
2020-01-24 15:55:34 GMT 50.712799 12.025375 34,000 295 459 64
2020-01-24 15:55:31 GMT 50.708359 12.040570 34,000 295 459 0
2020-01-24 15:55:25 GMT 50.705025 12.052155 34,000 295 459 0
2020-01-24 15:55:22 GMT 50.703255 12.058182 34,000 295 459 0
2020-01-24 15:55:19 GMT 50.699345 12.071533 34,000 295 459 0
2020-01-24 15:55:16 GMT 50.697052 12.079468 34,000 295 459 0
2020-01-24 15:55:13 GMT 50.693848 12.090454 34,000 295 459 0
2020-01-24 15:55:09 GMT 50.690826 12.100754 34,000 295 460 0
2020-01-24 15:55:05 GMT 50.687660 12.111664 34,000 295 459 64
2020-01-24 15:55:02 GMT 50.685013 12.120815 34,000 295 460 0
2020-01-24 15:54:58 GMT 50.677917 12.145163 34,000 295 460 0
2020-01-24 15:54:55 GMT 50.677917 12.145163 34,000 295 460 0
2020-01-24 15:54:52 GMT 50.675446 12.153700 34,000 295 460 -64
2020-01-24 15:54:48 GMT 50.668350 12.178056 34,000 295 460 0
2020-01-24 15:54:44 GMT 50.668350 12.178056 34,000 295 460 0
2020-01-24 15:54:38 GMT 50.663918 12.193265 34,000 295 460 0
2020-01-24 15:54:35 GMT 50.658371 12.212099 34,000 295 460 0
2020-01-24 15:54:32 GMT 50.658371 12.212099 34,000 295 460 64
2020-01-24 15:54:29 GMT 50.655167 12.223013 34,000 295 460 0
2020-01-24 15:54:26 GMT 50.650372 12.239438 34,000 295 460 0
2020-01-24 15:54:23 GMT 50.647705 12.248527 34,000 295 460 0
2020-01-24 15:54:20 GMT 50.645016 12.257624 34,000 295 460 0
2020-01-24 15:54:17 GMT 50.641479 12.269798 34,000 295 460 0
2020-01-24 15:54:14 GMT 50.641479 12.269798 34,000 295 460 0
2020-01-24 15:54:11 GMT 50.636307 12.287413 34,000 295 460 0
2020-01-24 15:54:08 GMT 50.636307 12.287413 34,000 295 460 0
2020-01-24 15:54:05 GMT 50.633984 12.295334 34,000 295 460 0
2020-01-24 15:54:02 GMT 50.631317 12.304398 34,000 295 460 0
2020-01-24 15:53:59 GMT 50.628799 12.312927 34,000 295 460 0
2020-01-24 15:53:56 GMT 50.623280 12.331708 34,000 295 460 0
2020-01-24 15:53:53 GMT 50.623280 12.331708 34,000 295 460 0
2020-01-24 15:53:50 GMT 50.620926 12.339598 34,000 295 460 0
2020-01-24 15:53:47 GMT 50.618820 12.346826 34,000 295 459 0
2020-01-24 15:53:44 GMT 50.615570 12.357740 34,000 295 459 0
2020-01-24 15:53:41 GMT 50.612198 12.369269 34,000 295 459 0
2020-01-24 15:53:38 GMT 50.609528 12.378339 34,000 295 459 0
2020-01-24 15:53:34 GMT 50.606644 12.388025 34,000 295 459 0
2020-01-24 15:53:30 GMT 50.603073 12.400167 34,000 295 459 0
2020-01-24 15:53:27 GMT 50.600422 12.409206 34,000 295 459 0
2020-01-24 15:53:23 GMT 50.595764 12.424943 34,000 295 459 0
2020-01-24 15:53:20 GMT 50.593781 12.431609 34,000 295 459 0
2020-01-24 15:53:17 GMT 50.591309 12.440065 34,000 295 459 0
2020-01-24 15:53:13 GMT 50.588470 12.449750 34,000 295 459 0
2020-01-24 15:53:10 GMT 50.585056 12.461243 34,000 295 459 0
2020-01-24 15:53:07 GMT 50.582916 12.468517 34,000 295 459 0
2020-01-24 15:53:04 GMT 50.579704 12.479355 34,000 295 459 0
2020-01-24 15:53:01 GMT 50.577072 12.488492 34,000 295 459 0
2020-01-24 15:52:58 GMT 50.571716 12.506561 34,000 295 459 0
2020-01-24 15:52:52 GMT 50.568672 12.516842 34,000 295 459 0
2020-01-24 15:52:49 GMT 50.566528 12.524117 34,000 296 459 64
2020-01-24 15:52:45 GMT 50.562012 12.539231 34,000 296 459 0
2020-01-24 15:52:42 GMT 50.560226 12.545230 34,000 296 459 0
2020-01-24 15:52:39 GMT 50.557022 12.556144 34,000 296 460 0
2020-01-24 15:52:36 GMT 50.551075 12.576005 34,000 296 460 0
2020-01-24 15:52:32 GMT 50.551075 12.576005 34,000 296 460 0
2020-01-24 15:52:29 GMT 50.548187 12.585730 34,000 296 460 0
2020-01-24 15:52:25 GMT 50.544754 12.597198 34,000 296 460 0
2020-01-24 15:52:22 GMT 50.541504 12.608040 34,000 296 460 0
2020-01-24 15:52:19 GMT 50.536469 12.624953 34,000 296 460 0
2020-01-24 15:52:16 GMT 50.536469 12.624953 34,000 296 460 0
2020-01-24 15:52:13 GMT 50.530174 12.646080 34,000 296 459 0
2020-01-24 15:52:09 GMT 50.530174 12.646080 34,000 296 459 0
2020-01-24 15:52:06 GMT 50.527817 12.653937 34,000 296 459 0
2020-01-24 15:52:03 GMT 50.524933 12.663550 34,000 296 459 0
2020-01-24 15:51:59 GMT 50.521515 12.674956 34,000 296 459 64
2020-01-24 15:51:55 GMT 50.515228 12.696038 34,000 296 459 64
2020-01-24 15:51:49 GMT 50.509781 12.714145 34,000 296 459 64
2020-01-24 15:51:46 GMT 50.509781 12.714145 34,000 296 459 64
2020-01-24 15:51:43 GMT 50.506165 12.726143 34,000 296 459 64
2020-01-24 15:51:39 GMT 50.502754 12.737608 34,000 296 459 0
2020-01-24 15:51:35 GMT 50.499123 12.749634 34,000 296 460 0
2020-01-24 15:51:32 GMT 50.496780 12.757512 34,000 296 460 0
2020-01-24 15:51:29 GMT 50.494263 12.765969 34,000 296 460 0
2020-01-24 15:51:26 GMT 50.491013 12.776810 34,000 296 460 0
2020-01-24 15:51:23 GMT 50.488323 12.785859 34,000 296 460 0
2020-01-24 15:51:19 GMT 50.484692 12.797885 34,000 296 460 0
2020-01-24 15:51:15 GMT 50.481628 12.808179 34,000 296 460 0
2020-01-24 15:51:12 GMT 50.479111 12.816636 34,000 296 460 0
2020-01-24 15:51:09 GMT 50.476227 12.826249 34,000 296 460 0
2020-01-24 15:51:06 GMT 50.472931 12.837091 34,000 296 460 0
2020-01-24 15:51:03 GMT 50.468628 12.851546 34,000 296 459 0
2020-01-24 15:50:57 GMT 50.465557 12.861798 34,000 296 459 0
2020-01-24 15:50:54 GMT 50.462814 12.870845 34,000 296 459 0
2020-01-24 15:50:51 GMT 50.459930 12.880458 34,000 296 459 0
2020-01-24 15:50:48 GMT 50.453796 12.900985 34,000 296 459 0
2020-01-24 15:50:44 GMT 50.453796 12.900985 34,000 296 459 0
2020-01-24 15:50:41 GMT 50.451080 12.909975 34,000 296 459 0
2020-01-24 15:50:37 GMT 50.447823 12.920813 34,000 296 459 0
2020-01-24 15:50:34 GMT 50.444733 12.931053 34,000 296 458 64
2020-01-24 15:50:31 GMT 50.442375 12.938851 34,000 296 459 0
2020-01-24 15:50:28 GMT 50.438599 12.951435 34,000 296 459 0
2020-01-24 15:50:24 GMT 50.431156 12.976115 34,000 296 458 0
2020-01-24 15:50:20 GMT 50.431156 12.976115 34,000 296 458 0
2020-01-24 15:50:17 GMT 50.429340 12.982054 34,000 296 459 0
2020-01-24 15:50:14 GMT 50.425709 12.994080 34,000 296 459 0
2020-01-24 15:50:10 GMT 50.422077 13.006105 34,000 296 459 0
2020-01-24 15:50:07 GMT 50.416809 13.023425 34,000 296 458 0
2020-01-24 15:50:03 GMT 50.413700 13.033645 34,000 296 458 0
2020-01-24 15:50:00 GMT 50.413700 13.033645 34,000 296 458 64
2020-01-24 15:49:57 GMT 50.410812 13.043221 34,000 296 459 0
2020-01-24 15:49:54 GMT 50.408627 13.050422 34,000 296 458 64
2020-01-24 15:49:51 GMT 50.401363 13.074324 34,000 296 458 0
2020-01-24 15:49:47 GMT 50.401363 13.074324 34,000 296 458 0
2020-01-24 15:49:44 GMT 50.398804 13.082713 34,000 296 458 0
2020-01-24 15:49:40 GMT 50.396290 13.091101 34,000 296 458 0
2020-01-24 15:49:37 GMT 50.392456 13.103654 34,000 296 458 0
2020-01-24 15:49:34 GMT 50.390259 13.110809 34,000 296 459 0
2020-01-24 15:49:30 GMT 50.387165 13.121016 34,000 296 459 0
2020-01-24 15:49:27 GMT 50.383533 13.132968 34,000 296 459 0
2020-01-24 15:49:24 GMT 50.378086 13.150932 34,000 296 459 0
2020-01-24 15:49:21 GMT 50.372772 13.168343 34,000 296 459 0
2020-01-24 15:49:16 GMT 50.371525 13.172533 34,000 296 458 0
2020-01-24 15:49:10 GMT 50.368423 13.182726 34,000 296 459 0
2020-01-24 15:49:06 GMT 50.364395 13.195881 34,000 296 459 0
2020-01-24 15:49:03 GMT 50.362026 13.203636 34,000 296 459 0
2020-01-24 15:49:00 GMT 50.359634 13.211421 34,000 296 459 0
2020-01-24 15:48:56 GMT 50.350525 13.241344 34,000 296 458 0
2020-01-24 15:48:51 GMT 50.350525 13.241344 34,000 296 458 0
2020-01-24 15:48:45 GMT 50.345078 13.259269 34,000 296 458 0
2020-01-24 15:48:42 GMT 50.341782 13.270039 34,000 296 458 0
2020-01-24 15:48:39 GMT 50.340099 13.275344 34,000 296 458 0
2020-01-24 15:48:36 GMT 50.337170 13.284920 34,000 296 458 0
2020-01-24 15:48:33 GMT 50.333534 13.296872 34,000 296 458 0
2020-01-24 15:48:30 GMT 50.331528 13.303431 34,000 296 458 0
2020-01-24 15:48:26 GMT 50.327133 13.317743 34,000 296 458 0
2020-01-24 15:48:23 GMT 50.324570 13.326127 34,000 296 458 0
2020-01-24 15:48:20 GMT 50.322372 13.333282 34,000 296 458 0
2020-01-24 15:48:16 GMT 50.318172 13.346978 34,000 296 458 0
2020-01-24 15:48:12 GMT 50.311798 13.367904 34,000 296 458 0
2020-01-24 15:48:09 GMT 50.311798 13.367904 34,000 296 458 0
2020-01-24 15:48:06 GMT 50.306118 13.386395 34,000 296 458 0
2020-01-24 15:48:02 GMT 50.306118 13.386395 34,000 296 459 0
2020-01-24 15:47:59 GMT 50.303375 13.395297 34,000 296 458 0
2020-01-24 15:47:55 GMT 50.296783 13.416764 34,000 296 458 0
2020-01-24 15:47:52 GMT 50.296783 13.416764 34,000 296 458 0
2020-01-24 15:47:49 GMT 50.294014 13.425738 34,000 296 458 0
2020-01-24 15:47:45 GMT 50.290512 13.437002 34,000 296 458 0
2020-01-24 15:47:42 GMT 50.288147 13.444742 34,000 296 458 0
2020-01-24 15:47:39 GMT 50.284653 13.456084 34,000 296 458 0
2020-01-24 15:47:36 GMT 50.281311 13.466781 34,000 296 458 0
2020-01-24 15:47:32 GMT 50.277649 13.478707 34,000 296 458 0
2020-01-24 15:47:28 GMT 50.275085 13.487019 34,000 296 458 0
2020-01-24 15:47:24 GMT 50.268814 13.507257 34,000 296 458 0
2020-01-24 15:47:21 GMT 50.265884 13.516798 34,000 296 458 0
2020-01-24 15:47:18 GMT 50.261444 13.531109 34,000 296 458 0
2020-01-24 15:47:14 GMT 50.261444 13.531109 34,000 296 458 0
2020-01-24 15:47:11 GMT 50.258881 13.539421 34,000 296 458 0
2020-01-24 15:47:08 GMT 50.257050 13.545348 34,000 296 459 0
2020-01-24 15:47:05 GMT 50.252815 13.559059 34,000 296 459 0
2020-01-24 15:47:02 GMT 50.251144 13.564429 34,000 296 459 0
2020-01-24 15:46:58 GMT 50.245785 13.581700 34,000 296 459 0
2020-01-24 15:46:55 GMT 50.244507 13.585896 34,000 296 458 0
2020-01-24 15:46:52 GMT 50.241577 13.595436 34,000 296 458 0
2020-01-24 15:46:48 GMT 50.237358 13.609091 34,000 296 458 0
2020-01-24 15:46:44 GMT 50.232376 13.625143 34,000 296 458 0
2020-01-24 15:46:41 GMT 50.228302 13.638225 34,000 296 458 0
2020-01-24 15:46:37 GMT 50.228302 13.638225 34,000 296 458 0
2020-01-24 15:46:32 GMT 50.222763 13.656006 34,000 296 458 0
2020-01-24 15:46:28 GMT 50.219055 13.667932 34,000 296 458 0
2020-01-24 15:46:25 GMT 50.217388 13.673228 34,000 296 457 0
2020-01-24 15:46:21 GMT 50.213516 13.685712 34,000 296 457 0
2020-01-24 15:46:18 GMT 50.209808 13.697566 34,000 296 457 0
2020-01-24 15:46:14 GMT 50.203003 13.719474 34,000 296 456 0
2020-01-24 15:46:10 GMT 50.203003 13.719474 34,000 296 456 0
2020-01-24 15:46:07 GMT 50.199509 13.730670 34,000 296 456 0
2020-01-24 15:46:03 GMT 50.192917 13.751992 34,000 296 455 0
2020-01-24 15:45:59 GMT 50.190308 13.760231 34,000 296 455 0
2020-01-24 15:45:56 GMT 50.190308 13.760231 34,000 296 455 0
2020-01-24 15:45:52 GMT 50.186646 13.772013 34,000 296 454 0
2020-01-24 15:45:49 GMT 50.183544 13.782052 34,000 296 454 0
2020-01-24 15:45:46 GMT 50.177261 13.802020 34,000 296 453 0
2020-01-24 15:45:43 GMT 50.177261 13.802020 34,000 296 454 0
2020-01-24 15:45:37 GMT 50.172684 13.816753 34,000 297 455 0
2020-01-24 15:45:34 GMT 50.166779 13.835546 34,000 297 455 0
2020-01-24 15:45:27 GMT 50.163620 13.845594 34,000 297 455 0
2020-01-24 15:45:24 GMT 50.160686 13.855022 34,000 297 455 0
2020-01-24 15:45:21 GMT 50.157337 13.865563 34,000 297 455 0
2020-01-24 15:45:17 GMT 50.151798 13.883230 34,000 297 455 0
2020-01-24 15:45:11 GMT 50.148697 13.893224 34,000 297 455 0
2020-01-24 15:45:08 GMT 50.146088 13.901464 34,000 297 455 0
2020-01-24 15:45:04 GMT 50.142067 13.914407 34,000 297 455 0
2020-01-24 15:45:00 GMT 50.138351 13.926183 34,000 297 455 0
2020-01-24 15:44:56 GMT 50.135376 13.935579 34,000 297 455 0
2020-01-24 15:44:51 GMT 50.130249 13.951986 34,000 297 455 0
2020-01-24 15:44:48 GMT 50.127823 13.959615 34,000 297 455 0
2020-01-24 15:44:42 GMT 50.121910 13.978395 34,000 297 455 0
2020-01-24 15:44:39 GMT 50.119171 13.987258 34,000 297 455 0
2020-01-24 15:44:36 GMT 50.116928 13.994269 34,000 297 455 0
2020-01-24 15:44:33 GMT 50.113220 14.006051 34,000 297 455 0
2020-01-24 15:44:30 GMT 50.107681 14.023614 34,000 297 455 0
2020-01-24 15:44:27 GMT 50.107681 14.023614 34,000 297 455 0
2020-01-24 15:44:21 GMT 50.101986 14.041789 34,000 297 455 0
2020-01-24 15:44:18 GMT 50.096970 14.057657 34,000 297 455 0
2020-01-24 15:44:15 GMT 50.093468 14.068810 34,000 297 455 0
2020-01-24 15:44:12 GMT 50.093468 14.068810 34,000 297 455 0
2020-01-24 15:44:09 GMT 50.090286 14.078835 34,000 297 455 0
2020-01-24 15:44:06 GMT 50.088455 14.084689 34,000 297 455 0
2020-01-24 15:44:02 GMT 50.085480 14.094086 34,000 297 454 0
2020-01-24 15:43:59 GMT 50.082294 14.104070 34,000 297 455 0
2020-01-24 15:43:56 GMT 50.078384 14.116420 34,000 297 457 0
2020-01-24 15:43:51 GMT 50.074100 14.129903 34,000 297 457 0
2020-01-24 15:43:48 GMT 50.070747 14.140518 34,000 297 457 0
2020-01-24 15:43:45 GMT 50.069260 14.145194 34,000 297 457 0
2020-01-24 15:43:42 GMT 50.063828 14.162244 34,000 297 457 0
2020-01-24 15:43:35 GMT 50.059902 14.174590 34,000 297 457 0
2020-01-24 15:43:31 GMT 50.055805 14.187507 34,000 297 457 0
2020-01-24 15:43:27 GMT 50.052082 14.199309 34,000 297 457 0
2020-01-24 15:43:21 GMT 50.045883 14.218694 34,000 297 457 0
2020-01-24 15:43:18 GMT 50.044586 14.222841 34,000 297 457 0
2020-01-24 15:43:15 GMT 50.040298 14.236330 34,000 297 457 0
2020-01-24 15:43:11 GMT 50.037090 14.246373 34,000 297 457 0
2020-01-24 15:43:07 GMT 50.033936 14.256351 34,000 297 457 0
2020-01-24 15:43:04 GMT 50.025330 14.283383 34,000 297 457 0
2020-01-24 15:42:59 GMT 50.025330 14.283383 34,000 297 457 0
2020-01-24 15:42:54 GMT 50.021404 14.295737 34,000 297 457 0
2020-01-24 15:42:49 GMT 50.013702 14.319811 34,000 297 457 0
2020-01-24 15:42:46 GMT 50.013702 14.319811 34,000 297 457 0
2020-01-24 15:42:43 GMT 50.006973 14.340917 34,000 297 456 0
2020-01-24 15:42:39 GMT 50.006973 14.340917 34,000 297 456 0
2020-01-24 15:42:36 GMT 50.001709 14.357324 34,000 297 455 0
2020-01-24 15:42:30 GMT 49.998547 14.367296 34,000 297 456 0
2020-01-24 15:42:24 GMT 49.994030 14.381326 34,000 297 455 0
2020-01-24 15:42:21 GMT 49.990814 14.391295 34,000 297 456 0
2020-01-24 15:42:18 GMT 49.987106 14.403004 34,000 297 456 0
2020-01-24 15:42:15 GMT 49.984451 14.411171 34,000 297 455 0
2020-01-24 15:42:11 GMT 49.981110 14.421724 34,000 297 455 0
2020-01-24 15:42:08 GMT 49.978294 14.430468 34,000 297 455 0
2020-01-24 15:42:05 GMT 49.973236 14.446226 34,000 297 455 0
2020-01-24 15:42:02 GMT 49.973236 14.446226 34,000 297 455 0
2020-01-24 15:41:59 GMT 49.969482 14.457936 34,000 297 455 0
2020-01-24 15:41:53 GMT 49.964264 14.474270 34,000 297 455 0
2020-01-24 15:41:49 GMT 49.960701 14.485399 34,000 297 453 0
2020-01-24 15:41:46 GMT 49.958466 14.492377 34,000 297 454 0
2020-01-24 15:41:43 GMT 49.950226 14.517987 34,000 297 454 0
2020-01-24 15:41:39 GMT 49.950226 14.517987 34,000 297 454 0
2020-01-24 15:41:36 GMT 49.947571 14.526153 34,000 297 454 0
2020-01-24 15:41:32 GMT 49.944221 14.536619 34,000 297 454 0
2020-01-24 15:41:29 GMT 49.938541 14.554138 34,000 297 454 0
2020-01-24 15:41:21 GMT 49.930847 14.577990 34,000 297 454 0
2020-01-24 15:41:17 GMT 49.930847 14.577990 34,000 297 454 0
2020-01-24 15:41:13 GMT 49.926529 14.591403 34,000 297 454 0
2020-01-24 15:41:10 GMT 49.923923 14.599568 34,000 297 454 0
2020-01-24 15:41:07 GMT 49.921463 14.607118 34,000 297 454 0
2020-01-24 15:41:04 GMT 49.915100 14.626850 34,000 297 454 0
2020-01-24 15:40:58 GMT 49.909103 14.645498 34,000 297 453 0
2020-01-24 15:40:54 GMT 49.909103 14.645498 34,000 297 453 0
2020-01-24 15:40:51 GMT 49.901184 14.669856 34,000 297 453 0
2020-01-24 15:40:47 GMT 49.897430 14.681493 34,000 297 454 0
2020-01-24 15:40:42 GMT 49.897430 14.681493 34,000 297 454 0
2020-01-24 15:40:37 GMT 49.890499 14.702973 34,000 297 454 0
2020-01-24 15:40:34 GMT 49.890499 14.702973 34,000 297 454 0
2020-01-24 15:40:31 GMT 49.883881 14.723270 34,000 297 454 0
2020-01-24 15:40:28 GMT 49.883881 14.723270 34,000 297 454 0
2020-01-24 15:40:24 GMT 49.880859 14.732521 34,000 297 454 0
2020-01-24 15:40:21 GMT 49.878395 14.740089 34,000 297 454 0
2020-01-24 15:40:17 GMT 49.870480 14.764437 34,000 297 454 0
2020-01-24 15:40:14 GMT 49.870480 14.764437 34,000 297 454 0
2020-01-24 15:40:11 GMT 49.863876 14.784779 34,000 297 454 0
2020-01-24 15:40:07 GMT 49.863876 14.784779 34,000 297 454 0
2020-01-24 15:40:03 GMT 49.861076 14.793462 34,000 297 454 0
2020-01-24 15:40:00 GMT 49.855396 14.810906 34,000 297 455 0
2020-01-24 15:39:57 GMT 49.851837 14.821930 34,000 297 454 0
2020-01-24 15:39:54 GMT 49.851837 14.821930 34,000 297 454 0
2020-01-24 15:39:51 GMT 49.849548 14.828869 34,000 297 454 0
2020-01-24 15:39:48 GMT 49.844284 14.845131 34,000 297 454 0
2020-01-24 15:39:45 GMT 49.844284 14.845131 34,000 297 454 0
2020-01-24 15:39:41 GMT 49.837292 14.866580 34,000 297 454 0
2020-01-24 15:39:35 GMT 49.835011 14.873484 34,000 297 454 0
2020-01-24 15:39:32 GMT 49.831787 14.883367 34,000 297 454 0
2020-01-24 15:39:29 GMT 49.828213 14.894343 34,000 297 454 0
2020-01-24 15:39:26 GMT 49.826111 14.900713 34,000 297 453 0
2020-01-24 15:39:23 GMT 49.820251 14.918691 34,000 297 454 0
2020-01-24 15:39:17 GMT 49.816853 14.929084 34,000 297 454 0
2020-01-24 15:39:14 GMT 49.814392 14.936636 34,000 297 454 0
2020-01-24 15:39:11 GMT 49.810959 14.947044 34,000 297 454 0
2020-01-24 15:39:08 GMT 49.809265 14.952244 34,000 297 453 0
2020-01-24 15:39:05 GMT 49.802994 14.971330 34,000 297 453 0
2020-01-24 15:39:01 GMT 49.799397 14.982308 34,000 297 453 0
2020-01-24 15:38:58 GMT 49.799397 14.982308 34,000 297 453 0
2020-01-24 15:38:55 GMT 49.796951 14.989833 34,000 297 453 0
2020-01-24 15:38:52 GMT 49.793152 15.001397 34,000 297 453 0
2020-01-24 15:38:48 GMT 49.789898 15.011184 34,000 297 453 0
2020-01-24 15:38:43 GMT 49.785187 15.025611 34,000 297 453 0
2020-01-24 15:38:39 GMT 49.777981 15.047558 34,000 297 453 0
2020-01-24 15:38:36 GMT 49.777981 15.047558 34,000 297 453 0
2020-01-24 15:38:32 GMT 49.775143 15.056243 34,000 297 453 0
2020-01-24 15:38:29 GMT 49.772118 15.065448 34,000 297 453 0
2020-01-24 15:38:26 GMT 49.768524 15.076422 34,000 297 453 0
2020-01-24 15:38:23 GMT 49.766808 15.081630 34,000 297 453 0
2020-01-24 15:38:20 GMT 49.763580 15.091384 34,000 297 453 0
2020-01-24 15:38:17 GMT 49.760338 15.101228 34,000 297 453 0
2020-01-24 15:38:14 GMT 49.754105 15.120223 34,000 297 453 0
2020-01-24 15:38:11 GMT 49.751450 15.128318 34,000 297 453 0
2020-01-24 15:38:03 GMT 49.747070 15.141610 34,000 297 454 0
2020-01-24 15:38:00 GMT 49.744629 15.149062 34,000 297 454 0
2020-01-24 15:37:57 GMT 49.741562 15.158314 34,000 297 454 0
2020-01-24 15:37:53 GMT 49.735107 15.177901 34,000 297 454 0
2020-01-24 15:37:50 GMT 49.732040 15.187153 34,000 297 454 0
2020-01-24 15:37:47 GMT 49.732040 15.187153 34,000 297 454 0
2020-01-24 15:37:43 GMT 49.728077 15.199214 34,000 297 454 0
2020-01-24 15:37:39 GMT 49.724442 15.210210 34,000 297 454 0
2020-01-24 15:37:36 GMT 49.718163 15.229204 34,000 298 453 0
2020-01-24 15:37:33 GMT 49.718163 15.229204 34,000 298 453 0
2020-01-24 15:37:29 GMT 49.715092 15.238408 34,000 298 453 0
2020-01-24 15:37:26 GMT 49.712017 15.247613 34,000 298 453 0
2020-01-24 15:37:23 GMT 49.705353 15.267744 34,000 298 453 0
2020-01-24 15:37:19 GMT 49.705353 15.267744 34,000 298 453 0
2020-01-24 15:37:16 GMT 49.702473 15.276415 34,000 298 453 0
2020-01-24 15:37:13 GMT 49.699028 15.286733 34,000 298 453 0
2020-01-24 15:37:10 GMT 49.696930 15.293041 34,000 298 453 0
2020-01-24 15:37:06 GMT 49.689240 15.316098 34,000 298 452 0
2020-01-24 15:37:03 GMT 49.687160 15.322439 34,000 298 453 0
2020-01-24 15:37:00 GMT 49.683517 15.333300 34,000 298 453 0
2020-01-24 15:36:53 GMT 49.679897 15.344263 34,000 298 453 0
2020-01-24 15:36:50 GMT 49.677383 15.351731 34,000 298 453 0
2020-01-24 15:36:47 GMT 49.674541 15.360371 34,000 298 453 0
2020-01-24 15:36:44 GMT 49.671295 15.370162 34,000 298 453 0
2020-01-24 15:36:41 GMT 49.669373 15.375872 34,000 298 453 0
2020-01-24 15:36:38 GMT 49.666306 15.385052 34,000 298 453 0
2020-01-24 15:36:35 GMT 49.658295 15.409193 34,000 298 453 0
2020-01-24 15:36:30 GMT 49.658295 15.409193 34,000 298 453 0
2020-01-24 15:36:27 GMT 49.655037 15.418940 34,000 298 453 0
2020-01-24 15:36:21 GMT 49.650055 15.433935 34,000 298 453 0
2020-01-24 15:36:18 GMT 49.646240 15.445367 34,000 298 453 0
2020-01-24 15:36:15 GMT 49.644104 15.451692 34,000 298 453 0
2020-01-24 15:36:11 GMT 49.640305 15.463185 34,000 298 452 0
2020-01-24 15:36:08 GMT 49.637814 15.470606 34,000 298 453 0
2020-01-24 15:36:05 GMT 49.634949 15.479230 34,000 298 453 0
2020-01-24 15:36:02 GMT 49.632042 15.487828 34,000 298 453 0
2020-01-24 15:35:59 GMT 49.629017 15.497032 34,000 298 453 0
2020-01-24 15:35:56 GMT 49.625942 15.506237 34,000 298 453 0
2020-01-24 15:35:53 GMT 49.622314 15.517104 34,000 298 453 0
2020-01-24 15:35:50 GMT 49.620590 15.522271 34,000 298 453 0
2020-01-24 15:35:47 GMT 49.617516 15.531402 34,000 298 453 0
2020-01-24 15:35:44 GMT 49.614815 15.539419 34,000 298 453 0
2020-01-24 15:35:40 GMT 49.611000 15.550925 34,000 298 453 0
2020-01-24 15:35:37 GMT 49.607346 15.561772 34,000 298 453 0
2020-01-24 15:35:34 GMT 49.605228 15.568072 34,000 298 453 0
2020-01-24 15:35:31 GMT 49.601166 15.580059 34,000 298 453 0
2020-01-24 15:35:28 GMT 49.599453 15.585220 34,000 298 453 0
2020-01-24 15:35:25 GMT 49.596176 15.594948 34,000 298 453 0
2020-01-24 15:35:22 GMT 49.593262 15.603555 34,000 298 453 0
2020-01-24 15:35:19 GMT 49.589996 15.613307 34,000 298 453 0
2020-01-24 15:35:14 GMT 49.585739 15.625883 34,000 298 453 0
2020-01-24 15:35:11 GMT 49.583256 15.633322 34,000 298 453 0
2020-01-24 15:35:08 GMT 49.580181 15.642453 34,000 298 453 0
2020-01-24 15:35:05 GMT 49.576126 15.654506 34,000 298 453 0
2020-01-24 15:35:02 GMT 49.573246 15.663089 34,000 298 453 0
2020-01-24 15:34:59 GMT 49.571289 15.668805 34,000 298 453 0
2020-01-24 15:34:56 GMT 49.567844 15.679049 34,000 298 453 0
2020-01-24 15:34:53 GMT 49.565891 15.684765 34,000 298 453 0
2020-01-24 15:34:50 GMT 49.562447 15.695083 34,000 298 453 0
2020-01-24 15:34:47 GMT 49.556114 15.713938 34,000 298 453 0
2020-01-24 15:34:44 GMT 49.556114 15.713938 34,000 298 453 0
2020-01-24 15:34:39 GMT 49.551880 15.726483 34,000 298 452 0
2020-01-24 15:34:36 GMT 49.545914 15.744203 34,000 298 452 0
2020-01-24 15:34:33 GMT 49.545914 15.744203 34,000 298 452 0
2020-01-24 15:34:28 GMT 49.540878 15.759020 34,000 298 453 0
2020-01-24 15:34:23 GMT 49.536469 15.772136 34,000 298 453 0
2020-01-24 15:34:20 GMT 49.533352 15.781266 34,000 298 453 0
2020-01-24 15:34:17 GMT 49.531071 15.788096 34,000 298 453 0
2020-01-24 15:34:13 GMT 49.526413 15.801829 34,000 298 453 0
2020-01-24 15:34:09 GMT 49.518906 15.823999 34,000 298 452 0
2020-01-24 15:34:06 GMT 49.518906 15.823999 34,000 298 452 0
2020-01-24 15:34:03 GMT 49.516571 15.830865 34,000 298 452 0
2020-01-24 15:33:59 GMT 49.512493 15.842805 34,000 298 452 0
2020-01-24 15:33:56 GMT 49.510586 15.848446 34,000 298 452 0
2020-01-24 15:33:53 GMT 49.507095 15.858690 34,000 298 452 0
2020-01-24 15:33:50 GMT 49.504578 15.866137 34,000 298 452 0
2020-01-24 15:33:47 GMT 49.501877 15.874088 34,000 298 452 0
2020-01-24 15:33:44 GMT 49.493919 15.897365 34,000 298 452 0
2020-01-24 15:33:38 GMT 49.490662 15.907047 34,000 298 452 0
2020-01-24 15:33:32 GMT 49.483864 15.926910 34,000 298 452 0
2020-01-24 15:33:29 GMT 49.483864 15.926910 34,000 298 452 0
2020-01-24 15:33:26 GMT 49.480957 15.935452 34,000 298 451 0
2020-01-24 15:33:22 GMT 49.476929 15.947398 34,000 298 452 0
2020-01-24 15:33:19 GMT 49.474602 15.954153 34,000 298 452 0
2020-01-24 15:33:16 GMT 49.472076 15.961545 34,000 298 452 0
2020-01-24 15:33:12 GMT 49.467865 15.974049 34,000 298 452 0
2020-01-24 15:33:09 GMT 49.461845 15.991640 34,000 298 451 0
2020-01-24 15:33:01 GMT 49.452583 16.018883 34,000 298 450 0
2020-01-24 15:32:57 GMT 49.452583 16.018883 34,000 298 451 0
2020-01-24 15:32:54 GMT 49.450253 16.025639 34,000 298 451 0
2020-01-24 15:32:51 GMT 49.447357 16.034185 34,000 298 451 0
2020-01-24 15:32:48 GMT 49.444435 16.042637 34,000 298 451 0
2020-01-24 15:32:45 GMT 49.441364 16.051693 34,000 298 451 0
2020-01-24 15:32:41 GMT 49.437080 16.064163 34,000 298 451 0
2020-01-24 15:32:36 GMT 49.429916 16.085140 34,000 298 452 0
2020-01-24 15:32:33 GMT 49.427170 16.093069 34,000 298 451 0
2020-01-24 15:32:27 GMT 49.423489 16.103861 34,000 298 451 0
2020-01-24 15:32:24 GMT 49.421951 16.108341 34,000 298 452 0
2020-01-24 15:32:21 GMT 49.418041 16.119690 34,000 298 452 0
2020-01-24 15:32:17 GMT 49.410828 16.140606 34,000 298 452 0
2020-01-24 15:32:14 GMT 49.407936 16.149107 34,000 298 452 0
2020-01-24 15:32:10 GMT 49.407936 16.149107 34,000 298 451 0
2020-01-24 15:32:06 GMT 49.403656 16.161539 34,000 298 451 0
2020-01-24 15:32:03 GMT 49.400166 16.171730 34,000 298 451 0
2020-01-24 15:32:00 GMT 49.398010 16.178001 34,000 298 451 0
2020-01-24 15:31:57 GMT 49.395508 16.185320 34,000 298 451 0
2020-01-24 15:31:54 GMT 49.392017 16.195511 34,000 298 451 0
2020-01-24 15:31:50 GMT 49.388306 16.206312 34,000 298 451 0
2020-01-24 15:31:46 GMT 49.384048 16.218779 34,000 298 451 0
2020-01-24 15:31:43 GMT 49.381916 16.225000 34,000 298 451 0
2020-01-24 15:31:40 GMT 49.378426 16.235191 34,000 298 451 0
2020-01-24 15:31:36 GMT 49.374710 16.245892 34,000 298 451 0
2020-01-24 15:31:30 GMT 49.368694 16.263453 34,000 298 450 0
2020-01-24 15:31:27 GMT 49.365993 16.271330 34,000 298 450 0
2020-01-24 15:31:24 GMT 49.362457 16.281448 34,000 298 450 0
2020-01-24 15:31:19 GMT 49.357224 16.296740 34,000 298 451 0
2020-01-24 15:31:16 GMT 49.354889 16.303499 34,000 298 451 0
2020-01-24 15:31:12 GMT 49.350998 16.314768 34,000 298 450 0
2020-01-24 15:31:09 GMT 49.344772 16.332796 34,000 298 450 0
2020-01-24 15:31:06 GMT 49.344772 16.332796 34,000 298 450 0
2020-01-24 15:31:02 GMT 49.338345 16.351341 34,000 298 450 0
2020-01-24 15:30:55 GMT 49.334061 16.363703 34,000 298 450 0
2020-01-24 15:30:52 GMT 49.331314 16.371580 34,000 298 450 0
2020-01-24 15:30:49 GMT 49.328796 16.378925 34,000 298 450 0
2020-01-24 15:30:46 GMT 49.326050 16.386812 34,000 298 450 0
2020-01-24 15:30:42 GMT 49.322746 16.396372 34,000 299 450 0
2020-01-24 15:30:39 GMT 49.314182 16.421091 34,000 298 450 0
2020-01-24 15:30:34 GMT 49.314182 16.421091 34,000 298 450 0
2020-01-24 15:30:30 GMT 49.309662 16.433998 34,000 298 449 0
2020-01-24 15:30:27 GMT 49.307327 16.440687 34,000 298 449 0
2020-01-24 15:30:21 GMT 49.301659 16.457014 34,000 298 449 0
2020-01-24 15:30:18 GMT 49.298962 16.464821 34,000 298 450 0
2020-01-24 15:30:15 GMT 49.295048 16.476095 34,000 298 450 0
2020-01-24 15:30:12 GMT 49.292721 16.482817 34,000 298 450 0
2020-01-24 15:30:09 GMT 49.289383 16.492310 34,000 298 450 0
2020-01-24 15:30:05 GMT 49.285858 16.502451 34,000 298 450 0
2020-01-24 15:30:02 GMT 49.283157 16.510338 34,000 298 450 0
2020-01-24 15:29:59 GMT 49.279827 16.519896 34,000 299 450 0
2020-01-24 15:29:56 GMT 49.276707 16.528858 34,000 299 450 0
2020-01-24 15:29:52 GMT 49.273170 16.538977 34,000 299 450 0
2020-01-24 15:29:49 GMT 49.269676 16.549095 34,000 299 450 0
2020-01-24 15:29:46 GMT 49.266933 16.556974 34,000 299 450 0
2020-01-24 15:29:43 GMT 49.264557 16.563698 34,000 299 450 0
2020-01-24 15:29:40 GMT 49.260452 16.575481 34,000 299 450 0
2020-01-24 15:29:37 GMT 49.258530 16.581045 34,000 299 450 0
2020-01-24 15:29:34 GMT 49.255573 16.589500 34,000 299 450 0
2020-01-24 15:29:31 GMT 49.252827 16.597378 34,000 299 450 0
2020-01-24 15:29:27 GMT 49.244019 16.622597 34,000 299 450 0
2020-01-24 15:29:22 GMT 49.244019 16.622597 34,000 299 450 0
2020-01-24 15:29:18 GMT 49.240082 16.633795 34,000 299 451 0
2020-01-24 15:29:15 GMT 49.236557 16.643866 34,000 299 451 0
2020-01-24 15:29:10 GMT 49.232620 16.655132 34,000 299 451 0
2020-01-24 15:29:07 GMT 49.228477 16.666910 34,000 299 451 0
2020-01-24 15:29:01 GMT 49.222569 16.683680 34,000 299 451 0
2020-01-24 15:28:57 GMT 49.218239 16.696037 34,000 299 451 0
2020-01-24 15:28:54 GMT 49.216656 16.700520 34,000 299 451 0
2020-01-24 15:28:51 GMT 49.213535 16.709482 34,000 299 451 0
2020-01-24 15:28:47 GMT 49.209366 16.721262 34,000 299 451 0
2020-01-24 15:28:44 GMT 49.205841 16.731403 34,000 299 451 0
2020-01-24 15:28:41 GMT 49.203461 16.738092 34,000 299 451 0
2020-01-24 15:28:38 GMT 49.200714 16.745981 34,000 299 451 0
2020-01-24 15:28:35 GMT 49.198128 16.753283 34,000 299 451 0
2020-01-24 15:28:32 GMT 49.191238 16.772882 34,000 299 451 0
2020-01-24 15:28:26 GMT 49.188259 16.781326 34,000 299 451 0
2020-01-24 15:28:23 GMT 49.185287 16.789785 34,000 299 451 0
2020-01-24 15:28:18 GMT 49.180763 16.802649 34,000 299 451 0
2020-01-24 15:28:15 GMT 49.178192 16.809927 34,000 299 451 0
2020-01-24 15:28:12 GMT 49.175034 16.818941 34,000 299 451 0
2020-01-24 15:28:08 GMT 49.170731 16.831266 34,000 299 451 0
2020-01-24 15:28:05 GMT 49.166985 16.841896 34,000 299 451 0
2020-01-24 15:28:01 GMT 49.160843 16.859295 34,000 299 451 0
2020-01-24 15:27:58 GMT 49.160843 16.859295 34,000 299 451 0
2020-01-24 15:27:54 GMT 49.153748 16.879507 34,000 299 451 0
2020-01-24 15:27:51 GMT 49.151573 16.885696 34,000 299 455 0
2020-01-24 15:27:48 GMT 49.151573 16.885696 34,000 299 451 0
2020-01-24 15:27:45 GMT 49.147797 16.896339 34,000 299 451 0
2020-01-24 15:27:40 GMT 49.140701 16.916479 34,000 299 451 0
2020-01-24 15:27:34 GMT 49.137497 16.925495 34,000 299 452 0
2020-01-24 15:27:30 GMT 49.133747 16.936148 34,000 299 452 0
2020-01-24 15:27:27 GMT 49.130768 16.944580 34,000 299 452 0
2020-01-24 15:27:23 GMT 49.125595 16.959158 34,000 299 453 0
2020-01-24 15:27:20 GMT 49.122803 16.966974 34,000 299 453 0
2020-01-24 15:27:16 GMT 49.120247 16.974237 34,000 299 453 0
2020-01-24 15:27:13 GMT 49.113262 16.993898 34,000 299 452 0
2020-01-24 15:27:07 GMT 49.110855 17.000639 34,000 299 454 0
2020-01-24 15:27:04 GMT 49.103668 17.020781 34,000 299 453 0
2020-01-24 15:27:01 GMT 49.103668 17.020781 34,000 299 453 0
2020-01-24 15:26:57 GMT 49.099686 17.032047 34,000 299 453 0
2020-01-24 15:26:52 GMT 49.095291 17.044373 34,000 299 454 0
2020-01-24 15:26:49 GMT 49.092499 17.052259 34,000 299 455 0
2020-01-24 15:26:45 GMT 49.089294 17.061205 34,000 299 455 0
2020-01-24 15:26:42 GMT 49.081467 17.083162 34,000 299 455 0
2020-01-24 15:26:39 GMT 49.078491 17.091557 34,000 299 455 0
2020-01-24 15:26:32 GMT 49.074875 17.101700 34,000 299 455 0
2020-01-24 15:26:29 GMT 49.072250 17.109037 34,000 299 455 0
2020-01-24 15:26:26 GMT 49.066864 17.124165 34,000 299 455 0
2020-01-24 15:26:20 GMT 49.063454 17.133757 34,000 299 455 0
2020-01-24 15:26:17 GMT 49.060410 17.142193 34,000 299 455 0
2020-01-24 15:26:13 GMT 49.055237 17.156771 34,000 299 455 0
2020-01-24 15:26:10 GMT 49.053635 17.161278 34,000 299 455 0
2020-01-24 15:26:07 GMT 49.050182 17.170835 34,000 299 455 0
2020-01-24 15:26:04 GMT 49.047810 17.177559 34,000 299 455 0
2020-01-24 15:26:00 GMT 49.043198 17.190434 34,000 299 455 0
2020-01-24 15:25:57 GMT 49.039757 17.200035 34,000 299 455 0
2020-01-24 15:25:53 GMT 49.036377 17.209520 34,000 299 454 0
2020-01-24 15:25:49 GMT 49.031937 17.221914 34,000 299 454 0
2020-01-24 15:25:46 GMT 49.029922 17.227478 34,000 299 455 0
2020-01-24 15:25:43 GMT 49.026115 17.238127 34,000 299 455 0
2020-01-24 15:25:39 GMT 49.022278 17.248817 34,000 299 455 0
2020-01-24 15:25:36 GMT 49.019276 17.257210 34,000 299 455 0
2020-01-24 15:25:33 GMT 49.016853 17.264004 34,000 299 454 0
2020-01-24 15:25:30 GMT 49.009636 17.284168 34,000 299 455 0
2020-01-24 15:25:26 GMT 49.009636 17.284168 34,000 299 455 0
2020-01-24 15:25:23 GMT 49.005589 17.295372 34,000 299 455 0
2020-01-24 15:25:20 GMT 49.003784 17.300440 34,000 299 455 0
2020-01-24 15:25:17 GMT 48.996552 17.320650 34,000 299 454 0
2020-01-24 15:25:13 GMT 48.996552 17.320650 34,000 299 454 0
2020-01-24 15:25:09 GMT 48.989059 17.341341 34,000 299 454 0
2020-01-24 15:25:01 GMT 48.982819 17.358681 34,000 299 454 0
2020-01-24 15:24:57 GMT 48.979378 17.368229 34,000 299 454 0
2020-01-24 15:24:53 GMT 48.975952 17.377695 34,000 299 454 0
2020-01-24 15:24:50 GMT 48.972534 17.387238 34,000 299 454 0
2020-01-24 15:24:45 GMT 48.968487 17.398369 34,000 299 454 0
2020-01-24 15:24:42 GMT 48.964233 17.410091 34,000 299 454 0
2020-01-24 15:24:39 GMT 48.961967 17.416222 34,000 299 454 0
2020-01-24 15:24:35 GMT 48.958145 17.426851 34,000 299 454 0
2020-01-24 15:24:32 GMT 48.955078 17.435230 34,000 299 454 0
2020-01-24 15:24:28 GMT 48.949818 17.449759 34,000 299 454 0
2020-01-24 15:24:25 GMT 48.946793 17.458050 34,000 299 454 0
2020-01-24 15:24:21 GMT 48.943768 17.466455 34,000 299 454 0
2020-01-24 15:24:17 GMT 48.939297 17.478670 34,000 299 454 0
2020-01-24 15:24:14 GMT 48.935246 17.489874 34,000 299 454 0
2020-01-24 15:24:11 GMT 48.932407 17.497679 34,000 299 454 0
2020-01-24 15:24:08 GMT 48.930588 17.502701 34,000 299 454 0
2020-01-24 15:24:05 GMT 48.927338 17.511574 34,000 299 454 0
2020-01-24 15:24:02 GMT 48.924545 17.519390 34,000 299 454 0
2020-01-24 15:23:59 GMT 48.921467 17.527746 34,000 299 454 0
2020-01-24 15:23:55 GMT 48.917416 17.538877 34,000 299 453 0
2020-01-24 15:23:50 GMT 48.908295 17.563957 34,000 299 454 0
2020-01-24 15:23:47 GMT 48.908295 17.563957 34,000 299 453 0
2020-01-24 15:23:39 GMT 48.901016 17.584042 34,000 299 453 0
2020-01-24 15:23:34 GMT 48.895538 17.599012 34,000 299 453 0
2020-01-24 15:23:30 GMT 48.891678 17.609606 34,000 299 453 0
2020-01-24 15:23:27 GMT 48.889439 17.615709 34,000 299 453 64
2020-01-24 15:23:24 GMT 48.886002 17.625170 34,000 299 453 0
2020-01-24 15:23:20 GMT 48.881973 17.636295 34,000 299 454 0
2020-01-24 15:23:17 GMT 48.878548 17.645779 34,000 299 454 0
2020-01-24 15:23:14 GMT 48.876125 17.652500 34,000 299 454 0
2020-01-24 15:23:11 GMT 48.871658 17.664715 34,000 299 454 0
2020-01-24 15:23:07 GMT 48.867653 17.675844 34,000 299 453 0
2020-01-24 15:23:04 GMT 48.865402 17.682001 34,000 299 454 0
2020-01-24 15:23:01 GMT 48.862019 17.691530 34,000 299 454 0
2020-01-24 15:22:58 GMT 48.859406 17.698763 34,000 299 454 0
2020-01-24 15:22:55 GMT 48.855789 17.708834 34,000 299 453 0
2020-01-24 15:22:52 GMT 48.853222 17.716105 34,000 299 455 0
2020-01-24 15:22:48 GMT 48.849380 17.726723 34,000 299 454 0
2020-01-24 15:22:44 GMT 48.845589 17.737354 34,000 299 454 0
2020-01-24 15:22:38 GMT 48.839447 17.754681 34,000 299 454 0
2020-01-24 15:22:35 GMT 48.836655 17.762569 34,000 299 454 0
2020-01-24 15:22:32 GMT 48.834229 17.769258 34,000 299 454 0
2020-01-24 15:22:29 GMT 48.831249 17.777685 34,000 299 454 0
2020-01-24 15:22:26 GMT 48.828278 17.786091 34,000 299 455 0
2020-01-24 15:22:23 GMT 48.824295 17.797289 34,000 299 455 0
2020-01-24 15:22:17 GMT 48.817932 17.815176 34,000 299 455 0
2020-01-24 15:22:14 GMT 48.816120 17.820257 34,000 299 455 0
2020-01-24 15:22:08 GMT 48.810379 17.836515 34,000 299 455 0
2020-01-24 15:22:05 GMT 48.806156 17.848230 34,000 299 455 0
2020-01-24 15:21:57 GMT 48.799362 17.867311 34,000 299 455 0
2020-01-24 15:21:53 GMT 48.794518 17.880684 34,000 299 455 0
2020-01-24 15:21:46 GMT 48.787582 17.899620 34,000 300 456 0
2020-01-24 15:21:42 GMT 48.782974 17.911835 34,000 301 456 0
2020-01-24 15:21:38 GMT 48.778839 17.922222 34,000 302 456 0
2020-01-24 15:21:34 GMT 48.770920 17.941801 34,000 302 457 0
2020-01-24 15:21:27 GMT 48.767147 17.951082 34,000 302 457 0
2020-01-24 15:21:23 GMT 48.762676 17.961924 34,000 302 457 0
2020-01-24 15:21:20 GMT 48.759796 17.968985 34,000 302 457 0
2020-01-24 15:21:17 GMT 48.756683 17.976591 34,000 302 457 0
2020-01-24 15:21:14 GMT 48.748672 17.996168 34,000 302 456 0
2020-01-24 15:21:11 GMT 48.748672 17.996168 34,000 302 457 0
2020-01-24 15:21:06 GMT 48.744476 18.006519 34,000 302 457 0
2020-01-24 15:21:02 GMT 48.739403 18.018951 34,000 302 457 0
2020-01-24 15:20:59 GMT 48.736679 18.025536 34,000 302 457 64
2020-01-24 15:20:56 GMT 48.729347 18.043383 34,000 302 457 0
2020-01-24 15:20:53 GMT 48.729347 18.043383 34,000 302 456 0
2020-01-24 15:20:50 GMT 48.722031 18.061312 34,000 302 457 0
2020-01-24 15:20:46 GMT 48.722031 18.061312 34,000 302 456 0
2020-01-24 15:20:43 GMT 48.716915 18.073811 34,000 302 456 0
2020-01-24 15:20:40 GMT 48.714264 18.080317 34,000 302 456 0
2020-01-24 15:20:36 GMT 48.710678 18.088989 34,000 302 456 0
2020-01-24 15:20:33 GMT 48.707142 18.097664 34,000 302 456 0
2020-01-24 15:20:30 GMT 48.703602 18.106337 34,000 302 456 0
2020-01-24 15:20:26 GMT 48.699371 18.116596 34,000 302 456 0
2020-01-24 15:20:22 GMT 48.694710 18.127947 34,000 302 456 0
2020-01-24 15:20:19 GMT 48.686703 18.147390 34,000 302 456 0
2020-01-24 15:20:15 GMT 48.686703 18.147390 34,000 302 456 0
2020-01-24 15:20:11 GMT 48.682281 18.158232 34,000 302 455 0
2020-01-24 15:20:08 GMT 48.675625 18.174421 34,000 302 455 0
2020-01-24 15:20:05 GMT 48.675625 18.174421 34,000 302 455 64
2020-01-24 15:20:02 GMT 48.672974 18.180927 34,000 302 455 64
2020-01-24 15:19:59 GMT 48.669205 18.190121 34,000 302 455 0
2020-01-24 15:19:55 GMT 48.664082 18.202539 34,000 302 456 0
2020-01-24 15:19:50 GMT 48.659191 18.214392 34,000 302 456 0
2020-01-24 15:19:46 GMT 48.654053 18.226883 34,000 302 456 0
2020-01-24 15:19:40 GMT 48.647602 18.242510 34,000 302 456 0
2020-01-24 15:19:36 GMT 48.643387 18.252798 34,000 302 456 0
2020-01-24 15:19:31 GMT 48.638031 18.265757 34,000 302 456 0
2020-01-24 15:19:28 GMT 48.629353 18.286888 34,000 302 456 0
2020-01-24 15:19:24 GMT 48.629353 18.286888 34,000 302 457 0
2020-01-24 15:19:21 GMT 48.626884 18.292814 34,000 302 457 0
2020-01-24 15:19:17 GMT 48.623116 18.301994 34,000 302 457 0
2020-01-24 15:19:14 GMT 48.619530 18.310667 34,000 302 457 0
2020-01-24 15:19:11 GMT 48.616409 18.318184 34,000 302 457 0
2020-01-24 15:19:08 GMT 48.613293 18.325773 34,000 303 456 0
2020-01-24 15:19:05 GMT 48.608822 18.336542 34,000 303 456 0
2020-01-24 15:18:58 GMT 48.601234 18.354902 34,000 303 456 0
2020-01-24 15:18:55 GMT 48.598343 18.361887 34,000 303 456 0
2020-01-24 15:18:52 GMT 48.594952 18.370008 34,000 303 456 0
2020-01-24 15:18:49 GMT 48.588711 18.385115 34,000 302 457 0
2020-01-24 15:18:43 GMT 48.583778 18.396969 34,000 303 456 0
2020-01-24 15:18:39 GMT 48.580444 18.405058 34,000 303 456 0
2020-01-24 15:18:33 GMT 48.573071 18.422844 34,000 303 456 0
2020-01-24 15:18:30 GMT 48.569275 18.432030 34,000 303 456 0
2020-01-24 15:18:27 GMT 48.567444 18.436325 34,000 303 456 0
2020-01-24 15:18:24 GMT 48.557850 18.459490 34,000 303 456 0
2020-01-24 15:18:20 GMT 48.557850 18.459490 34,000 303 456 0
2020-01-24 15:18:17 GMT 48.556274 18.463228 34,000 303 456 0
2020-01-24 15:18:14 GMT 48.552704 18.471821 34,000 303 456 0
2020-01-24 15:18:10 GMT 48.547760 18.483652 34,000 303 456 0
2020-01-24 15:18:05 GMT 48.541077 18.499779 34,000 303 456 0
2020-01-24 15:18:02 GMT 48.538834 18.505201 34,000 303 456 0
2020-01-24 15:17:59 GMT 48.535263 18.513794 34,000 303 456 0
2020-01-24 15:17:55 GMT 48.530102 18.526201 34,000 303 456 0
2020-01-24 15:17:52 GMT 48.527618 18.532104 34,000 303 456 0
2020-01-24 15:17:48 GMT 48.523354 18.542320 34,000 303 456 0
2020-01-24 15:17:44 GMT 48.517776 18.555767 34,000 303 456 0
2020-01-24 15:17:40 GMT 48.513020 18.567110 34,000 303 456 0
2020-01-24 15:17:37 GMT 48.511459 18.570839 34,000 303 456 -64
2020-01-24 15:17:34 GMT 48.504498 18.587566 34,000 303 456 0
2020-01-24 15:17:31 GMT 48.504498 18.587566 34,000 303 456 0
2020-01-24 15:17:28 GMT 48.499565 18.599348 34,000 303 456 0
2020-01-24 15:17:25 GMT 48.495934 18.608021 34,000 303 456 0
2020-01-24 15:17:22 GMT 48.493011 18.614994 34,000 303 456 0
2020-01-24 15:17:16 GMT 48.487198 18.628939 34,000 303 456 0
2020-01-24 15:17:13 GMT 48.483829 18.637005 34,000 303 456 0
2020-01-24 15:17:09 GMT 48.479313 18.647774 34,000 303 456 0
2020-01-24 15:17:06 GMT 48.471680 18.665989 34,000 303 456 0
2020-01-24 15:17:02 GMT 48.468094 18.674589 34,000 303 456 0
2020-01-24 15:16:59 GMT 48.468094 18.674589 34,000 303 456 64
2020-01-24 15:16:56 GMT 48.464512 18.683191 34,000 303 456 64
2020-01-24 15:16:51 GMT 48.456161 18.702955 34,000 303 455 0
2020-01-24 15:16:48 GMT 48.451263 18.714718 34,000 303 455 0
2020-01-24 15:16:44 GMT 48.451263 18.714718 34,000 303 455 0
2020-01-24 15:16:41 GMT 48.447426 18.723810 34,000 303 455 0
2020-01-24 15:16:38 GMT 48.444489 18.730774 34,000 303 455 0
2020-01-24 15:16:35 GMT 48.441376 18.738239 34,000 303 455 0
2020-01-24 15:16:32 GMT 48.434189 18.755423 34,000 303 455 0
2020-01-24 15:16:29 GMT 48.431690 18.761251 34,000 303 455 64
2020-01-24 15:16:23 GMT 48.427460 18.771408 34,000 303 455 0
2020-01-24 15:16:20 GMT 48.420685 18.787466 34,000 303 456 0
2020-01-24 15:16:17 GMT 48.420685 18.787466 34,000 303 456 0
2020-01-24 15:16:12 GMT 48.414825 18.801411 34,000 303 456 0
2020-01-24 15:16:09 GMT 48.408966 18.815285 34,000 303 456 0
2020-01-24 15:16:06 GMT 48.408966 18.815285 34,000 303 456 0
2020-01-24 15:16:03 GMT 48.404892 18.824932 34,000 303 457 0
2020-01-24 15:16:00 GMT 48.401524 18.832952 34,000 303 457 0
2020-01-24 15:15:55 GMT 48.395416 18.847399 34,000 303 457 0
2020-01-24 15:15:52 GMT 48.392715 18.853876 34,000 303 457 0
2020-01-24 15:15:49 GMT 48.389748 18.860779 34,000 303 456 0
2020-01-24 15:15:46 GMT 48.385464 18.870970 34,000 303 456 0
2020-01-24 15:15:43 GMT 48.378250 18.888103 34,000 303 456 0
2020-01-24 15:15:40 GMT 48.372616 18.901472 34,000 303 457 0
2020-01-24 15:15:36 GMT 48.372616 18.901472 34,000 303 457 0
2020-01-24 15:15:32 GMT 48.366943 18.914865 34,000 303 457 0
2020-01-24 15:15:25 GMT 48.361771 18.927130 34,000 303 457 0
2020-01-24 15:15:22 GMT 48.357254 18.937828 34,000 303 457 0
2020-01-24 15:15:18 GMT 48.353851 18.945852 34,000 303 457 0
2020-01-24 15:15:12 GMT 48.346161 18.964022 34,000 303 457 0
2020-01-24 15:15:08 GMT 48.343460 18.970430 34,000 303 456 0
2020-01-24 15:15:05 GMT 48.338928 18.981134 34,000 303 456 -64
2020-01-24 15:15:01 GMT 48.335094 18.990156 34,000 303 456 0
2020-01-24 15:14:58 GMT 48.332394 18.996590 34,000 303 456 0
2020-01-24 15:14:55 GMT 48.328537 19.005644 34,000 303 456 0
2020-01-24 15:14:52 GMT 48.324669 19.014732 34,000 303 456 0
2020-01-24 15:14:49 GMT 48.320389 19.024799 34,000 303 455 64
2020-01-24 15:14:45 GMT 48.316986 19.032803 34,000 303 455 64
2020-01-24 15:14:39 GMT 48.309998 19.049307 34,000 303 455 0
2020-01-24 15:14:36 GMT 48.307251 19.055716 34,000 303 455 0
2020-01-24 15:14:32 GMT 48.298458 19.076458 34,000 303 455 0
2020-01-24 15:14:29 GMT 48.298458 19.076458 34,000 303 455 0
2020-01-24 15:14:25 GMT 48.293476 19.088167 34,000 303 454 0
2020-01-24 15:14:21 GMT 48.286469 19.104662 34,000 303 455 0
2020-01-24 15:14:18 GMT 48.281746 19.115776 34,000 303 454 0
2020-01-24 15:14:14 GMT 48.281746 19.115776 34,000 303 454 0
2020-01-24 15:14:11 GMT 48.277229 19.126402 34,000 303 454 0
2020-01-24 15:14:07 GMT 48.274532 19.132763 34,000 303 454 0
2020-01-24 15:14:01 GMT 48.263218 19.159288 34,000 303 454 0
2020-01-24 15:13:58 GMT 48.263218 19.159288 34,000 303 454 0
2020-01-24 15:13:53 GMT 48.258003 19.171503 34,000 303 453 0
2020-01-24 15:13:50 GMT 48.251678 19.186283 34,000 303 454 0
2020-01-24 15:13:47 GMT 48.245995 19.199549 34,000 303 454 0
2020-01-24 15:13:43 GMT 48.245995 19.199549 34,000 303 453 0
2020-01-24 15:13:39 GMT 48.238777 19.216461 34,000 303 453 0
2020-01-24 15:13:36 GMT 48.238777 19.216461 34,000 303 453 0
2020-01-24 15:13:33 GMT 48.236080 19.222822 34,000 303 452 0
2020-01-24 15:13:30 GMT 48.231518 19.233374 34,000 303 453 0
2020-01-24 15:13:27 GMT 48.227692 19.242342 34,000 303 453 0
2020-01-24 15:13:24 GMT 48.224487 19.249737 34,000 303 452 0
2020-01-24 15:13:21 GMT 48.222019 19.255564 34,000 303 452 0
2020-01-24 15:13:17 GMT 48.216152 19.269297 34,000 303 453 0
2020-01-24 15:13:13 GMT 48.212524 19.277754 34,000 303 452 0
2020-01-24 15:13:08 GMT 48.208008 19.288305 34,000 303 453 0
2020-01-24 15:13:05 GMT 48.203705 19.298330 34,000 303 453 0
2020-01-24 15:13:02 GMT 48.200047 19.306808 34,000 303 453 0
2020-01-24 15:12:58 GMT 48.196648 19.314688 34,000 303 453 0
2020-01-24 15:12:53 GMT 48.188969 19.332613 34,000 303 452 0
2020-01-24 15:12:49 GMT 48.184917 19.342154 34,000 303 453 0
2020-01-24 15:12:44 GMT 48.180130 19.353191 34,000 303 453 0
2020-01-24 15:12:41 GMT 48.173355 19.369038 34,000 303 453 0
2020-01-24 15:12:38 GMT 48.173355 19.369038 34,000 303 453 0
2020-01-24 15:12:35 GMT 48.169975 19.376919 34,000 303 453 0
2020-01-24 15:12:32 GMT 48.166344 19.385376 34,000 303 452 0
2020-01-24 15:12:27 GMT 48.161591 19.396433 34,000 303 453 0
2020-01-24 15:12:24 GMT 48.157730 19.405447 34,000 303 453 0
2020-01-24 15:12:21 GMT 48.154099 19.413828 34,000 303 452 0
2020-01-24 15:12:18 GMT 48.150696 19.421768 34,000 303 454 0
2020-01-24 15:12:15 GMT 48.145954 19.432842 34,000 303 454 0
2020-01-24 15:12:11 GMT 48.143208 19.439180 34,000 303 454 0
2020-01-24 15:12:08 GMT 48.138428 19.450195 34,000 303 454 0
2020-01-24 15:12:05 GMT 48.134594 19.459183 34,000 303 454 0
2020-01-24 15:12:01 GMT 48.130917 19.467632 34,000 303 454 0
2020-01-24 15:11:57 GMT 48.127075 19.476562 34,000 303 454 0
2020-01-24 15:11:53 GMT 48.122307 19.487633 34,000 303 454 0
2020-01-24 15:11:50 GMT 48.119095 19.495028 34,000 303 454 0
2020-01-24 15:11:47 GMT 48.114998 19.504465 34,000 303 454 0
2020-01-24 15:11:44 GMT 48.107922 19.520874 34,000 303 454 0
2020-01-24 15:11:37 GMT 48.103821 19.530327 34,000 303 454 0
2020-01-24 15:11:34 GMT 48.101074 19.536644 34,000 303 454 0
2020-01-24 15:11:30 GMT 48.095631 19.549255 34,000 303 454 0
2020-01-24 15:11:27 GMT 48.091766 19.558199 34,000 303 454 0
2020-01-24 15:11:21 GMT 48.084690 19.574537 34,000 303 454 0
2020-01-24 15:11:16 GMT 48.075798 19.595032 34,000 303 453 0
2020-01-24 15:11:10 GMT 48.073284 19.600878 34,000 303 452 0
2020-01-24 15:11:06 GMT 48.067383 19.614441 34,000 303 452 0
2020-01-24 15:11:02 GMT 48.061230 19.628626 34,000 303 452 0
2020-01-24 15:10:56 GMT 48.050335 19.653767 34,000 303 452 0
2020-01-24 15:10:51 GMT 48.050335 19.653767 34,000 303 452 0
2020-01-24 15:10:48 GMT 48.048054 19.659048 34,000 303 452 0
2020-01-24 15:10:44 GMT 48.041473 19.674179 34,000 303 452 0
2020-01-24 15:10:40 GMT 48.038979 19.679964 34,000 303 452 0
2020-01-24 15:10:37 GMT 48.035568 19.687775 34,000 303 452 0
2020-01-24 15:10:34 GMT 48.027618 19.706093 34,000 303 451 0
2020-01-24 15:10:27 GMT 48.023056 19.716515 34,000 303 451 0
2020-01-24 15:10:19 GMT 48.015095 19.734825 34,000 303 451 0
2020-01-24 15:10:15 GMT 48.007828 19.751495 34,000 303 451 0
2020-01-24 15:10:07 GMT 48.002380 19.763992 34,000 303 451 0
2020-01-24 15:10:04 GMT 47.998058 19.773912 34,000 304 451 0
2020-01-24 15:09:57 GMT 47.990749 19.790531 34,000 303 451 0
2020-01-24 15:09:54 GMT 47.985767 19.802011 34,000 303 451 0
2020-01-24 15:09:47 GMT 47.979584 19.816040 34,000 303 451 0
2020-01-24 15:09:42 GMT 47.972546 19.832224 34,000 304 450 0
2020-01-24 15:09:38 GMT 47.967052 19.844688 34,000 304 450 0
2020-01-24 15:09:33 GMT 47.958858 19.863422 34,000 304 451 0
2020-01-24 15:09:27 GMT 47.955917 19.870216 34,000 304 450 0
2020-01-24 15:09:22 GMT 47.951084 19.881100 34,000 304 451 0
2020-01-24 15:09:17 GMT 47.944473 19.896240 34,000 304 451 0
2020-01-24 15:09:14 GMT 47.939941 19.906609 34,000 304 451 0
2020-01-24 15:09:06 GMT 47.932884 19.922720 34,000 304 451 0
2020-01-24 15:09:03 GMT 47.921219 19.949249 34,000 304 450 0
2020-01-24 15:08:56 GMT 47.921219 19.949249 34,000 304 451 0
2020-01-24 15:08:52 GMT 47.916451 19.960115 34,000 304 451 0
2020-01-24 15:08:45 GMT 47.907532 19.980423 34,000 304 451 0
2020-01-24 15:08:41 GMT 47.903458 19.989761 34,000 304 451 0
2020-01-24 15:08:36 GMT 47.898205 20.001667 34,000 304 450 0
2020-01-24 15:08:31 GMT 47.892242 20.015188 34,000 304 451 0
2020-01-24 15:08:26 GMT 47.886566 20.028214 34,000 304 452 0
2020-01-24 15:08:22 GMT 47.882191 20.038076 34,000 304 451 0
2020-01-24 15:08:15 GMT 47.870319 20.065048 34,000 304 452 64
2020-01-24 15:08:12 GMT 47.870319 20.065048 34,000 304 452 0
2020-01-24 15:08:05 GMT 47.863220 20.081154 34,000 304 452 0
2020-01-24 15:08:02 GMT 47.858643 20.091522 34,000 304 452 0
2020-01-24 15:07:55 GMT 47.847153 20.117477 34,000 304 452 0
2020-01-24 15:07:52 GMT 47.838455 20.137184 34,000 304 452 0
2020-01-24 15:07:44 GMT 47.838455 20.137184 34,000 304 452 0
2020-01-24 15:07:41 GMT 47.835449 20.143927 34,000 304 451 0
2020-01-24 15:07:35 GMT 47.827881 20.161011 34,000 304 451 0
2020-01-24 15:07:31 GMT 47.823532 20.170828 34,000 304 450 0
2020-01-24 15:07:25 GMT 47.816437 20.186829 34,000 304 451 0
2020-01-24 15:07:19 GMT 47.804771 20.213224 34,000 304 450 0
2020-01-24 15:07:14 GMT 47.804771 20.213224 34,000 304 451 0
2020-01-24 15:07:11 GMT 47.799957 20.224045 34,000 304 451 0
2020-01-24 15:07:04 GMT 47.788055 20.250893 34,000 304 451 0
2020-01-24 15:07:00 GMT 47.788055 20.250893 34,000 304 450 0
2020-01-24 15:06:54 GMT 47.781647 20.265381 34,000 304 451 0
2020-01-24 15:06:49 GMT 47.775444 20.279352 34,000 304 451 0
2020-01-24 15:06:44 GMT 47.769699 20.292229 34,000 304 450 0
2020-01-24 15:06:41 GMT 47.766273 20.299988 34,000 304 450 0
2020-01-24 15:06:34 GMT 47.757988 20.318510 34,000 304 450 0
2020-01-24 15:06:28 GMT 47.751564 20.332947 34,000 304 450 0
2020-01-24 15:06:23 GMT 47.746262 20.344826 34,000 304 450 0
2020-01-24 15:06:19 GMT 47.740948 20.356680 34,000 304 450 0
2020-01-24 15:06:13 GMT 47.734726 20.370575 34,000 304 450 0
2020-01-24 15:06:08 GMT 47.728519 20.384499 34,000 304 450 0
2020-01-24 15:06:03 GMT 47.722321 20.398384 34,000 304 450 0
2020-01-24 15:05:59 GMT 47.717487 20.409218 34,000 304 450 0
2020-01-24 15:05:53 GMT 47.705990 20.434994 34,000 304 450 0
2020-01-24 15:05:48 GMT 47.705990 20.434994 34,000 304 450 0
2020-01-24 15:05:43 GMT 47.699051 20.450417 34,000 304 450 0
2020-01-24 15:05:40 GMT 47.696770 20.455557 34,000 304 450 0
2020-01-24 15:05:37 GMT 47.691010 20.468422 34,000 304 450 0
2020-01-24 15:05:32 GMT 47.687553 20.476122 34,000 304 450 0
2020-01-24 15:05:27 GMT 47.681808 20.489021 34,000 304 450 0
2020-01-24 15:05:22 GMT 47.675812 20.502342 34,000 304 450 0
2020-01-24 15:05:17 GMT 47.669632 20.516264 34,000 304 450 0
2020-01-24 15:05:11 GMT 47.662949 20.531113 34,000 304 450 0
2020-01-24 15:05:07 GMT 47.658783 20.540382 34,000 304 451 0
2020-01-24 15:05:01 GMT 47.651413 20.556862 34,000 304 451 0
2020-01-24 15:04:58 GMT 47.646542 20.567602 34,000 304 451 0
2020-01-24 15:04:51 GMT 47.639606 20.583027 34,000 304 451 0
2020-01-24 15:04:47 GMT 47.634995 20.593309 34,000 304 451 0
2020-01-24 15:04:41 GMT 47.628754 20.607124 34,000 304 451 0
2020-01-24 15:04:37 GMT 47.622986 20.620001 34,000 304 451 0
2020-01-24 15:04:31 GMT 47.616516 20.634367 34,000 304 451 0
2020-01-24 15:04:26 GMT 47.611221 20.646126 34,000 304 451 0
2020-01-24 15:04:21 GMT 47.604969 20.660002 34,000 304 451 0
2020-01-24 15:04:16 GMT 47.598724 20.673866 34,000 304 450 0
2020-01-24 15:04:11 GMT 47.593185 20.686157 34,000 304 450 0
2020-01-24 15:04:06 GMT 47.587837 20.697960 34,000 304 450 0
2020-01-24 15:04:00 GMT 47.581367 20.712257 34,000 304 450 0
2020-01-24 15:03:56 GMT 47.576065 20.724060 34,000 304 450 0
2020-01-24 15:03:50 GMT 47.569824 20.737892 34,000 304 450 0
2020-01-24 15:03:45 GMT 47.563156 20.752693 34,000 304 450 0
2020-01-24 15:03:40 GMT 47.558277 20.763456 34,000 304 449 64
2020-01-24 15:03:36 GMT 47.552273 20.776695 34,000 304 450 0
2020-01-24 15:03:30 GMT 47.546268 20.790007 34,000 304 450 0
2020-01-24 15:03:25 GMT 47.540215 20.803246 34,000 304 450 0
2020-01-24 15:03:20 GMT 47.534676 20.815500 34,000 304 450 0
2020-01-24 15:03:14 GMT 47.528160 20.829796 34,000 304 450 0
2020-01-24 15:03:10 GMT 47.522827 20.841545 34,000 304 450 0
2020-01-24 15:03:05 GMT 47.516613 20.855289 34,000 304 450 64
2020-01-24 15:02:59 GMT 47.510330 20.869080 34,000 304 450 0
2020-01-24 15:02:54 GMT 47.504559 20.881842 34,000 304 450 0
2020-01-24 15:02:49 GMT 47.498291 20.895584 34,000 304 450 0
2020-01-24 15:02:45 GMT 47.492966 20.907265 34,000 304 450 0
2020-01-24 15:02:39 GMT 47.487377 20.919518 34,000 304 450 0
2020-01-24 15:02:34 GMT 47.481373 20.932758 34,000 304 450 0
2020-01-24 15:02:29 GMT 47.475323 20.945997 34,000 304 450 0
2020-01-24 15:02:24 GMT 47.469086 20.959717 34,000 304 450 0
2020-01-24 15:02:19 GMT 47.463501 20.971939 34,000 304 450 0
2020-01-24 15:02:14 GMT 47.457458 20.985191 34,000 304 450 0
2020-01-24 15:02:08 GMT 47.451675 20.997972 34,000 304 450 0
2020-01-24 15:02:03 GMT 47.445621 21.011211 34,000 304 450 0
2020-01-24 15:01:58 GMT 47.440083 21.023396 34,000 304 450 0
2020-01-24 15:01:52 GMT 47.432632 21.039734 34,000 304 450 0
2020-01-24 15:01:48 GMT 47.428444 21.048889 34,000 304 450 0
2020-01-24 15:01:42 GMT 47.420998 21.065157 34,000 304 450 0
2020-01-24 15:01:38 GMT 47.416580 21.074867 34,000 304 450 0
2020-01-24 15:01:31 GMT 47.407700 21.094162 34,000 304 450 0
2020-01-24 15:01:27 GMT 47.403030 21.104393 34,000 304 450 0
2020-01-24 15:01:23 GMT 47.397675 21.116076 34,000 304 450 0
2020-01-24 15:01:17 GMT 47.392086 21.128258 34,000 304 450 0
2020-01-24 15:01:11 GMT 47.385105 21.143541 34,000 304 450 0
2020-01-24 15:01:07 GMT 47.380646 21.153214 34,000 305 451 0
2020-01-24 15:01:01 GMT 47.373421 21.168964 34,000 305 451 0
2020-01-24 15:00:57 GMT 47.368763 21.179106 34,000 305 451 0
2020-01-24 15:00:50 GMT 47.360336 21.197416 34,000 305 451 -64
2020-01-24 15:00:47 GMT 47.357079 21.204529 34,000 305 451 0
2020-01-24 15:00:37 GMT 47.345123 21.230461 34,000 305 450 0
2020-01-24 15:00:30 GMT 47.337433 21.247135 34,000 305 450 0
2020-01-24 15:00:27 GMT 47.333199 21.256290 34,000 305 450 0
2020-01-24 15:00:22 GMT 47.327362 21.268982 34,000 305 450 0
2020-01-24 15:00:16 GMT 47.320358 21.284157 34,000 305 449 0
2020-01-24 15:00:10 GMT 47.313354 21.299332 34,000 305 449 0
2020-01-24 15:00:06 GMT 47.308899 21.308899 34,000 305 449 0
2020-01-24 15:00:00 GMT 47.300983 21.326082 34,000 305 449 0
2020-01-24 14:59:56 GMT 47.297215 21.334183 34,000 305 449 0
2020-01-24 14:59:50 GMT 47.290009 21.349869 34,000 305 449 0
2020-01-24 14:59:46 GMT 47.285110 21.360451 34,000 305 449 0
2020-01-24 14:59:39 GMT 47.277149 21.377634 34,000 305 449 0
2020-01-24 14:59:36 GMT 47.273666 21.385231 34,000 305 449 0
2020-01-24 14:59:28 GMT 47.264999 21.403902 34,000 305 449 0
2020-01-24 14:59:25 GMT 47.254028 21.427597 34,000 305 449 0
2020-01-24 14:59:20 GMT 47.254028 21.427597 34,000 305 449 0
2020-01-24 14:59:09 GMT 47.242096 21.453341 34,000 305 449 0
2020-01-24 14:58:58 GMT 47.229675 21.480125 34,000 305 450 0
2020-01-24 14:58:54 GMT 47.224777 21.490738 34,000 305 450 0
2020-01-24 14:58:51 GMT 47.220795 21.499283 34,000 305 450 0
2020-01-24 14:58:44 GMT 47.213287 21.515488 34,000 305 450 0
2020-01-24 14:58:39 GMT 47.206238 21.530594 34,000 305 450 0
2020-01-24 14:58:32 GMT 47.199188 21.545769 34,000 305 450 0
2020-01-24 14:58:28 GMT 47.194241 21.556303 34,000 305 450 0
2020-01-24 14:58:24 GMT 47.189072 21.567430 34,000 305 450 0
2020-01-24 14:58:18 GMT 47.181995 21.582500 34,000 305 449 0
2020-01-24 14:58:14 GMT 47.178497 21.590057 34,000 305 449 0
2020-01-24 14:58:07 GMT 47.170029 21.608116 34,000 305 449 0
2020-01-24 14:57:57 GMT 47.158310 21.633247 34,000 305 448 0
2020-01-24 14:57:51 GMT 47.151039 21.648771 34,000 305 448 0
2020-01-24 14:57:48 GMT 47.146336 21.658842 34,000 305 448 0
2020-01-24 14:57:41 GMT 47.139084 21.674377 34,000 305 448 0
2020-01-24 14:57:36 GMT 47.132538 21.688385 34,000 305 448 0
2020-01-24 14:57:26 GMT 47.121525 21.711943 34,000 305 448 0
2020-01-24 14:57:22 GMT 47.117065 21.721481 34,000 305 448 0
2020-01-24 14:57:15 GMT 47.109100 21.738510 34,000 305 448 0
2020-01-24 14:57:12 GMT 47.105602 21.745958 34,000 305 448 0
2020-01-24 14:57:05 GMT 47.095734 21.767015 34,000 305 447 0
2020-01-24 14:57:00 GMT 47.091499 21.775959 34,000 305 447 0
2020-01-24 14:56:55 GMT 47.085663 21.788429 34,000 305 447 0
2020-01-24 14:56:49 GMT 47.077698 21.805389 34,000 305 447 0
2020-01-24 14:56:43 GMT 47.070648 21.820358 34,000 305 447 0
2020-01-24 14:56:35 GMT 47.061985 21.838778 34,000 305 447 0
2020-01-24 14:56:26 GMT 47.049789 21.864695 34,000 305 447 0
2020-01-24 14:56:14 GMT 47.037323 21.891083 34,000 305 447 0
2020-01-24 14:56:04 GMT 47.025814 21.915470 34,000 305 447 0
2020-01-24 14:56:00 GMT 47.020432 21.926926 34,000 305 447 0
2020-01-24 14:55:51 GMT 47.009846 21.949347 34,000 305 447 0
2020-01-24 14:55:45 GMT 47.001617 21.966751 34,000 305 447 0
2020-01-24 14:55:41 GMT 46.998367 21.973755 34,000 305 448 0
2020-01-24 14:55:34 GMT 46.989643 21.992165 34,000 305 448 0
2020-01-24 14:55:19 GMT 46.972870 22.027451 34,000 305 447 0
2020-01-24 14:55:14 GMT 46.966042 22.041883 34,000 305 448 0
2020-01-24 14:55:10 GMT 46.962021 22.050316 34,000 305 448 0
2020-01-24 14:55:03 GMT 46.952820 22.069702 34,000 305 447 0
2020-01-24 14:54:52 GMT 46.928288 22.121393 34,000 305 448 0
2020-01-24 14:54:42 GMT 46.928288 22.121393 34,000 305 448 0
2020-01-24 14:54:32 GMT 46.917206 22.144798 34,000 305 447 0
2020-01-24 14:54:23 GMT 46.905151 22.170057 34,000 305 447 0
2020-01-24 14:54:11 GMT 46.892166 22.197395 34,000 305 448 0
2020-01-24 14:54:00 GMT 46.878937 22.225136 34,000 305 448 0
2020-01-24 14:53:51 GMT 46.868500 22.246971 34,000 305 448 0
2020-01-24 14:53:41 GMT 46.856689 22.271767 34,000 305 448 0
2020-01-24 14:53:30 GMT 46.843609 22.298950 34,000 305 448 0
2020-01-24 14:53:19 GMT 46.830597 22.326160 34,000 306 448 0
2020-01-24 14:52:58 GMT 46.805298 22.378944 34,000 306 445 0
2020-01-24 14:52:39 GMT 46.782852 22.425640 34,000 306 445 0
2020-01-24 14:52:27 GMT 46.769165 22.454111 34,000 306 445 0
2020-01-24 14:52:15 GMT 46.755207 22.483109 34,000 306 445 0
2020-01-24 14:52:09 GMT 46.746689 22.500755 34,000 306 445 0
2020-01-24 14:51:57 GMT 46.733688 22.527735 34,000 306 445 0
2020-01-24 14:51:47 GMT 46.722107 22.551773 34,000 306 445 0
2020-01-24 14:51:38 GMT 46.709351 22.578278 34,000 306 446 0
2020-01-24 14:51:30 GMT 46.702229 22.592972 34,000 306 446 0
2020-01-24 14:51:26 GMT 46.696289 22.605242 34,000 306 446 0
2020-01-24 14:51:16 GMT 46.685562 22.627304 34,000 306 446 0
2020-01-24 14:51:09 GMT 46.676998 22.644951 34,000 306 447 0
2020-01-24 14:51:06 GMT 46.671318 22.656761 34,000 306 447 0
2020-01-24 14:50:55 GMT 46.660126 22.679802 34,000 306 447 0
2020-01-24 14:50:45 GMT 46.647995 22.704895 34,000 306 447 0
2020-01-24 14:50:36 GMT 46.636032 22.729408 34,000 306 447 0
2020-01-24 14:50:24 GMT 46.623650 22.755020 34,000 306 449 0
2020-01-24 14:50:13 GMT 46.610241 22.782555 34,000 306 449 0
2020-01-24 14:50:05 GMT 46.598743 22.806107 34,000 306 448 0
2020-01-24 14:49:54 GMT 46.586975 22.830193 34,000 306 449 0
2020-01-24 14:49:41 GMT 46.572098 22.860605 34,000 306 449 0
2020-01-24 14:49:31 GMT 46.559097 22.887201 34,000 306 449 0
2020-01-24 14:49:22 GMT 46.548328 22.909241 34,000 306 449 0
2020-01-24 14:49:14 GMT 46.539669 22.926956 34,000 306 448 64
2020-01-24 14:49:11 GMT 46.535614 22.935301 34,000 306 448 64
2020-01-24 14:49:03 GMT 46.519512 22.968155 34,000 306 448 0
2020-01-24 14:48:58 GMT 46.519512 22.968155 34,000 306 448 0
2020-01-24 14:48:52 GMT 46.512589 22.982327 34,000 306 448 0
2020-01-24 14:48:47 GMT 46.506569 22.994591 34,000 306 448 64
2020-01-24 14:48:42 GMT 46.500332 23.007294 34,000 306 448 0
2020-01-24 14:48:35 GMT 46.492138 23.023911 34,000 306 448 0
2020-01-24 14:48:31 GMT 46.486588 23.035183 34,000 306 448 0
2020-01-24 14:48:20 GMT 46.462555 23.084084 34,000 306 448 0
2020-01-24 14:48:10 GMT 46.462555 23.084084 34,000 306 448 0
2020-01-24 14:48:00 GMT 46.449554 23.110477 34,000 306 448 0
2020-01-24 14:47:50 GMT 46.432922 23.144142 34,000 306 448 0
2020-01-24 14:47:41 GMT 46.423553 23.163198 34,000 306 449 0
2020-01-24 14:47:29 GMT 46.411514 23.187651 34,000 306 448 0
2020-01-24 14:47:18 GMT 46.399220 23.212532 34,000 306 449 0
2020-01-24 14:47:08 GMT 46.388142 23.234985 34,000 306 448 0
2020-01-24 14:46:58 GMT 46.374641 23.262245 34,000 306 447 0
2020-01-24 14:46:47 GMT 46.361847 23.288000 34,000 306 448 0
2020-01-24 14:46:38 GMT 46.350990 23.309898 34,000 306 448 0
2020-01-24 14:46:28 GMT 46.338684 23.334694 34,000 306 447 0
2020-01-24 14:46:23 GMT 46.333630 23.344917 34,000 306 448 0
2020-01-24 14:46:17 GMT 46.325901 23.360435 34,000 306 448 0
2020-01-24 14:46:12 GMT 46.320084 23.372108 34,000 306 447 0
2020-01-24 14:46:08 GMT 46.307514 23.397377 34,000 306 447 0
2020-01-24 14:46:02 GMT 46.307514 23.397377 34,000 306 447 0
2020-01-24 14:45:57 GMT 46.301010 23.410458 34,000 306 447 0
2020-01-24 14:45:51 GMT 46.294281 23.424057 34,000 306 447 0
2020-01-24 14:45:46 GMT 46.288467 23.435715 34,000 306 448 0
2020-01-24 14:45:40 GMT 46.281956 23.448738 34,000 306 448 0
2020-01-24 14:45:37 GMT 46.277802 23.457016 34,000 306 448 0
2020-01-24 14:45:34 GMT 46.274181 23.464256 34,000 306 448 0
2020-01-24 14:45:30 GMT 46.269341 23.473938 34,000 306 448 0
2020-01-24 14:45:25 GMT 46.262329 23.488033 34,000 306 447 0
2020-01-24 14:45:15 GMT 46.250954 23.510742 34,000 306 447 0
2020-01-24 14:45:07 GMT 46.241734 23.529144 34,000 306 447 0
2020-01-24 14:45:04 GMT 46.237656 23.537336 34,000 306 447 0
2020-01-24 14:44:55 GMT 46.225815 23.561005 34,000 306 446 0
2020-01-24 14:44:46 GMT 46.216129 23.580299 34,000 306 446 64
2020-01-24 14:44:42 GMT 46.211563 23.589455 34,000 306 446 0
2020-01-24 14:44:35 GMT 46.203369 23.605801 34,000 306 446 0
2020-01-24 14:44:32 GMT 46.199745 23.613052 34,000 306 446 0
2020-01-24 14:44:24 GMT 46.188152 23.636124 34,000 306 445 0
2020-01-24 14:44:15 GMT 46.175117 23.662010 34,000 306 445 0
2020-01-24 14:44:06 GMT 46.166656 23.678820 34,000 306 445 0
2020-01-24 14:44:02 GMT 46.163269 23.685587 34,000 306 445 0
2020-01-24 14:43:53 GMT 46.142487 23.726917 34,000 306 446 0
2020-01-24 14:43:42 GMT 46.138641 23.734621 34,000 306 446 0
2020-01-24 14:43:32 GMT 46.126286 23.759102 34,000 306 446 0
2020-01-24 14:43:29 GMT 46.123352 23.764870 34,000 306 446 0
2020-01-24 14:43:25 GMT 46.117310 23.776894 34,000 306 446 0
2020-01-24 14:43:15 GMT 46.104916 23.801399 34,000 306 447 0
2020-01-24 14:43:11 GMT 46.101566 23.808128 34,000 306 447 0
2020-01-24 14:43:07 GMT 46.096436 23.818226 34,000 306 447 0
2020-01-24 14:43:04 GMT 46.092300 23.826393 34,000 306 447 0
2020-01-24 14:43:01 GMT 46.088699 23.833633 34,000 306 447 0
2020-01-24 14:42:54 GMT 46.080196 23.850426 34,000 306 447 0
2020-01-24 14:42:47 GMT 46.070469 23.869652 34,000 306 447 0
2020-01-24 14:42:44 GMT 46.068001 23.874458 34,000 306 447 0
2020-01-24 14:42:40 GMT 46.063160 23.884071 34,000 307 448 0
2020-01-24 14:42:33 GMT 46.054592 23.900894 34,000 307 448 0
2020-01-24 14:42:30 GMT 46.050686 23.908585 34,000 307 448 0
2020-01-24 14:42:24 GMT 46.042397 23.924927 34,000 307 448 0
2020-01-24 14:42:20 GMT 46.037796 23.934052 34,000 307 448 0
2020-01-24 14:42:16 GMT 46.032158 23.945045 34,000 307 448 0
2020-01-24 14:42:13 GMT 46.029968 23.949390 34,000 306 447 0
2020-01-24 14:42:08 GMT 46.024895 23.959465 34,000 307 446 0
2020-01-24 14:42:04 GMT 46.019760 23.969488 34,000 307 446 64
2020-01-24 14:42:01 GMT 46.015629 23.977661 34,000 307 446 64
2020-01-24 14:41:58 GMT 46.012745 23.983360 34,000 307 446 64
2020-01-24 14:41:53 GMT 46.005436 23.997780 34,000 307 446 0
2020-01-24 14:41:48 GMT 45.998886 24.010687 34,000 307 446 0
2020-01-24 14:41:43 GMT 45.992569 24.023081 34,000 307 447 0
2020-01-24 14:41:38 GMT 45.987419 24.033142 34,000 307 447 0
2020-01-24 14:41:35 GMT 45.980110 24.047493 34,000 307 447 0
2020-01-24 14:41:27 GMT 45.974293 24.058960 34,000 307 447 0
2020-01-24 14:41:22 GMT 45.967667 24.071850 34,000 307 447 0
2020-01-24 14:41:16 GMT 45.961582 24.083817 34,000 307 446 0
2020-01-24 14:41:12 GMT 45.955715 24.095284 34,000 307 446 0
2020-01-24 14:41:08 GMT 45.949852 24.106750 34,000 307 446 0
2020-01-24 14:41:02 GMT 45.943268 24.119614 34,000 307 447 0
2020-01-24 14:40:57 GMT 45.937408 24.131067 34,000 307 447 0
2020-01-24 14:40:52 GMT 45.930347 24.144928 34,000 307 447 0
2020-01-24 14:40:46 GMT 45.924946 24.155434 34,000 307 447 0
2020-01-24 14:40:41 GMT 45.917637 24.169785 34,000 307 447 -64
2020-01-24 14:40:37 GMT 45.912285 24.180290 34,000 307 447 0
2020-01-24 14:40:31 GMT 45.905907 24.192719 34,000 307 447 0
2020-01-24 14:40:25 GMT 45.898087 24.207962 34,000 307 447 0
2020-01-24 14:40:21 GMT 45.893196 24.217575 34,000 307 447 0
2020-01-24 14:40:15 GMT 45.880737 24.241869 34,000 307 447 0
2020-01-24 14:40:10 GMT 45.880737 24.241869 34,000 307 447 0
2020-01-24 14:40:06 GMT 45.873917 24.255266 34,000 307 447 0
2020-01-24 14:40:00 GMT 45.867554 24.267660 34,000 307 447 0
2020-01-24 14:39:54 GMT 45.860935 24.280540 34,000 307 447 0
2020-01-24 14:39:50 GMT 45.856049 24.290085 34,000 307 447 0
2020-01-24 14:39:44 GMT 45.848969 24.303902 34,000 307 447 0
2020-01-24 14:39:39 GMT 45.842102 24.317232 34,000 307 447 0
2020-01-24 14:39:35 GMT 45.836700 24.327682 34,000 307 447 0
2020-01-24 14:39:27 GMT 45.827408 24.345770 34,000 307 447 0
2020-01-24 14:39:24 GMT 45.823696 24.352913 34,000 307 447 0
2020-01-24 14:39:17 GMT 45.816101 24.367676 34,000 307 447 0
2020-01-24 14:39:13 GMT 45.810196 24.379131 34,000 307 448 0
2020-01-24 14:39:10 GMT 45.806004 24.387245 34,000 307 448 0
2020-01-24 14:39:03 GMT 45.797672 24.403381 34,000 307 448 0
2020-01-24 14:38:59 GMT 45.793488 24.411488 34,000 307 448 -64
2020-01-24 14:38:55 GMT 45.788780 24.420547 34,000 307 448 0
2020-01-24 14:38:52 GMT 45.784607 24.428637 34,000 307 448 0
2020-01-24 14:38:47 GMT 45.777981 24.441490 34,000 307 448 64
2020-01-24 14:38:42 GMT 45.772533 24.451996 34,000 307 448 0
2020-01-24 14:38:38 GMT 45.767853 24.461060 34,000 307 449 0
2020-01-24 14:38:33 GMT 45.759476 24.477270 34,000 307 449 -64
2020-01-24 14:38:28 GMT 45.755035 24.485846 34,000 307 449 -64
2020-01-24 14:38:22 GMT 45.747620 24.500114 34,000 307 449 0
2020-01-24 14:38:19 GMT 45.737778 24.519140 34,000 307 449 0
2020-01-24 14:38:11 GMT 45.733795 24.526777 34,000 307 449 64
2020-01-24 14:38:08 GMT 45.730362 24.533409 34,000 307 449 64
2020-01-24 14:38:01 GMT 45.720768 24.551971 34,000 307 448 64
2020-01-24 14:37:58 GMT 45.718048 24.557190 34,000 307 449 0
2020-01-24 14:37:48 GMT 45.701248 24.589546 34,000 307 449 0
2020-01-24 14:37:40 GMT 45.696049 24.599556 34,000 307 450 0
2020-01-24 14:37:35 GMT 45.690090 24.611023 34,000 307 450 0
2020-01-24 14:37:31 GMT 45.683899 24.622974 34,000 307 450 -64
2020-01-24 14:37:26 GMT 45.677444 24.635366 34,000 307 451 0
2020-01-24 14:37:23 GMT 45.673508 24.643003 34,000 307 451 0
2020-01-24 14:37:15 GMT 45.664814 24.659706 34,000 307 451 64
2020-01-24 14:37:12 GMT 45.657578 24.673552 34,000 307 451 64
2020-01-24 14:37:05 GMT 45.652130 24.684069 34,000 307 451 0
2020-01-24 14:37:00 GMT 45.644890 24.697952 34,000 307 452 0
2020-01-24 14:36:55 GMT 45.635437 24.716080 34,000 307 452 0
2020-01-24 14:36:45 GMT 45.626221 24.733843 34,000 307 452 0
2020-01-24 14:36:41 GMT 45.623199 24.739536 34,000 307 453 0
2020-01-24 14:36:37 GMT 45.618210 24.749117 34,000 307 453 0
2020-01-24 14:36:32 GMT 45.610199 24.764456 34,000 307 453 0
2020-01-24 14:36:29 GMT 45.606720 24.771154 34,000 307 453 0
2020-01-24 14:36:25 GMT 45.601181 24.781740 34,000 307 454 0
2020-01-24 14:36:21 GMT 45.596939 24.789825 34,000 307 454 0
2020-01-24 14:36:14 GMT 45.588638 24.805655 34,000 307 454 0
2020-01-24 14:36:11 GMT 45.584835 24.812828 34,000 307 454 0
2020-01-24 14:36:07 GMT 45.580078 24.821934 34,000 307 454 0
2020-01-24 14:36:04 GMT 45.576050 24.829638 34,000 307 453 0
2020-01-24 14:36:01 GMT 45.571800 24.837753 34,000 307 454 0
2020-01-24 14:35:57 GMT 45.566261 24.848259 34,000 307 453 0
2020-01-24 14:35:54 GMT 45.562500 24.855429 34,000 307 453 0
2020-01-24 14:35:50 GMT 45.558720 24.862610 34,000 307 453 0
2020-01-24 14:35:47 GMT 45.554489 24.870703 34,000 307 453 0
2020-01-24 14:35:44 GMT 45.550713 24.877922 34,000 307 453 0
2020-01-24 14:35:41 GMT 45.546246 24.886513 34,000 307 453 0
2020-01-24 14:35:37 GMT 45.541946 24.894627 34,000 307 453 0
2020-01-24 14:35:33 GMT 45.537460 24.903194 34,000 307 453 0
2020-01-24 14:35:30 GMT 45.533211 24.911299 34,000 307 453 0
2020-01-24 14:35:27 GMT 45.529205 24.918936 34,000 307 453 0
2020-01-24 14:35:24 GMT 45.524963 24.927063 34,000 307 453 0
2020-01-24 14:35:20 GMT 45.520935 24.934713 34,000 307 453 0
2020-01-24 14:35:16 GMT 45.515659 24.944727 34,000 307 452 0
2020-01-24 14:35:13 GMT 45.511658 24.952295 34,000 307 452 0
2020-01-24 14:35:10 GMT 45.508163 24.958996 34,000 307 452 0
2020-01-24 14:35:05 GMT 45.502670 24.969444 34,000 307 452 0
2020-01-24 14:35:02 GMT 45.498917 24.976566 34,000 307 452 0
2020-01-24 14:34:59 GMT 45.495392 24.983236 34,000 307 452 0
2020-01-24 14:34:56 GMT 45.489899 24.993700 34,000 307 452 0
2020-01-24 14:34:50 GMT 45.482094 25.008432 34,000 307 451 0
2020-01-24 14:34:45 GMT 45.477356 25.017439 34,000 307 450 64
2020-01-24 14:34:42 GMT 45.474087 25.023640 34,000 307 450 0
2020-01-24 14:34:39 GMT 45.469109 25.033087 34,000 307 450 0
2020-01-24 14:34:35 GMT 45.464355 25.042091 34,000 307 450 64
2020-01-24 14:34:31 GMT 45.460327 25.049679 34,000 307 450 64
2020-01-24 14:34:28 GMT 45.456585 25.056801 34,000 307 450 64
2020-01-24 14:34:25 GMT 45.451603 25.066244 34,000 307 450 0
2020-01-24 14:34:22 GMT 45.448112 25.072878 34,000 307 450 0
2020-01-24 14:34:19 GMT 45.444351 25.079956 34,000 307 450 0
2020-01-24 14:34:12 GMT 45.435379 25.096958 34,000 307 450 0
2020-01-24 14:34:09 GMT 45.431633 25.104029 34,000 307 450 0
2020-01-24 14:34:02 GMT 45.423626 25.119167 34,000 307 449 0
2020-01-24 14:33:59 GMT 45.418900 25.128086 34,000 307 449 0
2020-01-24 14:33:51 GMT 45.408920 25.146986 34,000 307 449 64
2020-01-24 14:33:48 GMT 45.405945 25.152611 34,000 307 449 0
2020-01-24 14:33:41 GMT 45.397476 25.168631 34,000 307 449 0
2020-01-24 14:33:38 GMT 45.393227 25.176645 34,000 307 449 0
2020-01-24 14:33:31 GMT 45.384754 25.192656 34,000 307 449 0
2020-01-24 14:33:27 GMT 45.380238 25.201096 34,000 307 449 0
2020-01-24 14:33:21 GMT 45.372528 25.215715 34,000 308 448 0
2020-01-24 14:33:18 GMT 45.367538 25.225067 34,000 308 448 0
2020-01-24 14:33:10 GMT 45.359291 25.240553 34,000 308 448 0
2020-01-24 14:33:07 GMT 45.354820 25.248995 34,000 308 448 0
2020-01-24 14:33:04 GMT 45.346573 25.264435 34,000 308 447 0
2020-01-24 14:33:01 GMT 45.346573 25.264435 34,000 308 447 0
2020-01-24 14:32:57 GMT 45.341831 25.273378 34,000 308 447 0
2020-01-24 14:32:53 GMT 45.337097 25.282223 34,000 308 447 0
2020-01-24 14:32:50 GMT 45.333618 25.288828 34,000 308 447 0
2020-01-24 14:32:47 GMT 45.329132 25.297197 34,000 307 447 0
2020-01-24 14:32:40 GMT 45.320930 25.312634 34,000 308 446 0
2020-01-24 14:32:37 GMT 45.316681 25.320543 34,000 308 446 0
2020-01-24 14:32:30 GMT 45.308258 25.336435 34,000 308 446 0
2020-01-24 14:32:27 GMT 45.304031 25.344320 34,000 308 446 0
2020-01-24 14:32:19 GMT 45.295349 25.360632 34,000 308 445 0
2020-01-24 14:32:16 GMT 45.291603 25.367565 34,000 308 445 0
2020-01-24 14:32:12 GMT 45.282665 25.384314 34,000 308 445 0
2020-01-24 14:32:06 GMT 45.279175 25.390812 34,000 308 444 64
2020-01-24 14:32:00 GMT 45.270283 25.407558 34,000 308 445 64
2020-01-24 14:31:56 GMT 45.265812 25.415932 34,000 308 445 0
2020-01-24 14:31:48 GMT 45.256874 25.432613 34,000 308 445 0
2020-01-24 14:31:45 GMT 45.253143 25.439562 34,000 308 445 0
2020-01-24 14:31:39 GMT 45.245178 25.454407 34,000 308 445 0
2020-01-24 14:31:36 GMT 45.240234 25.463694 34,000 308 445 0
2020-01-24 14:31:29 GMT 45.232994 25.477161 34,000 308 445 0
2020-01-24 14:31:25 GMT 45.227783 25.486908 34,000 308 445 0
2020-01-24 14:31:21 GMT 45.221832 25.498026 34,000 308 445 0
2020-01-24 14:31:18 GMT 45.220100 25.501278 34,000 308 445 0
2020-01-24 14:31:15 GMT 45.215378 25.510122 34,000 308 445 0
2020-01-24 14:31:09 GMT 45.207157 25.525394 34,000 308 445 0
2020-01-24 14:31:04 GMT 45.202423 25.534187 34,000 308 445 0
2020-01-24 14:30:58 GMT 45.194218 25.549509 34,000 308 445 0
2020-01-24 14:30:54 GMT 45.189972 25.557404 34,000 308 446 0
2020-01-24 14:30:48 GMT 45.181740 25.572687 34,000 308 446 64
2020-01-24 14:30:45 GMT 45.177521 25.580553 34,000 308 445 64
2020-01-24 14:30:38 GMT 45.167774 25.598614 34,000 308 445 0
2020-01-24 14:30:34 GMT 45.165070 25.603703 34,000 308 446 0
2020-01-24 14:30:30 GMT 45.159073 25.614820 34,000 308 446 0
2020-01-24 14:30:27 GMT 45.155548 25.621294 34,000 308 446 0
2020-01-24 14:30:24 GMT 45.151806 25.628290 34,000 308 446 0
2020-01-24 14:30:17 GMT 45.142822 25.644903 34,000 308 446 0
2020-01-24 14:30:14 GMT 45.139572 25.650984 34,000 308 446 0
2020-01-24 14:30:08 GMT 45.130859 25.667145 34,000 308 446 0
2020-01-24 14:30:04 GMT 45.126572 25.675049 34,000 308 446 0
2020-01-24 14:29:57 GMT 45.117599 25.691660 34,000 308 445 0
2020-01-24 14:29:54 GMT 45.113819 25.698629 34,000 308 445 0
2020-01-24 14:29:46 GMT 45.105103 25.714809 34,000 308 445 0
2020-01-24 14:29:43 GMT 45.101345 25.721741 34,000 308 445 0
2020-01-24 14:29:39 GMT 45.090591 25.741621 34,000 308 445 0
2020-01-24 14:29:33 GMT 45.087845 25.746660 34,000 308 445 0
2020-01-24 14:29:26 GMT 45.079327 25.762403 34,000 308 445 0
2020-01-24 14:29:23 GMT 45.075832 25.768835 34,000 308 445 0
2020-01-24 14:29:18 GMT 45.069317 25.780827 34,000 308 445 0
2020-01-24 14:29:15 GMT 45.065552 25.787788 34,000 308 445 0
2020-01-24 14:29:12 GMT 45.062576 25.793348 34,000 308 445 0
2020-01-24 14:29:06 GMT 45.050034 25.816433 34,000 308 445 0
2020-01-24 14:29:02 GMT 45.050034 25.816433 34,000 308 445 0
2020-01-24 14:28:56 GMT 45.041290 25.832609 34,000 308 445 0
2020-01-24 14:28:52 GMT 45.037537 25.839518 34,000 308 445 64
2020-01-24 14:28:47 GMT 45.030029 25.853380 34,000 308 445 64
2020-01-24 14:28:43 GMT 45.026505 25.859789 34,000 308 445 64
2020-01-24 14:28:37 GMT 45.017990 25.875484 34,000 308 445 0
2020-01-24 14:28:34 GMT 45.012955 25.884769 34,000 308 445 0
2020-01-24 14:28:27 GMT 45.005680 25.898125 34,000 308 446 -64
2020-01-24 14:28:23 GMT 45.000916 25.906939 34,000 308 446 -64
2020-01-24 14:28:15 GMT 44.990131 25.926729 34,000 308 446 64
2020-01-24 14:28:06 GMT 44.980076 25.945219 34,000 308 447 64
2020-01-24 14:28:03 GMT 44.974777 25.954872 34,000 308 447 0
2020-01-24 14:27:56 GMT 44.961685 25.978939 34,000 308 447 0
2020-01-24 14:27:52 GMT 44.961685 25.978939 34,000 308 447 0
2020-01-24 14:27:44 GMT 44.940739 26.017300 34,000 308 447 0
2020-01-24 14:27:35 GMT 44.935711 26.026545 34,000 308 447 0
2020-01-24 14:27:32 GMT 44.935711 26.026545 34,000 308 447 0
2020-01-24 14:27:24 GMT 44.926121 26.044096 34,000 308 447 0
2020-01-24 14:27:21 GMT 44.922585 26.050594 34,000 308 447 0
2020-01-24 14:27:14 GMT 44.913757 26.066765 34,000 308 447 0
2020-01-24 14:27:11 GMT 44.909969 26.073706 34,000 308 447 0
2020-01-24 14:27:03 GMT 44.900333 26.091255 34,000 308 448 0
2020-01-24 14:26:59 GMT 44.892231 26.106062 34,000 308 448 0
2020-01-24 14:26:53 GMT 44.887714 26.114368 34,000 308 448 0
2020-01-24 14:26:50 GMT 44.883156 26.122675 34,000 308 448 0
2020-01-24 14:26:44 GMT 44.874802 26.137913 34,000 308 448 0
2020-01-24 14:26:40 GMT 44.870491 26.145720 34,000 308 448 0
2020-01-24 14:26:33 GMT 44.861618 26.161913 34,000 308 448 0
2020-01-24 14:26:27 GMT 44.854523 26.174795 34,000 308 448 0
2020-01-24 14:26:23 GMT 44.848938 26.184933 34,000 308 449 0
2020-01-24 14:26:17 GMT 44.842094 26.197435 34,000 308 449 0
2020-01-24 14:26:12 GMT 44.835709 26.208998 34,000 308 449 0
2020-01-24 14:26:07 GMT 44.828873 26.221418 34,000 308 449 0
2020-01-24 14:26:04 GMT 44.824825 26.228853 34,000 308 449 0
2020-01-24 14:26:01 GMT 44.819752 26.238031 34,000 308 449 0
2020-01-24 14:25:57 GMT 44.815933 26.244965 34,000 308 449 0
2020-01-24 14:25:52 GMT 44.809601 26.256519 34,000 308 449 0
2020-01-24 14:25:46 GMT 44.802200 26.269880 34,000 308 449 0
2020-01-24 14:25:43 GMT 44.797871 26.277689 34,000 308 449 0
2020-01-24 14:25:37 GMT 44.790482 26.291067 34,000 308 449 0
2020-01-24 14:25:32 GMT 44.784649 26.301670 34,000 308 449 0
2020-01-24 14:25:27 GMT 44.777527 26.314602 34,000 308 449 0
2020-01-24 14:25:22 GMT 44.771942 26.324717 34,000 308 449 0
2020-01-24 14:25:16 GMT 44.763794 26.339455 34,000 308 449 0
2020-01-24 14:25:12 GMT 44.758720 26.348698 34,000 308 449 0
2020-01-24 14:25:06 GMT 44.745453 26.372681 34,000 308 450 0
2020-01-24 14:25:01 GMT 44.745453 26.372681 34,000 308 450 0
2020-01-24 14:24:56 GMT 44.738571 26.385105 34,000 308 450 64
2020-01-24 14:24:52 GMT 44.731979 26.397074 34,000 308 449 64
2020-01-24 14:24:45 GMT 44.724548 26.410463 34,000 308 449 0
2020-01-24 14:24:41 GMT 44.713074 26.431210 34,000 308 451 0
2020-01-24 14:24:36 GMT 44.713074 26.431210 34,000 308 451 0
2020-01-24 14:24:31 GMT 44.706390 26.443176 34,000 308 451 0
2020-01-24 14:24:25 GMT 44.698994 26.456553 34,000 308 451 0
2020-01-24 14:24:21 GMT 44.693619 26.466194 34,000 308 451 0
2020-01-24 14:24:16 GMT 44.685425 26.480974 34,000 308 449 0
2020-01-24 14:24:11 GMT 44.680557 26.489712 34,000 308 450 0
2020-01-24 14:24:05 GMT 44.673157 26.503078 34,000 308 449 64
2020-01-24 14:24:02 GMT 44.669586 26.509487 34,000 308 449 64
2020-01-24 14:23:58 GMT 44.663708 26.520058 34,000 308 450 0
2020-01-24 14:23:55 GMT 44.656536 26.532921 34,000 308 450 0
2020-01-24 14:23:52 GMT 44.656536 26.532921 34,000 308 450 0
2020-01-24 14:23:45 GMT 44.641220 26.560520 34,000 308 450 0
2020-01-24 14:23:40 GMT 44.641220 26.560520 34,000 308 449 0
2020-01-24 14:23:35 GMT 44.633789 26.573835 34,000 308 449 0
2020-01-24 14:23:32 GMT 44.630722 26.579329 34,000 308 449 0
2020-01-24 14:23:28 GMT 44.626419 26.587114 34,000 308 449 0
2020-01-24 14:23:25 GMT 44.621300 26.596292 34,000 308 450 0
2020-01-24 14:23:21 GMT 44.617447 26.603197 34,000 308 450 0
2020-01-24 14:23:18 GMT 44.613373 26.610521 34,000 308 450 0
2020-01-24 14:23:14 GMT 44.607239 26.621572 34,000 308 449 64
2020-01-24 14:23:10 GMT 44.602863 26.629387 34,000 308 450 64
2020-01-24 14:23:06 GMT 44.597790 26.638563 34,000 309 450 0
2020-01-24 14:23:03 GMT 44.594421 26.644527 34,000 308 450 0
2020-01-24 14:22:59 GMT 44.589294 26.653683 34,000 308 450 0
2020-01-24 14:22:53 GMT 44.581100 26.668396 34,000 309 450 0
2020-01-24 14:22:50 GMT 44.575722 26.678020 34,000 309 450 0
2020-01-24 14:22:43 GMT 44.567734 26.692200 34,000 309 450 0
2020-01-24 14:22:40 GMT 44.559803 26.706425 34,000 309 450 0
2020-01-24 14:22:36 GMT 44.559803 26.706425 34,000 309 450 0
2020-01-24 14:22:32 GMT 44.550797 26.722479 34,000 309 450 0
2020-01-24 14:22:25 GMT 44.545929 26.731144 34,000 309 450 0
2020-01-24 14:22:21 GMT 44.540764 26.740320 34,000 309 450 0
2020-01-24 14:22:18 GMT 44.535641 26.749498 34,000 309 450 0
2020-01-24 14:22:14 GMT 44.531799 26.756351 34,000 309 450 0
2020-01-24 14:22:09 GMT 44.524841 26.768724 34,000 309 450 64
2020-01-24 14:22:04 GMT 44.519207 26.778772 34,000 309 450 0
2020-01-24 14:21:59 GMT 44.511749 26.792059 34,000 309 450 0
2020-01-24 14:21:54 GMT 44.505337 26.803558 34,000 309 450 0
2020-01-24 14:21:50 GMT 44.499939 26.813181 34,000 309 450 0
2020-01-24 14:21:44 GMT 44.492752 26.825932 34,000 309 450 0
2020-01-24 14:21:39 GMT 44.486618 26.836918 34,000 309 450 0
2020-01-24 14:21:36 GMT 44.481735 26.845629 34,000 309 450 64
2020-01-24 14:21:33 GMT 44.479431 26.849735 34,000 309 450 0
2020-01-24 14:21:28 GMT 44.472198 26.862553 34,000 309 450 0
2020-01-24 14:21:23 GMT 44.465767 26.873964 34,000 309 450 0
2020-01-24 14:21:19 GMT 44.460648 26.883142 34,000 309 450 0
2020-01-24 14:21:16 GMT 44.457527 26.888636 34,000 309 450 0
2020-01-24 14:21:13 GMT 44.453156 26.896362 34,000 309 451 0
2020-01-24 14:21:09 GMT 44.447750 26.905987 34,000 309 451 0
2020-01-24 14:21:05 GMT 44.442585 26.915165 34,000 309 451 0
2020-01-24 14:21:02 GMT 44.439465 26.920656 34,000 309 451 0
2020-01-24 14:20:57 GMT 44.431736 26.934389 34,000 309 451 0
2020-01-24 14:20:52 GMT 44.425781 26.944885 34,000 309 451 0
2020-01-24 14:20:49 GMT 44.421402 26.952679 34,000 309 451 0
2020-01-24 14:20:42 GMT 44.412651 26.968220 34,000 309 451 0
2020-01-24 14:20:36 GMT 44.404678 26.982355 34,000 309 450 0
2020-01-24 14:20:32 GMT 44.399754 26.991064 34,000 309 450 0
2020-01-24 14:20:28 GMT 44.394634 27.000174 34,000 309 450 0
2020-01-24 14:20:25 GMT 44.391003 27.006605 34,000 309 450 0
2020-01-24 14:20:21 GMT 44.385838 27.015717 34,000 309 449 0
2020-01-24 14:20:18 GMT 44.381470 27.023424 34,000 309 450 0
2020-01-24 14:20:14 GMT 44.375839 27.033495 34,000 309 450 0
2020-01-24 14:20:10 GMT 44.372726 27.038923 34,000 309 449 0
2020-01-24 14:20:05 GMT 44.364235 27.053967 34,000 309 449 0
2020-01-24 14:19:58 GMT 44.355194 27.069855 34,000 309 449 0
2020-01-24 14:19:50 GMT 44.345661 27.086658 34,000 309 449 0
2020-01-24 14:19:47 GMT 44.342590 27.092085 34,000 309 448 0
2020-01-24 14:19:44 GMT 44.338211 27.099806 34,000 309 448 0
2020-01-24 14:19:39 GMT 44.332813 27.109367 34,000 309 448 0
2020-01-24 14:19:36 GMT 44.328461 27.117069 34,000 309 448 0
2020-01-24 14:19:33 GMT 44.323547 27.125647 34,000 309 448 0
2020-01-24 14:19:27 GMT 44.315552 27.139696 34,000 309 449 0
2020-01-24 14:19:16 GMT 44.301682 27.164089 34,000 309 448 0
2020-01-24 14:19:13 GMT 44.298828 27.169123 34,000 309 448 0
2020-01-24 14:19:06 GMT 44.289566 27.185402 34,000 309 449 0
2020-01-24 14:19:03 GMT 44.285423 27.192636 34,000 309 449 0
2020-01-24 14:18:59 GMT 44.274857 27.211172 34,000 309 449 0
2020-01-24 14:18:56 GMT 44.274857 27.211172 34,000 309 449 0
2020-01-24 14:18:52 GMT 44.271503 27.217087 34,000 309 449 0
2020-01-24 14:18:47 GMT 44.265312 27.227940 34,000 309 449 0
2020-01-24 14:18:44 GMT 44.261681 27.234304 34,000 309 449 0
2020-01-24 14:18:39 GMT 44.255264 27.245636 34,000 309 450 0
2020-01-24 14:18:36 GMT 44.250092 27.254726 34,000 309 450 0
2020-01-24 14:18:33 GMT 44.246693 27.260632 34,000 309 450 0
2020-01-24 14:18:29 GMT 44.240501 27.271482 34,000 309 450 64
2020-01-24 14:18:25 GMT 44.235077 27.281015 34,000 309 450 64
2020-01-24 14:18:22 GMT 44.231461 27.287357 34,000 309 450 0
2020-01-24 14:18:16 GMT 44.223679 27.300961 34,000 309 449 0
2020-01-24 14:18:13 GMT 44.221115 27.305471 34,000 309 449 64
2020-01-24 14:18:06 GMT 44.211544 27.322262 34,000 309 449 0
2020-01-24 14:18:03 GMT 44.200138 27.342157 34,000 309 449 0
2020-01-24 14:17:54 GMT 44.194973 27.351200 34,000 309 449 0
2020-01-24 14:17:51 GMT 44.191589 27.357042 34,000 309 449 0
2020-01-24 14:17:43 GMT 44.182030 27.373743 34,000 309 448 0
2020-01-24 14:17:32 GMT 44.167831 27.398561 34,000 309 448 0
2020-01-24 14:17:28 GMT 44.162659 27.407566 34,000 309 448 0
2020-01-24 14:17:23 GMT 44.155426 27.420151 34,000 309 448 0
2020-01-24 14:17:17 GMT 44.148464 27.432339 34,000 309 448 0
2020-01-24 14:17:14 GMT 44.136841 27.452536 34,000 309 448 0
2020-01-24 14:17:08 GMT 44.136841 27.452536 34,000 309 447 0
2020-01-24 14:17:04 GMT 44.131939 27.461111 34,000 309 447 0
2020-01-24 14:17:01 GMT 44.128098 27.467863 34,000 309 447 64
2020-01-24 14:16:58 GMT 44.123428 27.475912 34,000 309 447 0
2020-01-24 14:16:51 GMT 44.113632 27.493031 34,000 309 447 0
2020-01-24 14:16:44 GMT 44.105347 27.507402 34,000 309 448 0
2020-01-24 14:16:40 GMT 44.100983 27.514997 34,000 309 448 0
2020-01-24 14:16:36 GMT 44.095257 27.524872 34,000 309 448 0
2020-01-24 14:16:33 GMT 44.091385 27.531610 34,000 309 448 0
2020-01-24 14:16:27 GMT 44.083385 27.545538 34,000 309 448 0
2020-01-24 14:16:21 GMT 44.074589 27.560774 34,000 309 447 0
2020-01-24 14:16:14 GMT 44.063740 27.579674 34,000 309 447 0
2020-01-24 14:16:11 GMT 44.063740 27.579674 34,000 309 447 0
2020-01-24 14:16:07 GMT 44.057281 27.590885 34,000 309 447 0
2020-01-24 14:16:03 GMT 44.048492 27.606089 34,000 309 447 0
2020-01-24 14:15:53 GMT 44.039703 27.621290 34,000 309 447 0
2020-01-24 14:15:50 GMT 44.035297 27.628916 34,000 309 448 0
2020-01-24 14:15:42 GMT 44.025990 27.645067 34,000 309 448 0
2020-01-24 14:15:39 GMT 44.021843 27.652197 34,000 309 448 0
2020-01-24 14:15:36 GMT 44.017189 27.660238 34,000 309 448 0
2020-01-24 14:15:33 GMT 44.013557 27.666517 34,000 309 448 0
2020-01-24 14:15:30 GMT 44.010441 27.671946 34,000 309 448 -64
2020-01-24 14:15:26 GMT 44.004250 27.682671 34,000 309 448 64
2020-01-24 14:15:22 GMT 44.000336 27.689444 34,000 309 448 0
2020-01-24 14:15:19 GMT 43.994892 27.698822 34,000 309 449 64
2020-01-24 14:15:15 GMT 43.990189 27.706930 34,000 309 450 0
2020-01-24 14:15:12 GMT 43.986786 27.712757 34,000 309 450 0
2020-01-24 14:15:09 GMT 43.983391 27.718571 34,000 309 450 0
2020-01-24 14:15:05 GMT 43.977154 27.729361 34,000 309 450 0
2020-01-24 14:15:01 GMT 43.973236 27.736135 34,000 309 450 0
2020-01-24 14:14:58 GMT 43.968262 27.744663 34,000 309 450 0
2020-01-24 14:14:51 GMT 43.959930 27.759050 34,000 309 450 0
2020-01-24 14:14:47 GMT 43.954716 27.768009 34,000 309 450 0
2020-01-24 14:14:42 GMT 43.947144 27.781038 34,000 309 450 64
2020-01-24 14:14:37 GMT 43.941422 27.790939 34,000 309 451 0
2020-01-24 14:14:31 GMT 43.933861 27.803976 34,000 309 451 0
2020-01-24 14:14:26 GMT 43.927322 27.815210 34,000 309 451 0
2020-01-24 14:14:21 GMT 43.920265 27.827389 34,000 309 451 0
2020-01-24 14:14:16 GMT 43.913425 27.839094 34,000 309 452 0
2020-01-24 14:14:11 GMT 43.906860 27.850342 34,000 309 452 0
2020-01-24 14:14:06 GMT 43.899273 27.863356 34,000 309 452 0
2020-01-24 14:14:00 GMT 43.893219 27.873720 34,000 309 452 0
2020-01-24 14:13:55 GMT 43.886398 27.885408 34,000 309 452 0
2020-01-24 14:13:50 GMT 43.879532 27.897161 34,000 309 453 0
2020-01-24 14:13:44 GMT 43.871899 27.910242 34,000 309 453 0
2020-01-24 14:13:41 GMT 43.866898 27.918816 34,000 309 453 0
2020-01-24 14:13:36 GMT 43.860821 27.929144 34,000 309 453 0
2020-01-24 14:13:32 GMT 43.854767 27.939573 34,000 309 453 0
2020-01-24 14:13:28 GMT 43.849503 27.948580 34,000 310 454 0
2020-01-24 14:13:21 GMT 43.840755 27.963474 34,000 310 454 0
2020-01-24 14:13:17 GMT 43.836273 27.971128 34,000 310 454 0
2020-01-24 14:13:14 GMT 43.832062 27.978346 34,000 310 454 0
2020-01-24 14:13:09 GMT 43.826248 27.988310 34,000 310 454 0
2020-01-24 14:13:03 GMT 43.816921 28.004086 34,000 310 454 0
2020-01-24 14:13:00 GMT 43.812424 28.011751 34,000 310 455 0
2020-01-24 14:12:57 GMT 43.808960 28.017555 34,000 310 456 0
2020-01-24 14:12:53 GMT 43.804962 28.024336 34,000 310 456 0
2020-01-24 14:12:50 GMT 43.799103 28.034300 34,000 310 456 0
2020-01-24 14:12:43 GMT 43.790852 28.048292 34,000 310 456 0
2020-01-24 14:12:39 GMT 43.785500 28.057316 34,000 310 456 0
2020-01-24 14:12:34 GMT 43.777493 28.070852 34,000 310 456 0
2020-01-24 14:12:29 GMT 43.772461 28.079458 34,000 310 456 0
2020-01-24 14:12:25 GMT 43.767105 28.088465 34,000 310 456 0
2020-01-24 14:12:22 GMT 43.762848 28.095682 34,000 310 456 0
2020-01-24 14:12:17 GMT 43.756172 28.107016 34,000 310 456 0
2020-01-24 14:12:12 GMT 43.749481 28.118294 34,000 310 456 0
2020-01-24 14:12:08 GMT 43.743576 28.128258 34,000 310 457 0
2020-01-24 14:12:04 GMT 43.739552 28.135006 34,000 310 457 0
2020-01-24 14:12:01 GMT 43.735016 28.142693 34,000 310 457 0
2020-01-24 14:11:58 GMT 43.730473 28.150373 34,000 310 457 0
2020-01-24 14:11:51 GMT 43.721352 28.165676 34,000 310 457 0
2020-01-24 14:11:48 GMT 43.717346 28.172459 34,000 310 456 0
2020-01-24 14:11:41 GMT 43.704483 28.194113 34,000 310 456 0
2020-01-24 14:11:38 GMT 43.704483 28.194113 34,000 310 456 0
2020-01-24 14:11:31 GMT 43.693817 28.212189 34,000 310 457 0
2020-01-24 14:11:28 GMT 43.689274 28.219889 34,000 310 457 64
2020-01-24 14:11:19 GMT 43.674286 28.245195 34,000 309 457 64
2020-01-24 14:11:16 GMT 43.669491 28.253370 34,000 309 457 64
2020-01-24 14:11:13 GMT 43.665527 28.260157 34,000 309 457 0
2020-01-24 14:11:09 GMT 43.665527 28.260157 34,000 309 457 0
2020-01-24 14:11:06 GMT 43.661270 28.267376 34,000 309 457 0
2020-01-24 14:11:01 GMT 43.653522 28.280575 34,000 309 458 0
2020-01-24 14:10:56 GMT 43.646896 28.291903 34,000 309 458 0
2020-01-24 14:10:52 GMT 43.639187 28.305098 34,000 309 458 0
2020-01-24 14:10:46 GMT 43.634995 28.312422 34,000 309 459 0
2020-01-24 14:10:43 GMT 43.630508 28.320198 34,000 309 459 0
2020-01-24 14:10:39 GMT 43.626297 28.327543 34,000 309 458 0
2020-01-24 14:10:36 GMT 43.621536 28.335785 34,000 309 458 0
2020-01-24 14:10:33 GMT 43.616051 28.345446 34,000 309 459 0
2020-01-24 14:10:26 GMT 43.608181 28.359243 34,000 308 459 0
2020-01-24 14:10:23 GMT 43.604549 28.365719 34,000 308 459 0
2020-01-24 14:10:19 GMT 43.599384 28.375004 34,000 308 460 0
2020-01-24 14:10:15 GMT 43.594940 28.382858 34,000 308 460 0
2020-01-24 14:10:11 GMT 43.589561 28.392660 34,000 308 460 0
2020-01-24 14:10:06 GMT 43.581619 28.407131 34,000 307 460 0
2020-01-24 14:10:02 GMT 43.576538 28.416521 34,000 307 460 0
2020-01-24 14:09:58 GMT 43.572968 28.423100 34,000 307 460 0
2020-01-24 14:09:55 GMT 43.568481 28.431595 34,000 306 459 0
2020-01-24 14:09:49 GMT 43.560280 28.447330 34,000 305 460 0
2020-01-24 14:09:45 GMT 43.556370 28.454983 34,000 306 460 64
2020-01-24 14:09:40 GMT 43.550262 28.466982 34,000 305 460 0
2020-01-24 14:09:34 GMT 43.543442 28.480394 34,000 305 459 0
2020-01-24 14:09:31 GMT 43.538589 28.489977 34,000 305 459 0
2020-01-24 14:09:27 GMT 43.535156 28.496683 34,000 305 459 0
2020-01-24 14:09:24 GMT 43.531265 28.504349 34,000 305 459 0
2020-01-24 14:09:18 GMT 43.522293 28.522078 34,000 305 459 0
2020-01-24 14:09:15 GMT 43.519089 28.528236 34,000 305 458 0
2020-01-24 14:09:12 GMT 43.515701 28.534943 34,000 305 458 0
2020-01-24 14:09:04 GMT 43.500412 28.565042 34,000 305 458 0
2020-01-24 14:08:59 GMT 43.500412 28.565042 34,000 305 458 0
2020-01-24 14:08:54 GMT 43.494640 28.576487 34,000 305 457 0
2020-01-24 14:08:47 GMT 43.485168 28.595049 34,000 306 456 64
2020-01-24 14:08:43 GMT 43.481560 28.602186 34,000 306 456 0
2020-01-24 14:08:39 GMT 43.476208 28.612650 34,000 306 456 0
2020-01-24 14:08:35 GMT 43.468479 28.627821 34,000 306 456 0
2020-01-24 14:08:28 GMT 43.462921 28.638739 34,000 306 456 0
2020-01-24 14:08:25 GMT 43.459263 28.645870 34,000 306 456 0
2020-01-24 14:08:22 GMT 43.456375 28.651560 34,000 306 456 0
2020-01-24 14:08:19 GMT 43.451294 28.661543 34,000 306 456 0
2020-01-24 14:08:16 GMT 43.447403 28.669144 34,000 306 456 0
2020-01-24 14:08:12 GMT 43.444016 28.675785 34,000 306 456 0
2020-01-24 14:08:08 GMT 43.438660 28.686260 34,000 306 457 0
2020-01-24 14:08:05 GMT 43.435005 28.693346 34,000 306 458 0
2020-01-24 14:08:02 GMT 43.431145 28.700932 34,000 306 458 64
2020-01-24 14:07:58 GMT 43.420437 28.721857 34,000 306 458 64
2020-01-24 14:07:53 GMT 43.420437 28.721857 34,000 306 458 0
2020-01-24 14:07:49 GMT 43.414616 28.733303 34,000 306 458 0
2020-01-24 14:07:45 GMT 43.405865 28.750437 34,000 306 458 0
2020-01-24 14:07:41 GMT 43.405865 28.750437 34,000 306 458 0
2020-01-24 14:07:38 GMT 43.401955 28.758022 34,000 306 458 0
2020-01-24 14:07:34 GMT 43.393433 28.774662 34,000 306 457 0
2020-01-24 14:07:31 GMT 43.393433 28.774662 34,000 306 457 0
2020-01-24 14:07:25 GMT 43.386406 28.788429 34,000 306 457 0
2020-01-24 14:07:22 GMT 43.376907 28.806854 34,000 306 457 0
2020-01-24 14:07:18 GMT 43.376907 28.806854 34,000 306 457 0
2020-01-24 14:07:15 GMT 43.374939 28.810686 34,000 306 457 0
2020-01-24 14:07:10 GMT 43.367924 28.824396 34,000 306 456 0
2020-01-24 14:07:04 GMT 43.361130 28.837606 34,000 306 455 0
2020-01-24 14:07:01 GMT 43.351639 28.856037 34,000 306 455 0
2020-01-24 14:06:57 GMT 43.351639 28.856037 34,000 306 455 0
2020-01-24 14:06:52 GMT 43.346329 28.866449 34,000 306 455 0
2020-01-24 14:06:49 GMT 43.342693 28.873508 34,000 306 455 0
2020-01-24 14:06:44 GMT 43.336922 28.884823 34,000 306 454 0
2020-01-24 14:06:41 GMT 43.333012 28.892408 34,000 306 455 0
2020-01-24 14:06:38 GMT 43.329895 28.898514 34,000 306 454 -64
2020-01-24 14:06:35 GMT 43.324539 28.908861 34,000 306 454 0
2020-01-24 14:06:32 GMT 43.321373 28.914968 34,000 306 454 64
2020-01-24 14:06:27 GMT 43.316532 28.924320 34,000 306 454 0
2020-01-24 14:06:24 GMT 43.312202 28.932756 34,000 306 454 0
2020-01-24 14:06:21 GMT 43.308804 28.939362 34,000 306 452 0
2020-01-24 14:06:18 GMT 43.305176 28.946356 34,000 306 452 -64
2020-01-24 14:06:15 GMT 43.301540 28.953421 34,000 306 452 0
2020-01-24 14:06:11 GMT 43.296745 28.962772 34,000 306 451 0
2020-01-24 14:06:05 GMT 43.289486 28.976767 34,000 306 451 64
2020-01-24 14:06:01 GMT 43.284439 28.986595 34,000 306 451 0
2020-01-24 14:05:55 GMT 43.276497 29.002010 34,000 306 451 64
2020-01-24 14:05:51 GMT 43.272400 29.009911 34,000 306 451 64
2020-01-24 14:05:45 GMT 43.264709 29.024857 34,000 306 451 0
2020-01-24 14:05:41 GMT 43.260159 29.033726 34,000 306 451 0
2020-01-24 14:05:36 GMT 43.254593 29.044466 34,000 306 451 0
2020-01-24 14:05:32 GMT 43.248322 29.056602 34,000 306 451 0
2020-01-24 14:05:29 GMT 43.246609 29.059883 34,000 306 451 0
2020-01-24 14:05:26 GMT 43.242283 29.068254 34,000 306 453 0
2020-01-24 14:05:19 GMT 43.234554 29.083229 34,000 306 453 0
2020-01-24 14:05:15 GMT 43.229664 29.092583 34,000 306 454 0
2020-01-24 14:05:12 GMT 43.225571 29.100548 34,000 306 454 0
2020-01-24 14:05:09 GMT 43.221680 29.108086 34,000 306 454 0
2020-01-24 14:05:04 GMT 43.215820 29.119328 34,000 306 454 0
2020-01-24 14:05:01 GMT 43.212936 29.124947 34,000 306 454 0
2020-01-24 14:04:57 GMT 43.207321 29.135742 34,000 306 454 0
2020-01-24 14:04:51 GMT 43.200012 29.149801 34,000 306 455 0
2020-01-24 14:04:48 GMT 43.196613 29.156342 34,000 306 455 0
2020-01-24 14:04:43 GMT 43.190746 29.167656 34,000 306 455 0
2020-01-24 14:04:39 GMT 43.185860 29.177006 34,000 306 455 0
2020-01-24 14:04:29 GMT 43.173431 29.200958 34,000 306 455 0
2020-01-24 14:04:20 GMT 43.158783 29.229061 34,000 306 455 0
2020-01-24 14:04:11 GMT 43.151001 29.244072 34,000 306 455 0
2020-01-24 14:04:07 GMT 43.146606 29.252504 34,000 306 455 0
2020-01-24 14:04:01 GMT 43.139282 29.266556 34,000 306 455 0
2020-01-24 14:03:58 GMT 43.134140 29.276405 34,000 306 455 0
2020-01-24 14:03:50 GMT 43.124828 29.294258 34,000 306 455 0
2020-01-24 14:03:47 GMT 43.121899 29.299883 34,000 306 455 0
2020-01-24 14:03:41 GMT 43.114590 29.313944 34,000 306 455 0
2020-01-24 14:03:38 GMT 43.111141 29.320482 34,000 306 455 0
2020-01-24 14:03:29 GMT 43.099640 29.342503 34,000 306 455 0
2020-01-24 14:03:26 GMT 43.095501 29.350433 34,000 306 455 0
2020-01-24 14:03:18 GMT 43.086960 29.366838 34,000 306 455 0
2020-01-24 14:03:15 GMT 43.083260 29.373844 34,000 306 455 0
2020-01-24 14:03:10 GMT 43.076416 29.386925 34,000 306 455 0
2020-01-24 14:03:07 GMT 43.073273 29.393026 34,000 306 455 0
2020-01-24 14:03:04 GMT 43.069839 29.399607 34,000 306 455 0
2020-01-24 14:02:59 GMT 43.063705 29.411251 34,000 306 455 0
2020-01-24 14:02:56 GMT 43.058819 29.420603 34,000 306 455 0
2020-01-24 14:02:48 GMT 43.046310 29.444445 34,000 306 455 0
2020-01-24 14:02:45 GMT 43.046310 29.444445 34,000 306 455 0
2020-01-24 14:02:36 GMT 43.035774 29.464546 34,000 306 455 0
2020-01-24 14:02:26 GMT 43.017620 29.499077 34,000 306 455 0
2020-01-24 14:02:23 GMT 43.017620 29.499077 34,000 306 455 0
2020-01-24 14:02:16 GMT 43.010513 29.512600 34,000 306 455 0
2020-01-24 14:02:11 GMT 43.004864 29.523336 34,000 306 455 0
2020-01-24 14:02:04 GMT 42.995556 29.541059 34,000 306 455 0
2020-01-24 14:02:01 GMT 42.991882 29.548050 34,000 306 455 0
2020-01-24 14:01:55 GMT 42.984753 29.561592 34,000 306 455 0
2020-01-24 14:01:51 GMT 42.979355 29.571859 34,000 306 455 0
2020-01-24 14:01:46 GMT 42.973709 29.582605 34,000 306 456 0
2020-01-24 14:01:40 GMT 42.967064 29.595205 34,000 306 456 0
2020-01-24 14:01:35 GMT 42.960434 29.607836 34,000 306 456 0
2020-01-24 14:01:30 GMT 42.953796 29.620382 34,000 306 456 0
2020-01-24 14:01:26 GMT 42.948624 29.630192 34,000 306 457 0
2020-01-24 14:01:23 GMT 42.944950 29.637190 34,000 306 457 0
2020-01-24 14:01:19 GMT 42.940247 29.646095 34,000 306 457 0
2020-01-24 14:01:15 GMT 42.935303 29.655420 34,000 306 457 0
2020-01-24 14:01:12 GMT 42.931637 29.662432 34,000 306 457 64
2020-01-24 14:01:08 GMT 42.926926 29.671326 34,000 306 457 64
2020-01-24 14:01:05 GMT 42.919556 29.685314 34,000 306 457 0
2020-01-24 14:00:58 GMT 42.915070 29.693682 34,000 306 457 0
2020-01-24 14:00:55 GMT 42.910873 29.701603 34,000 306 457 0
2020-01-24 14:00:52 GMT 42.906452 29.710039 34,000 306 457 0
2020-01-24 14:00:49 GMT 42.902756 29.716995 34,000 306 457 64
2020-01-24 14:00:45 GMT 42.897812 29.726320 34,000 306 457 0
2020-01-24 14:00:40 GMT 42.891186 29.738943 34,000 306 457 0
2020-01-24 14:00:34 GMT 42.884995 29.750593 34,000 306 457 0
2020-01-24 14:00:31 GMT 42.881058 29.758066 34,000 306 457 0
2020-01-24 14:00:25 GMT 42.873913 29.771641 34,000 306 457 0
2020-01-24 14:00:21 GMT 42.867954 29.782888 34,000 306 457 0
2020-01-24 14:00:18 GMT 42.864510 29.789429 34,000 306 457 0
2020-01-24 14:00:13 GMT 42.857849 29.802011 34,000 306 457 0
2020-01-24 14:00:10 GMT 42.855377 29.806740 34,000 306 458 0
2020-01-24 14:00:07 GMT 42.851395 29.814213 34,000 306 458 0
2020-01-24 14:00:03 GMT 42.846954 29.822643 34,000 306 458 0
2020-01-24 13:59:56 GMT 42.838028 29.839441 34,000 306 458 0
2020-01-24 13:59:50 GMT 42.830063 29.854452 34,000 306 459 0
2020-01-24 13:59:46 GMT 42.826080 29.861925 34,000 306 459 0
2020-01-24 13:59:42 GMT 42.820889 29.871695 34,000 306 459 0
2020-01-24 13:59:37 GMT 42.813675 29.885303 34,000 306 459 0
2020-01-24 13:59:32 GMT 42.803696 29.903975 34,000 306 459 0
2020-01-24 13:59:29 GMT 42.799713 29.911465 34,000 306 458 0
2020-01-24 13:59:19 GMT 42.789047 29.931484 34,000 306 458 0
2020-01-24 13:59:10 GMT 42.780807 29.946857 34,000 306 458 0
2020-01-24 13:59:07 GMT 42.775864 29.956160 34,000 306 458 0
2020-01-24 13:59:00 GMT 42.761902 29.982250 34,000 306 458 0
2020-01-24 13:58:55 GMT 42.761902 29.982250 34,000 306 458 0
2020-01-24 13:58:48 GMT 42.752689 29.999447 34,000 307 457 0
2020-01-24 13:58:44 GMT 42.748993 30.006409 34,000 307 457 0
2020-01-24 13:58:40 GMT 42.743752 30.016182 34,000 307 457 0
2020-01-24 13:58:35 GMT 42.736038 30.030565 34,000 307 457 0
2020-01-24 13:58:30 GMT 42.730812 30.040325 34,000 307 457 0
2020-01-24 13:58:27 GMT 42.726562 30.048168 34,000 307 457 0
2020-01-24 13:58:24 GMT 42.723316 30.054251 34,000 307 457 0
2020-01-24 13:58:19 GMT 42.717869 30.064405 34,000 307 457 0
2020-01-24 13:58:13 GMT 42.710377 30.078331 34,000 307 457 0
2020-01-24 13:58:09 GMT 42.704681 30.088993 34,000 307 457 0
2020-01-24 13:58:04 GMT 42.697945 30.101517 34,000 307 457 0
2020-01-24 13:57:57 GMT 42.690964 30.114485 34,000 307 457 0
2020-01-24 13:57:54 GMT 42.685005 30.125599 34,000 306 457 0
2020-01-24 13:57:48 GMT 42.678818 30.137245 34,000 306 457 0
2020-01-24 13:57:43 GMT 42.672623 30.148848 34,000 306 457 0
2020-01-24 13:57:38 GMT 42.666916 30.159594 34,000 306 457 0
2020-01-24 13:57:33 GMT 42.660004 30.172640 34,000 306 457 0
2020-01-24 13:57:28 GMT 42.653858 30.184235 34,000 306 456 0
2020-01-24 13:57:25 GMT 42.649612 30.192116 34,000 307 457 0
2020-01-24 13:57:22 GMT 42.647388 30.196306 34,000 307 457 0
2020-01-24 13:57:17 GMT 42.640919 30.208315 34,000 305 457 0
2020-01-24 13:57:12 GMT 42.634460 30.221079 34,000 303 458 0
2020-01-24 13:57:06 GMT 42.627975 30.235270 34,000 301 459 0
2020-01-24 13:57:02 GMT 42.623566 30.245735 34,000 299 460 0
2020-01-24 13:56:56 GMT 42.618248 30.259541 34,000 296 461 0
2020-01-24 13:56:51 GMT 42.613499 30.273083 34,000 294 462 64
2020-01-24 13:56:47 GMT 42.610149 30.283751 34,000 291 463 64
2020-01-24 13:56:42 GMT 42.605392 30.300543 34,000 289 464 0
2020-01-24 13:56:35 GMT 42.601349 30.317732 34,000 286 465 64
2020-01-24 13:56:31 GMT 42.599213 30.328445 34,000 284 466 64
2020-01-24 13:56:25 GMT 42.596043 30.346027 34,000 284 467 64
2020-01-24 13:56:19 GMT 42.592972 30.363081 34,000 284 467 0
2020-01-24 13:56:16 GMT 42.591339 30.372150 34,000 284 467 0
2020-01-24 13:56:13 GMT 42.590057 30.379568 34,000 284 467 0
2020-01-24 13:56:10 GMT 42.588734 30.386906 34,000 284 467 0
2020-01-24 13:56:05 GMT 42.585754 30.403416 34,000 284 467 0
2020-01-24 13:56:01 GMT 42.583427 30.416479 34,000 284 467 0
2020-01-24 13:55:54 GMT 42.578121 30.446053 34,000 284 468 64
2020-01-24 13:55:50 GMT 42.578121 30.446053 34,000 284 468 0
2020-01-24 13:55:44 GMT 42.575279 30.461958 34,000 284 468 0
2020-01-24 13:55:39 GMT 42.572708 30.476198 34,000 284 468 0
2020-01-24 13:55:36 GMT 42.570950 30.485847 34,000 284 468 0
2020-01-24 13:55:33 GMT 42.569458 30.494364 34,000 284 468 0
2020-01-24 13:55:28 GMT 42.567085 30.507437 34,000 284 468 64
2020-01-24 13:55:23 GMT 42.564854 30.519957 34,000 284 468 64
2020-01-24 13:55:19 GMT 42.559498 30.549528 34,000 284 468 0
2020-01-24 13:55:13 GMT 42.559498 30.549528 34,000 284 468 0
2020-01-24 13:55:08 GMT 42.556614 30.565498 34,000 284 468 0
2020-01-24 13:55:05 GMT 42.553436 30.583128 34,000 284 468 0
2020-01-24 13:54:58 GMT 42.551678 30.592772 34,000 284 468 0
2020-01-24 13:54:52 GMT 42.548492 30.610407 34,000 284 468 0
2020-01-24 13:54:49 GMT 42.543205 30.639400 34,000 284 467 0
2020-01-24 13:54:42 GMT 42.543205 30.639400 34,000 284 467 0
2020-01-24 13:54:38 GMT 42.541214 30.650169 34,000 284 467 0
2020-01-24 13:54:34 GMT 42.539154 30.661531 34,000 284 467 0
2020-01-24 13:54:31 GMT 42.537807 30.668909 34,000 284 467 0
2020-01-24 13:54:27 GMT 42.535709 30.680279 34,000 284 467 0
2020-01-24 13:54:21 GMT 42.532639 30.697334 34,000 284 467 0
2020-01-24 13:54:18 GMT 42.530544 30.708702 34,000 284 467 0
2020-01-24 13:54:11 GMT 42.525188 30.738213 34,000 284 467 0
2020-01-24 13:54:07 GMT 42.525188 30.738213 34,000 284 467 0
2020-01-24 13:54:03 GMT 42.523224 30.748985 34,000 284 468 0
2020-01-24 13:54:00 GMT 42.519791 30.767723 34,000 284 468 0
2020-01-24 13:53:56 GMT 42.519791 30.767723 34,000 284 468 0
2020-01-24 13:53:51 GMT 42.516903 30.783691 34,000 284 468 0
2020-01-24 13:53:46 GMT 42.514435 30.797359 34,000 284 469 0
2020-01-24 13:53:40 GMT 42.511086 30.815565 34,000 284 469 0
2020-01-24 13:53:36 GMT 42.509354 30.825266 34,000 284 469 0
2020-01-24 13:53:32 GMT 42.507175 30.837217 34,000 284 469 0
2020-01-24 13:53:29 GMT 42.505371 30.846926 34,000 284 469 0
2020-01-24 13:53:26 GMT 42.503822 30.855486 34,000 284 470 0
2020-01-24 13:53:22 GMT 42.501728 30.866856 34,000 284 470 0
2020-01-24 13:53:19 GMT 42.500610 30.873142 34,000 284 470 0
2020-01-24 13:53:15 GMT 42.498276 30.885689 34,000 284 470 0
2020-01-24 13:53:09 GMT 42.495346 30.901670 34,000 285 471 0
2020-01-24 13:53:06 GMT 42.492928 30.914825 34,000 285 471 0
2020-01-24 13:52:59 GMT 42.489670 30.932507 34,000 285 471 0
2020-01-24 13:52:55 GMT 42.487793 30.942806 34,000 285 471 0
2020-01-24 13:52:51 GMT 42.485760 30.953659 34,000 285 471 0
2020-01-24 13:52:45 GMT 42.482300 30.972519 34,000 285 471 0
2020-01-24 13:52:39 GMT 42.478912 30.990808 34,000 285 471 0
2020-01-24 13:52:34 GMT 42.476685 31.002779 34,000 285 471 0
2020-01-24 13:52:31 GMT 42.473373 31.020521 34,000 285 471 0
2020-01-24 13:52:25 GMT 42.471268 31.031944 34,000 285 471 0
2020-01-24 13:52:17 GMT 42.467468 31.052483 34,000 285 471 64
2020-01-24 13:52:14 GMT 42.465958 31.060472 34,000 285 471 64
2020-01-24 13:52:08 GMT 42.462482 31.079300 34,000 285 471 0
2020-01-24 13:52:03 GMT 42.460464 31.090185 34,000 285 471 0
2020-01-24 13:51:57 GMT 42.457260 31.107288 34,000 285 471 0
2020-01-24 13:51:54 GMT 42.455036 31.119286 34,000 285 471 0
2020-01-24 13:51:48 GMT 42.452522 31.132954 34,000 285 471 0
2020-01-24 13:51:43 GMT 42.449543 31.148987 34,000 285 471 0
2020-01-24 13:51:39 GMT 42.447281 31.160910 34,000 285 471 0
2020-01-24 13:51:36 GMT 42.445679 31.169491 34,000 285 471 0
2020-01-24 13:51:33 GMT 42.444187 31.177475 34,000 285 470 0
2020-01-24 13:51:28 GMT 42.441628 31.191145 34,000 285 470 0
2020-01-24 13:51:25 GMT 42.440140 31.199127 34,000 285 470 0
2020-01-24 13:51:22 GMT 42.438538 31.207664 34,000 285 470 64
2020-01-24 13:51:18 GMT 42.436203 31.220148 34,000 285 470 64
2020-01-24 13:51:13 GMT 42.433109 31.236687 34,000 285 470 0
2020-01-24 13:51:08 GMT 42.431202 31.246906 34,000 285 469 0
2020-01-24 13:51:02 GMT 42.427757 31.265110 34,000 285 469 0
2020-01-24 13:50:58 GMT 42.425720 31.275890 34,000 285 469 0
2020-01-24 13:50:55 GMT 42.423798 31.286129 34,000 285 469 0
2020-01-24 13:50:52 GMT 42.422215 31.294621 34,000 285 469 0
2020-01-24 13:50:41 GMT 42.416630 31.324129 34,000 285 469 0
2020-01-24 13:50:31 GMT 42.411045 31.353703 34,000 285 469 64
2020-01-24 13:50:24 GMT 42.406540 31.377577 34,000 285 470 0
2020-01-24 13:50:21 GMT 42.405579 31.382696 34,000 285 470 0
2020-01-24 13:50:13 GMT 42.401276 31.405418 34,000 285 470 0
2020-01-24 13:50:01 GMT 42.394592 31.440748 34,000 285 470 0
2020-01-24 13:49:50 GMT 42.388790 31.471487 34,000 285 471 0
2020-01-24 13:49:43 GMT 42.384693 31.493139 34,000 285 471 0
2020-01-24 13:49:39 GMT 42.383286 31.500549 34,000 285 471 0
2020-01-24 13:49:36 GMT 42.381317 31.510786 34,000 285 471 0
2020-01-24 13:49:29 GMT 42.377838 31.529015 34,000 285 471 0
2020-01-24 13:49:20 GMT 42.372208 31.558664 34,000 285 471 0
2020-01-24 13:49:09 GMT 42.366634 31.587673 34,000 285 471 0
2020-01-24 13:49:01 GMT 42.362366 31.609913 34,000 285 471 0
2020-01-24 13:48:58 GMT 42.360535 31.619547 34,000 285 471 0
2020-01-24 13:48:48 GMT 42.355179 31.647429 34,000 285 471 64
2020-01-24 13:48:40 GMT 42.350372 31.672523 34,000 285 471 64
2020-01-24 13:48:37 GMT 42.349503 31.677080 34,000 285 471 0
2020-01-24 13:48:28 GMT 42.343727 31.707310 34,000 285 472 0
2020-01-24 13:48:17 GMT 42.338333 31.735319 34,000 285 474 0
2020-01-24 13:48:07 GMT 42.332611 31.765034 34,000 285 474 0
2020-01-24 13:47:59 GMT 42.328552 31.786194 34,000 285 474 0
2020-01-24 13:47:56 GMT 42.326321 31.797626 34,000 285 474 0
2020-01-24 13:47:48 GMT 42.322220 31.818777 34,000 285 474 64
2020-01-24 13:47:37 GMT 42.316357 31.849110 34,000 285 474 64
2020-01-24 13:47:29 GMT 42.311142 31.875957 34,000 285 474 0
2020-01-24 13:47:17 GMT 42.305374 31.905670 34,000 285 474 0
2020-01-24 13:47:07 GMT 42.299458 31.935978 34,000 285 474 0
2020-01-24 13:46:53 GMT 42.291321 31.977768 34,000 285 475 0
2020-01-24 13:46:47 GMT 42.288284 31.993273 34,000 285 475 0
2020-01-24 13:46:40 GMT 42.284702 32.011604 34,000 285 476 0
2020-01-24 13:46:35 GMT 42.281769 32.026489 34,000 285 475 0
2020-01-24 13:46:23 GMT 42.275017 32.060917 34,000 285 476 0
2020-01-24 13:46:16 GMT 42.271088 32.081013 34,000 285 477 64
2020-01-24 13:46:05 GMT 42.264729 32.113804 34,000 285 477 0
2020-01-24 13:45:56 GMT 42.259048 32.143124 34,000 285 477 0
2020-01-24 13:45:41 GMT 42.251175 32.183449 34,000 285 478 0
2020-01-24 13:45:34 GMT 42.247459 32.202461 34,000 285 478 0
2020-01-24 13:45:24 GMT 42.241699 32.231888 34,000 285 479 0
2020-01-24 13:45:15 GMT 42.236149 32.260139 34,000 285 480 64
2020-01-24 13:45:04 GMT 42.230301 32.289631 34,000 285 480 0
2020-01-24 13:44:53 GMT 42.223938 32.322025 34,000 285 480 0
2020-01-24 13:44:43 GMT 42.218319 32.350330 34,000 285 480 0
2020-01-24 13:44:32 GMT 42.212265 32.380890 34,000 285 480 64
2020-01-24 13:44:18 GMT 42.204353 32.420780 34,000 285 480 0
2020-01-24 13:44:11 GMT 42.200256 32.441605 34,000 285 481 0
2020-01-24 13:43:59 GMT 42.193039 32.478020 34,000 285 481 64
2020-01-24 13:43:48 GMT 42.187176 32.507523 34,000 285 481 64
2020-01-24 13:43:41 GMT 42.182007 32.533577 34,000 286 482 0
2020-01-24 13:43:18 GMT 42.163925 32.623775 34,000 286 481 64
2020-01-24 13:42:59 GMT 42.157799 32.654434 34,000 286 481 64
2020-01-24 13:42:50 GMT 42.153378 32.676407 34,000 286 482 0
We lost coverage of the aircraft here for a total of 49 minutes
2020-01-24 12:53:59 GMT 41.217407 41.339233 34,000 260 494 0
2020-01-24 12:53:54 GMT 41.219585 41.355347 34,000 260 494 0
2020-01-24 12:53:47 GMT 41.222519 41.376820 34,000 260 493 0
2020-01-24 12:53:43 GMT 41.223824 41.386311 34,000 260 493 0
2020-01-24 12:53:36 GMT 41.226608 41.407166 34,000 260 493 0
2020-01-24 12:53:33 GMT 41.227825 41.416084 34,000 260 492 0
2020-01-24 12:53:23 GMT 41.232101 41.447571 34,000 260 491 64
2020-01-24 12:53:13 GMT 41.235947 41.475952 34,000 260 489 -64
2020-01-24 12:53:06 GMT 41.238857 41.497795 34,000 260 487 0
2020-01-24 12:53:02 GMT 41.240162 41.507221 34,000 260 486 64
2020-01-24 12:52:53 GMT 41.244259 41.537685 34,000 260 484 64
2020-01-24 12:52:45 GMT 41.247070 41.558105 34,000 260 483 64
2020-01-24 12:52:41 GMT 41.248543 41.569206 34,000 260 482 0
2020-01-24 12:52:32 GMT 41.252106 41.595398 34,000 260 482 64
2020-01-24 12:52:25 GMT 41.255219 41.618652 34,000 260 482 64
2020-01-24 12:52:13 GMT 41.261715 41.666962 34,000 260 482 0
2020-01-24 12:50:44 GMT 41.293652 41.907848 34,000 261 474 128
2020-01-24 12:50:21 GMT 41.302124 41.973141 34,000 261 473 64
2020-01-24 12:50:18 GMT 41.303375 41.982849 34,000 261 473 0
2020-01-24 12:50:10 GMT 41.306126 42.004040 34,000 261 472 0
2020-01-24 12:50:06 GMT 41.307816 42.017212 34,000 261 472 0
2020-01-24 12:50:00 GMT 41.310516 42.037781 34,000 261 472 0
2020-01-24 12:49:47 GMT 41.314774 42.070862 34,000 261 471 128
2020-01-24 12:49:39 GMT 41.317951 42.095364 34,000 261 471 0
2020-01-24 12:49:28 GMT 41.321720 42.125015 34,000 261 470 64
2020-01-24 12:49:18 GMT 41.325352 42.153481 34,000 261 470 64
2020-01-24 12:49:09 GMT 41.328842 42.180759 34,000 261 469 0
2020-01-24 12:48:58 GMT 41.332718 42.210815 34,000 261 468 128
2020-01-24 12:48:48 GMT 41.336433 42.239746 34,000 261 468 0
2020-01-24 12:48:38 GMT 41.339996 42.267578 34,000 261 469 64
2020-01-24 12:48:28 GMT 41.343750 42.297119 34,000 261 470 0
2020-01-24 12:48:18 GMT 41.347420 42.326141 34,000 261 470 -64
2020-01-24 12:48:07 GMT 41.351120 42.355225 34,000 261 470 0
2020-01-24 12:47:57 GMT 41.354961 42.385441 34,000 261 470 0
2020-01-24 12:47:46 GMT 41.358685 42.415092 34,000 261 471 0
2020-01-24 12:47:37 GMT 41.362381 42.444214 34,000 261 472 0
2020-01-24 12:47:26 GMT 41.365898 42.472332 34,000 261 474 0
2020-01-24 12:47:15 GMT 41.369762 42.503296 34,000 261 473 64
2020-01-24 12:47:06 GMT 41.373302 42.531944 34,000 261 472 64
2020-01-24 12:46:55 GMT 41.377258 42.563969 34,000 261 471 64
2020-01-24 12:46:45 GMT 41.380611 42.591309 34,000 261 470 0
We lost coverage of the aircraft here for a total of 8 minutes
2020-01-24 12:39:06 GMT 41.534466 43.893002 34,000 262 463 0
2020-01-24 12:39:03 GMT 41.535069 43.898685 34,000 262 463 64
2020-01-24 12:38:56 GMT 41.537632 43.921230 34,000 262 463 0
2020-01-24 12:38:53 GMT 41.538376 43.928001 34,000 262 464 0
2020-01-24 12:38:45 GMT 41.540794 43.949463 34,000 262 464 -128
2020-01-24 12:38:42 GMT 41.541679 43.957386 34,000 262 464 -192
2020-01-24 12:38:36 GMT 41.544022 43.978271 34,025 262 463 64
2020-01-24 12:38:33 GMT 41.544846 43.985619 34,025 262 463 0
2020-01-24 12:38:25 GMT 41.547222 44.006950 34,025 262 461 128
2020-01-24 12:38:22 GMT 41.548187 44.015350 34,000 262 460 192
2020-01-24 12:38:15 GMT 41.550293 44.034389 34,000 262 458 64
2020-01-24 12:38:12 GMT 41.551254 44.043377 34,000 262 458 64
2020-01-24 12:38:05 GMT 41.553589 44.064602 34,000 262 458 128
2020-01-24 12:38:01 GMT 41.554459 44.072403 34,000 262 457 64
2020-01-24 12:37:55 GMT 41.556580 44.091904 34,000 262 457 0
2020-01-24 12:37:52 GMT 41.557617 44.101433 34,000 262 457 0
2020-01-24 12:37:45 GMT 41.559559 44.119816 34,000 262 457 192
2020-01-24 12:37:41 GMT 41.560593 44.129333 34,000 262 458 192
2020-01-24 12:37:35 GMT 41.562721 44.148880 33,975 262 460 0
2020-01-24 12:37:30 GMT 41.563934 44.159546 33,975 262 461 -64
2020-01-24 12:37:24 GMT 41.565842 44.178070 34,000 264 460 -128
2020-01-24 12:37:21 GMT 41.566589 44.186512 34,000 265 459 -64
2020-01-24 12:37:14 GMT 41.567871 44.205677 34,000 267 458 -64
2020-01-24 12:37:11 GMT 41.568375 44.215790 34,000 267 456 -64
2020-01-24 12:37:04 GMT 41.568913 44.234280 34,000 269 455 0
2020-01-24 12:37:00 GMT 41.569008 44.245522 34,000 271 454 0
2020-01-24 12:36:53 GMT 41.568821 44.263340 34,000 273 452 64
2020-01-24 12:36:50 GMT 41.568542 44.272285 34,000 274 451 0
2020-01-24 12:36:44 GMT 41.567459 44.291634 34,000 276 451 -64
2020-01-24 12:36:39 GMT 41.566727 44.302177 34,000 276 451 -128
2020-01-24 12:36:33 GMT 41.565468 44.318722 34,025 276 451 -128
2020-01-24 12:36:30 GMT 41.564713 44.329273 34,025 276 450 64
2020-01-24 12:36:22 GMT 41.563282 44.348549 34,000 276 450 192
2020-01-24 12:36:19 GMT 41.562534 44.358513 34,000 276 450 192
2020-01-24 12:36:13 GMT 41.561279 44.375591 33,975 276 450 0
2020-01-24 12:36:09 GMT 41.560535 44.386044 33,975 276 450 -64
2020-01-24 12:36:02 GMT 41.559174 44.404305 34,000 276 451 0
2020-01-24 12:35:58 GMT 41.558350 44.415352 34,000 276 451 0
2020-01-24 12:35:52 GMT 41.557022 44.433018 34,000 276 451 64
2020-01-24 12:35:49 GMT 41.556347 44.442444 34,000 276 451 64
2020-01-24 12:34:14 GMT 41.536560 44.702217 34,000 276 452 -128
2020-01-24 12:34:10 GMT 41.535690 44.713856 34,000 276 452 -128
2020-01-24 12:34:05 GMT 41.534637 44.727089 34,025 276 452 0
2020-01-24 12:34:01 GMT 41.533581 44.740929 34,000 276 451 128
2020-01-24 12:33:56 GMT 41.532463 44.755299 34,000 276 451 256
2020-01-24 12:33:51 GMT 41.531296 44.770287 33,950 276 451 256
2020-01-24 12:33:45 GMT 41.530277 44.783020 33,950 276 453 0
2020-01-24 12:33:40 GMT 41.529160 44.797394 34,000 276 453 -384
2020-01-24 12:33:35 GMT 41.527992 44.811829 34,050 276 453 -256
2020-01-24 12:33:29 GMT 41.526783 44.827351 34,050 276 452 64
2020-01-24 12:33:24 GMT 41.525761 44.840633 34,025 276 451 256
2020-01-24 12:33:20 GMT 41.524750 44.853371 34,000 277 451 320
2020-01-24 12:33:15 GMT 41.523571 44.868294 33,975 276 452 128
2020-01-24 12:33:10 GMT 41.522507 44.882149 33,975 277 453 -128
2020-01-24 12:33:04 GMT 41.521362 44.896564 34,000 277 453 -128
2020-01-24 12:32:59 GMT 41.520218 44.910988 34,025 276 453 -64
2020-01-24 12:32:53 GMT 41.518890 44.927589 34,025 277 452 64
2020-01-24 12:32:49 GMT 41.518032 44.938171 34,000 276 452 128
2020-01-24 12:32:44 GMT 41.516823 44.953629 34,000 276 452 128
2020-01-24 12:32:39 GMT 41.515705 44.967999 33,975 276 452 128
2020-01-24 12:32:34 GMT 41.514587 44.981899 33,975 277 453 64
2020-01-24 12:32:29 GMT 41.513470 44.995720 33,975 277 454 -64
2020-01-24 12:32:23 GMT 41.512253 45.010738 34,000 277 455 -64
2020-01-24 12:32:19 GMT 41.511292 45.023033 34,000 277 455 -128
2020-01-24 12:32:12 GMT 41.509964 45.039764 34,000 277 455 0
2020-01-24 12:32:08 GMT 41.508907 45.052567 34,000 277 456 0
2020-01-24 12:32:02 GMT 41.507652 45.068218 34,000 277 456 0
2020-01-24 12:31:59 GMT 41.506767 45.079395 34,000 277 457 -128
2020-01-24 12:31:53 GMT 41.505371 45.097279 34,025 277 457 -192
2020-01-24 12:31:47 GMT 41.504333 45.110176 34,025 277 456 0
2020-01-24 12:31:42 GMT 41.503136 45.125256 34,000 277 455 192
2020-01-24 12:31:38 GMT 41.502090 45.138077 34,000 277 455 128
2020-01-24 12:31:32 GMT 41.500854 45.153683 33,975 277 455 0
2020-01-24 12:31:28 GMT 41.499847 45.165920 34,000 277 455 -64
2020-01-24 12:31:21 GMT 41.498520 45.182648 34,000 277 455 -64
2020-01-24 12:31:18 GMT 41.497604 45.193821 34,025 277 454 0
2020-01-24 12:31:12 GMT 41.496231 45.210487 34,000 277 453 128
2020-01-24 12:31:07 GMT 41.495178 45.222660 34,000 277 453 192
2020-01-24 12:31:01 GMT 41.493732 45.239845 33,975 277 452 128
2020-01-24 12:30:56 GMT 41.492706 45.252625 33,975 277 452 0
2020-01-24 12:30:51 GMT 41.491379 45.268105 34,000 277 452 -64
2020-01-24 12:30:46 GMT 41.490372 45.280277 34,000 277 452 -64
2020-01-24 12:30:40 GMT 41.489079 45.296310 34,025 277 452 -64
2020-01-24 12:30:37 GMT 41.488174 45.306870 34,025 277 451 0
2020-01-24 12:30:31 GMT 41.486702 45.323906 34,000 277 450 64
2020-01-24 12:30:27 GMT 41.485657 45.335457 34,000 278 449 128
2020-01-24 12:30:20 GMT 41.484001 45.352455 34,000 278 448 128
2020-01-24 12:30:17 GMT 41.482883 45.363441 33,975 278 449 64
2020-01-24 12:30:10 GMT 41.481022 45.380943 33,975 279 449 64
2020-01-24 12:30:06 GMT 41.479904 45.390846 33,975 279 450 0
2020-01-24 12:29:59 GMT 41.477783 45.408867 33,975 280 450 -192
2020-01-24 12:29:56 GMT 41.476509 45.419334 34,000 280 451 -256
2020-01-24 12:29:49 GMT 41.474030 45.438393 34,025 280 449 0
2020-01-24 12:29:46 GMT 41.472969 45.446606 34,025 280 448 128
2020-01-24 12:29:39 GMT 41.470596 45.465069 34,000 280 446 128
2020-01-24 12:29:36 GMT 41.469337 45.474773 34,000 280 446 64
2020-01-24 12:29:29 GMT 41.467106 45.492085 34,000 280 445 0
2020-01-24 12:29:25 GMT 41.465790 45.502377 34,000 280 445 0
2020-01-24 12:29:18 GMT 41.463474 45.520191 34,000 280 444 64
2020-01-24 12:29:15 GMT 41.462265 45.529343 34,000 280 444 128
2020-01-24 12:29:09 GMT 41.459885 45.547630 33,975 280 444 64
2020-01-24 12:29:05 GMT 41.458511 45.558369 33,975 280 444 0
2020-01-24 12:28:58 GMT 41.456268 45.575596 34,000 280 444 -64
2020-01-24 12:28:54 GMT 41.454849 45.586395 34,000 280 445 -128
2020-01-24 12:28:47 GMT 41.452606 45.603687 34,025 280 445 -64
2020-01-24 12:28:44 GMT 41.451557 45.611786 34,025 280 444 0
2020-01-24 12:28:37 GMT 41.449081 45.630589 34,000 280 444 192
2020-01-24 12:28:34 GMT 41.447880 45.639763 34,000 280 444 192
2020-01-24 12:28:28 GMT 41.444153 45.667740 34,000 280 445 -128
2020-01-24 12:28:17 GMT 41.441734 45.686069 34,000 280 444 -64
2020-01-24 12:28:13 GMT 41.440475 45.695778 34,025 280 444 64
2020-01-24 12:28:07 GMT 41.438194 45.713024 34,000 280 444 192
2020-01-24 12:28:03 GMT 41.436951 45.722164 33,975 280 444 128
2020-01-24 12:27:54 GMT 41.433353 45.749626 33,975 280 446 -128
2020-01-24 12:27:47 GMT 41.430862 45.768543 34,000 280 446 -128
2020-01-24 12:27:43 GMT 41.429718 45.777222 34,000 280 446 -64
2020-01-24 12:27:36 GMT 41.427155 45.796696 34,000 280 447 192
2020-01-24 12:27:33 GMT 41.426090 45.804813 33,975 280 447 128
2020-01-24 12:27:26 GMT 41.423485 45.824360 33,975 281 448 -64
2020-01-24 12:27:23 GMT 41.422256 45.833588 34,000 280 449 -128
2020-01-24 12:27:15 GMT 41.419575 45.853741 34,000 280 450 -64
2020-01-24 12:27:12 GMT 41.418736 45.860317 34,000 280 450 0
2020-01-24 12:27:03 GMT 41.415024 45.888145 34,000 280 450 -64
2020-01-24 12:26:18 GMT 41.398819 46.009182 34,000 281 450 0
2020-01-24 12:26:14 GMT 41.397415 46.019493 34,000 281 450 192
2020-01-24 12:26:11 GMT 41.396439 46.026596 34,000 281 450 192
2020-01-24 12:26:02 GMT 41.392715 46.054432 33,975 281 453 0
2020-01-24 12:25:51 GMT 41.388748 46.083466 34,000 281 455 -64
2020-01-24 12:25:43 GMT 41.386009 46.103874 34,000 281 456 -64
We lost coverage of the aircraft here for a total of 182 minutes
2020-01-24 09:24:08 GMT 32.364513 70.191536 32,000 308 390 0
2020-01-24 09:23:56 GMT 32.353363 70.208847 32,000 308 390 0
2020-01-24 09:23:49 GMT 32.345032 70.221695 32,000 308 390 0
2020-01-24 09:23:39 GMT 32.333042 70.240303 32,000 308 387 0
2020-01-24 09:23:13 GMT 32.304886 70.283768 32,000 308 387 0
2020-01-24 09:23:07 GMT 32.299431 70.292152 32,000 308 387 0
2020-01-24 09:22:18 GMT 32.245285 70.375893 32,000 308 382 64
2020-01-24 09:22:13 GMT 32.240982 70.382538 32,000 308 381 0
2020-01-24 09:22:03 GMT 32.230682 70.398361 32,000 308 380 64
2020-01-24 09:21:52 GMT 32.218060 70.417824 32,000 308 380 0
2020-01-24 09:21:28 GMT 32.191727 70.458344 32,000 308 381 0
2020-01-24 09:21:15 GMT 32.178452 70.478836 32,000 308 381 0
2020-01-24 09:20:41 GMT 32.141434 70.535759 32,000 308 380 0
2020-01-24 09:20:34 GMT 32.133957 70.547226 32,000 308 379 0
We lost coverage of the aircraft here for a total of 7 minutes
2020-01-24 09:14:04 GMT 31.769257 71.204170 32,000 298 364 0
2020-01-24 09:13:57 GMT 31.764687 71.214310 32,000 298 364 64
2020-01-24 09:12:24 GMT 31.686991 71.385696 32,000 298 364 0
2020-01-24 09:11:59 GMT 31.662924 71.438705 32,000 298 364 0
2020-01-24 09:11:49 GMT 31.658175 71.449142 32,000 298 364 0
2020-01-24 09:11:32 GMT 31.646622 71.474571 32,000 298 364 0
2020-01-24 09:11:19 GMT 31.635498 71.498970 32,000 299 365 0
2020-01-24 09:10:44 GMT 31.608398 71.558426 32,000 299 367 0
2020-01-24 09:10:36 GMT 31.601847 71.572800 32,000 299 368 64
2020-01-24 09:10:22 GMT 31.589127 71.600700 32,000 299 370 0
2020-01-24 09:10:06 GMT 31.577774 71.625473 32,000 299 372 0
2020-01-24 09:09:48 GMT 31.563080 71.657410 32,000 299 372 -64
2020-01-24 09:09:22 GMT 31.536758 71.714928 32,000 299 372 64
2020-01-24 09:09:04 GMT 31.526199 71.737976 32,000 299 372 0
2020-01-24 09:08:49 GMT 31.515120 71.762093 32,000 299 372 0
2020-01-24 09:08:34 GMT 31.500595 71.793663 32,000 299 372 0
2020-01-24 09:08:18 GMT 31.489702 71.817459 32,000 299 372 64
2020-01-24 09:08:01 GMT 31.474869 71.849777 32,000 299 373 0
2020-01-24 09:07:48 GMT 31.464890 71.871407 32,000 299 373 64
2020-01-24 09:07:34 GMT 31.454269 71.894531 32,000 299 373 64
2020-01-24 09:07:21 GMT 31.443192 71.918709 32,000 299 373 0
2020-01-24 09:07:06 GMT 31.431381 71.944290 32,000 299 373 0
2020-01-24 09:06:53 GMT 31.420258 71.968529 32,000 299 373 0
2020-01-24 09:06:39 GMT 31.408493 71.994110 32,000 299 373 0
2020-01-24 09:06:24 GMT 31.396683 72.019745 32,000 299 373 64
2020-01-24 09:06:10 GMT 31.385193 72.044571 32,000 299 373 0
2020-01-24 09:05:57 GMT 31.374533 72.067619 32,000 299 372 64
2020-01-24 09:05:43 GMT 31.362854 72.092712 32,000 299 372 -64
2020-01-24 09:05:29 GMT 31.351164 72.117775 32,000 299 371 0
2020-01-24 09:05:14 GMT 31.339338 72.143044 32,000 299 369 -64
2020-01-24 09:05:00 GMT 31.327972 72.167038 32,000 299 366 0
2020-01-24 09:04:47 GMT 31.317039 72.190231 32,000 299 365 64
2020-01-24 09:04:33 GMT 31.305635 72.214340 32,000 299 364 64
2020-01-24 09:04:19 GMT 31.294052 72.239578 32,000 298 362 0
2020-01-24 09:04:05 GMT 31.283844 72.262466 32,000 298 360 0
2020-01-24 09:03:51 GMT 31.274538 72.288284 32,000 289 352 0
2020-01-24 09:03:36 GMT 31.270580 72.314812 32,000 274 344 64
2020-01-24 09:03:23 GMT 31.271652 72.339256 32,000 262 344 0
2020-01-24 09:03:08 GMT 31.274912 72.365791 32,000 262 344 64
2020-01-24 09:02:55 GMT 31.277939 72.390427 32,000 262 344 0
2020-01-24 09:02:40 GMT 31.281336 72.418083 32,000 262 344 64

Making use of Plane Finder data

You are free to use the raw flight data, aircraft information and images provided in this report for your own purposes provided the data is correctly attributed to Plane Finder. We ask that you please credit Plane Finder and link to planefinder.net in close proximity to the content.

Optionally one of the following logos (no smaller then 150x24px) can be used and must link to planefinder.net

Embedding the Plane Finder map

You are welcome to embed the Plane Finder playback map on your website to offer visitors a more interactive experience. We suggest using the following HTML code:

<iframe src="//planefinder.net/data/report/PK709-AP-BHW-7700-squawk-2020-01-24/map" width="800" height="600" seamless="seamless"></iframe>

Where our data comes from

Plane Finder has a global network of data feeds and antenna radars that receive data broadcast directly from aircraft. The primary technologies used are ADS-B and MLAT. We also show feeds from the FAA and a FLARM glider feed.

Click here to find out more about the Plane Finder network.

How we collect our data